Date StartTime U_cm/s V_cm/s W_cm/s Ustd_cm/s Vstd_cm/s Wstd_cm/s Uvar_(cm/s)^2 Vvar_(cm/s)^2 Wvar_(cm/s)^2 KE_(m/s)^2 TurbulentKE_(m/s)^2 HorizWindSpeed_cm/s FrictionSpeec_cm/s DragCoef SpeedOfSound_m/s SonicTemperature_C Pressure_mb 
11/06/2013  00:00:00      -67.462      -28.174      -16.477        7.459        5.510        5.898       55.641       30.362       34.786        0.287        0.006       73.109        2.657        0.001      333.869        3.469      869.109
11/06/2013  00:01:00      -94.198      -31.598      -14.295       10.395        8.177        7.367      108.063       66.869       54.269        0.515        0.011       99.357        4.711        0.002      333.805        3.361      869.109
11/06/2013  00:02:00     -127.580      -34.370      -16.259       12.058       14.090        7.298      145.401      198.527       53.259        0.906        0.020      132.129        4.408        0.001      333.730        3.236      869.117
11/06/2013  00:03:00     -147.217      -33.260      -15.827       16.248       16.254       14.992      263.992      264.206      224.763        1.189        0.038      150.927        9.331        0.004      333.616        3.047      869.130
11/06/2013  00:04:00     -128.923      -59.423       -8.787       26.996       23.161       14.293      728.783      536.415      204.285        1.085        0.073      141.959       14.108        0.010      333.744        3.260      869.152
11/06/2013  00:05:00      -96.351      -43.949        4.446       41.888       27.119       17.823     1754.590      735.417      317.662        0.702        0.140      105.901       18.461        0.030      333.664        3.126      869.173
11/06/2013  00:06:00      -93.196      -47.022        2.482       21.800       18.918       13.605      475.222      357.897      185.084        0.596        0.051      104.387       13.225        0.016      333.676        3.147      869.171
11/06/2013  00:07:00      -91.705      -39.322       -1.627       26.371       18.989       17.610      695.421      360.572      310.111        0.566        0.068       99.780       16.221        0.026      333.668        3.134      869.168
11/06/2013  00:08:00      -94.941      -34.332       -9.937       11.057       13.441        8.669      122.252      180.649       75.160        0.533        0.019      100.958        5.933        0.003      333.700        3.186      869.165
11/06/2013  00:09:00      -82.835      -33.896       -6.468       17.989       12.757        9.329      323.615      162.749       87.037        0.431        0.029       89.502        5.751        0.004      333.750        3.268      869.173
11/06/2013  00:10:00     -100.464      -34.224      -12.912       12.012       12.498        8.304      144.282      156.199       68.961        0.590        0.018      106.134        5.028        0.002      333.723        3.225      869.183
11/06/2013  00:11:00      -88.298      -49.432       -6.206       33.177       14.977       15.217     1100.694      224.314      231.564        0.592        0.078      101.193       15.599        0.024      333.656        3.113      869.203
11/06/2013  00:12:00      -80.328      -41.947        5.765       40.333       22.582       16.944     1626.781      509.946      287.102        0.533        0.121       90.621       13.473        0.022      333.603        3.025      869.222
11/06/2013  00:13:00      -31.726      -31.707       10.973       33.507       28.727       24.348     1122.689      825.218      592.819        0.234        0.127       44.854       19.888        0.197      333.627        3.065      869.230
11/06/2013  00:14:00      -60.862      -44.163        3.341       40.216       32.700       23.485     1617.295     1069.277      551.555        0.445        0.162       75.197       18.371        0.060      333.630        3.071      869.229
11/06/2013  00:15:00      -72.331      -48.802        8.976       71.172       36.969       27.812     5065.425     1366.721      773.507        0.745        0.360       87.255       20.903        0.057      333.694        3.176      869.228
11/06/2013  00:16:00      -78.238      -54.636        2.412       40.413       28.509       24.217     1633.184      812.770      586.444        0.607        0.152       95.426       20.893        0.048      333.768        3.298      869.229
11/06/2013  00:17:00      -75.053      -35.912        0.171       38.021       25.773       17.009     1445.618      664.234      289.294        0.466        0.120       83.203       15.614        0.035      333.671        3.138      869.241
11/06/2013  00:18:00      -48.565      -28.380        2.875       35.333       20.655       18.840     1248.432      426.623      354.929        0.260        0.101       56.249       20.256        0.130      333.684        3.160      869.269
11/06/2013  00:19:00      -47.720      -29.926       -2.751       22.546       21.684       12.334      508.315      470.212      152.133        0.216        0.057       56.327       11.575        0.042      333.714        3.210      869.289
11/06/2013  00:20:00      -52.482      -26.919        4.993       23.893       20.276       12.499      570.876      411.130      156.235        0.232        0.057       58.983       12.503        0.045      333.751        3.269      869.306
11/06/2013  00:21:00      -78.779       -2.424       -2.212       20.736       22.040       13.832      429.977      485.753      191.316        0.366        0.055       78.817       11.637        0.022      333.710        3.203      869.314
11/06/2013  00:22:00      -96.036       -1.097      -10.860       14.631       16.079        7.684      214.077      258.537       59.046        0.494        0.027       96.042        4.930        0.003      333.697        3.182      869.318
11/06/2013  00:23:00      -56.001      -14.828       -4.047       26.019       14.675       10.910      676.983      215.365      119.039        0.219        0.051       57.931       12.508        0.047      333.647        3.098      869.327
11/06/2013  00:24:00      -72.366      -18.708       -6.666        7.698       10.580        6.747       59.254      111.946       45.526        0.292        0.011       74.745        4.810        0.004      333.715        3.211      869.346
11/06/2013  00:25:00      -85.711      -17.122       -3.522       19.333       10.568       11.333      373.784      111.676      128.431        0.413        0.031       87.404        9.351        0.011      333.678        3.151      869.343
11/06/2013  00:26:00     -116.891      -27.352      -11.274       22.553       14.229       12.939      508.636      202.464      167.428        0.771        0.044      120.048       10.592        0.008      333.654        3.109      869.327
11/06/2013  00:27:00     -114.347      -26.410      -10.798       15.044       14.726       10.479      226.335      216.844      109.807        0.722        0.028      117.357       10.066        0.007      333.628        3.068      869.312
11/06/2013  00:28:00      -98.997      -29.473      -10.034       17.897       14.037        9.108      320.309      197.025       82.961        0.568        0.030      103.291        8.270        0.006      333.673        3.141      869.310
11/06/2013  00:29:00      -90.223      -25.651      -11.634       26.617       23.751       12.275      708.478      564.104      150.669        0.518        0.071       93.798       14.389        0.024      333.629        3.069      869.309
11/06/2013  00:30:00      -83.752      -18.226      -11.826       13.926       15.349        8.463      193.937      235.586       71.630        0.399        0.025       85.713        6.438        0.006      333.590        3.005      869.320
11/06/2013  00:31:00      -55.500      -22.924       -1.686       18.310       21.035       14.738      335.240      442.481      217.220        0.230        0.050       60.048       14.586        0.059      333.573        2.976      869.335
11/06/2013  00:32:00      -38.468      -27.253       -3.238       16.573       15.364       11.497      274.657      236.047      132.170        0.144        0.032       47.143        5.117        0.012      333.568        2.967      869.354
11/06/2013  00:33:00       -3.670      -23.153        5.320       24.570       10.853       14.746      603.669      117.783      217.436        0.076        0.047       23.442       15.121        0.416      333.601        3.023      869.364
11/06/2013  00:34:00       -1.940      -11.563       -0.507       10.912        9.174       11.732      119.080       84.155      137.632        0.024        0.017       11.724        4.513        0.148      333.590        3.004      869.363
11/06/2013  00:35:00      -10.484       -7.347       -5.031       10.909       10.146        6.504      119.012      102.935       42.302        0.023        0.013       12.802        2.404        0.035      333.559        2.953      869.348
11/06/2013  00:36:00      -23.583       -7.496       -7.180       18.800        8.474        6.890      353.457       71.812       47.475        0.057        0.024       24.746        3.691        0.022      333.538        2.919      869.332
11/06/2013  00:37:00      -51.166      -23.864       -3.547       19.564       12.557       10.143      382.759      157.675      102.872        0.192        0.032       56.457       10.601        0.035      333.453        2.778      869.326
11/06/2013  00:38:00      -78.720      -20.213       -8.370        8.654       11.489        7.010       74.895      132.002       49.141        0.347        0.013       81.274        3.147        0.001      333.421        2.725      869.330
11/06/2013  00:39:00      -83.182      -20.025      -13.838        9.920       12.810        8.900       98.408      164.093       79.202        0.393        0.017       85.559        4.284        0.003      333.371        2.641      869.351
11/06/2013  00:40:00      -97.407      -23.253      -13.359       20.759       14.773       11.324      430.957      218.229      128.229        0.549        0.039      100.145        9.308        0.009      333.410        2.705      869.365
11/06/2013  00:41:00      -94.115      -30.227       -6.438       25.558       18.252       15.169      653.221      333.122      230.087        0.551        0.061       98.850       13.928        0.020      333.402        2.692      869.366
11/06/2013  00:42:00      -84.991      -46.212       -2.175       19.365       15.368       11.784      375.015      236.164      138.862        0.506        0.038       96.742        6.408        0.004      333.437        2.751      869.355
11/06/2013  00:43:00      -77.905      -35.778       -4.911       10.163        9.996        8.228      103.286       99.920       67.706        0.382        0.014       85.728        4.451        0.003      333.423        2.726      869.345
11/06/2013  00:44:00      -70.528      -23.380        1.181       13.596       13.439        8.238      184.848      180.619       67.866        0.298        0.022       74.303        6.984        0.009      333.470        2.804      869.332
11/06/2013  00:45:00      -78.521      -22.786        1.667       20.098       14.501       11.370      403.946      210.285      129.277        0.372        0.037       81.760       12.191        0.022      333.474        2.812      869.339
11/06/2013  00:46:00      -98.462      -38.530       -4.203       18.449       19.395       11.793      340.358      376.158      139.067        0.603        0.043      105.732        8.436        0.006      333.464        2.794      869.351
11/06/2013  00:47:00     -113.229      -52.988        5.166       26.918       23.472       15.869      724.597      550.935      251.812        0.859        0.076      125.014       12.210        0.010      333.443        2.761      869.370
11/06/2013  00:48:00     -119.773      -49.213       -1.043       32.985       33.234       20.614     1088.007     1104.478      424.949        0.969        0.131      129.490       18.121        0.020      333.366        2.633      869.389
11/06/2013  00:49:00     -102.315      -35.436        0.192       49.021       38.226       20.598     2403.061     1461.263      424.295        0.801        0.214      108.278       22.355        0.043      333.333        2.579      869.405
11/06/2013  00:50:00      -97.057      -26.836        1.852       50.286       21.802       19.103     2528.673      475.331      364.930        0.676        0.168      100.699       25.138        0.062      333.258        2.454      869.424
11/06/2013  00:51:00     -135.058      -25.338       -4.864       36.725       30.019       22.668     1348.719      901.126      513.832        1.083        0.138      137.414       17.760        0.017      333.173        2.313      869.443
11/06/2013  00:52:00     -131.638      -15.891       -6.125       36.353       27.081       20.424     1321.570      733.354      417.129        1.004        0.124      132.594       17.084        0.017      333.124        2.233      869.461
11/06/2013  00:53:00      -92.786       -6.173       -0.718       40.671       23.624       20.317     1654.127      558.107      412.781        0.564        0.131       92.992       19.521        0.044      333.073        2.150      869.460
11/06/2013  00:54:00      -65.350      -29.725       -2.310       29.488       26.643       18.282      869.569      709.860      334.226        0.354        0.096       71.793       12.941        0.032      333.118        2.224      869.452
11/06/2013  00:55:00      -59.528      -38.507       -5.318       22.528       21.047       11.148      507.519      442.968      124.287        0.306        0.054       70.897        6.896        0.009      333.242        2.429      869.438
11/06/2013  00:56:00      -57.240      -13.420       -1.756       18.303       17.742       11.817      335.015      314.773      139.634        0.212        0.039       58.792       10.983        0.035      333.174        2.316      869.427
11/06/2013  00:57:00      -87.382      -19.154       -6.368       11.901       13.935        7.790      141.645      194.188       60.680        0.422        0.020       89.457        5.841        0.004      333.301        2.526      869.439
11/06/2013  00:58:00      -87.898      -25.084       -7.955       14.170       13.478       12.138      200.783      181.651      147.336        0.447        0.026       91.407        5.689        0.004      333.304        2.531      869.466
11/06/2013  00:59:00      -85.292      -13.509       -9.819       20.673       14.249        9.605      427.384      203.028       92.259        0.414        0.036       86.356        8.452        0.010      333.381        2.657      869.482
11/06/2013  01:00:00      -89.829      -16.253       -5.899       13.102       13.077        8.611      171.652      171.000       74.149        0.439        0.021       91.288        5.128        0.003      333.315        2.549      869.474
11/06/2013  01:01:00      -90.889      -25.517       -7.261       14.478       14.389        8.485      209.607      207.040       72.001        0.473        0.024       94.403        5.708        0.004      333.255        2.449      869.464
11/06/2013  01:02:00      -57.251      -27.012      -13.103       22.194       22.201       13.898      492.556      492.866      193.145        0.268        0.059       63.303       10.186        0.026      333.181        2.328      869.464
11/06/2013  01:03:00      -67.250      -31.098      -12.036       27.501       16.185       11.553      756.294      261.962      133.463        0.339        0.058       74.092        7.042        0.009      333.109        2.209      869.469
11/06/2013  01:04:00     -107.137      -16.776       -9.725       23.426       12.136       12.883      548.759      147.285      165.975        0.636        0.043      108.442       10.974        0.010      333.051        2.113      869.470
11/06/2013  01:05:00     -131.082      -19.142      -15.006       11.779       12.499       14.067      138.750      156.232      197.885        0.913        0.025      132.472        9.358        0.005      332.975        1.986      869.468
11/06/2013  01:06:00     -123.099      -28.412      -17.956       17.447       16.004        9.683      304.403      256.141       93.768        0.847        0.033      126.335        3.597        0.001      332.933        1.919      869.476
11/06/2013  01:07:00      -94.355      -42.993      -15.419       13.750       14.231       10.808      189.057      202.523      116.821        0.575        0.025      103.688        7.927        0.006      333.006        2.038      869.480
11/06/2013  01:08:00      -92.408      -33.498      -12.666       12.057       20.689       11.502      145.378      428.054      132.287        0.526        0.035       98.292        6.018        0.004      333.066        2.137      869.493
11/06/2013  01:09:00      -99.937      -39.539      -13.601       16.450       17.789       14.663      270.602      316.432      215.015        0.627        0.040      107.474        9.246        0.007      333.004        2.036      869.496
11/06/2013  01:10:00      -96.643      -37.161      -14.350       21.399       28.252       13.850      457.910      798.198      191.829        0.619        0.072      103.541       12.475        0.015      332.989        2.010      869.492
11/06/2013  01:11:00      -98.749      -21.658      -13.511       19.265       15.936       15.759      371.153      253.943      248.341        0.564        0.044      101.097       11.272        0.012      333.023        2.066      869.492
11/06/2013  01:12:00     -104.046      -20.497      -15.013       22.030       13.687       15.077      485.341      187.334      227.325        0.619        0.045      106.046       12.868        0.015      332.973        1.984      869.505
11/06/2013  01:13:00     -105.932      -12.028      -15.438       22.080       16.092       17.924      487.515      258.954      321.265        0.634        0.053      106.613       10.494        0.010      332.968        1.975      869.512
11/06/2013  01:14:00      -58.921      -10.963       -4.635       22.511       22.634       17.775      506.742      512.290      315.957        0.247        0.067       59.932       14.857        0.061      332.973        1.985      869.514
11/06/2013  01:15:00      -51.341      -23.057       -2.959       30.131       16.376       12.286      907.889      268.163      150.953        0.225        0.066       56.281       10.756        0.037      333.072        2.148      869.499
11/06/2013  01:16:00      -62.057      -12.315       -0.651       31.453       21.330       20.049      989.276      454.963      401.952        0.292        0.092       63.267       21.691        0.118      333.047        2.107      869.489
11/06/2013  01:17:00      -80.623       -0.125       -9.289       31.257       17.448       15.027      977.019      304.426      225.809        0.405        0.075       80.623       15.438        0.037      333.051        2.114      869.484
11/06/2013  01:18:00      -65.798      -14.231      -12.231       25.353       12.903       15.526      642.778      166.496      241.047        0.287        0.053       67.320       13.674        0.041      333.057        2.122      869.466
11/06/2013  01:19:00      -84.898      -10.717      -15.436        8.638        8.335        8.345       74.616       69.480       69.643        0.389        0.011       85.572        2.704        0.001      333.085        2.170      869.453
11/06/2013  01:20:00      -76.448        4.899      -16.391       16.275        8.332        7.926      264.891       69.424       62.821        0.327        0.020       76.605        5.004        0.004      333.054        2.119      869.445
11/06/2013  01:21:00      -63.843       -4.930       -9.590       11.427       11.782        9.361      130.584      138.807       87.620        0.227        0.018       64.034        5.633        0.008      333.072        2.147      869.454
11/06/2013  01:22:00      -48.443      -13.939      -11.233        9.248       11.702        4.756       85.521      136.935       22.618        0.146        0.012       50.408        3.819        0.006      333.038        2.092      869.460
11/06/2013  01:23:00      -51.059      -17.073       -7.737       12.910        7.376        5.132      166.665       54.408       26.337        0.160        0.012       53.838        1.302        0.001      333.096        2.188      869.464
11/06/2013  01:24:00      -37.647      -18.268       -8.038       11.399       10.266        6.828      129.940      105.398       46.621        0.105        0.014       41.846        6.199        0.022      333.091        2.178      869.474
11/06/2013  01:25:00      -72.954      -22.999      -11.671        9.592       11.646        7.680       92.008      135.637       58.989        0.314        0.014       76.493        4.964        0.004      333.022        2.065      869.497
11/06/2013  01:26:00      -70.431      -16.440       -8.412        7.850       13.301        6.129       61.623      176.925       37.559        0.279        0.014       72.324        4.354        0.004      333.093        2.180      869.514
11/06/2013  01:27:00      -65.559      -19.487       -7.803       14.519       15.327        9.697      210.797      234.907       94.040        0.264        0.027       68.394        7.029        0.011      333.096        2.189      869.521
11/06/2013  01:28:00      -73.877      -18.617       -8.197       24.681       13.621       13.614      609.170      185.531      185.328        0.343        0.049       76.186       15.102        0.039      333.043        2.100      869.528
11/06/2013  01:29:00      -85.245      -26.443      -12.647       14.073       12.030       10.484      198.042      144.721      109.924        0.429        0.023       89.252        6.542        0.005      333.015        2.053      869.526
11/06/2013  01:30:00      -75.782      -27.873       -9.701       10.944       12.412        7.643      119.774      154.049       58.414        0.347        0.017       80.745        4.796        0.004      333.032        2.083      869.514
11/06/2013  01:31:00      -70.252      -22.987       -9.285       16.849       10.601       10.662      283.893      112.384      113.675        0.303        0.025       73.917        9.530        0.017      333.091        2.180      869.482
11/06/2013  01:32:00      -64.506      -36.585       -4.753       18.562       17.845       10.132      344.534      318.431      102.648        0.314        0.038       74.158        7.171        0.009      333.054        2.118      869.449
11/06/2013  01:33:00      -90.870      -32.224       -2.926       14.672       14.830       13.267      215.275      219.936      176.013        0.496        0.031       96.415        9.565        0.010      333.042        2.098      869.423
11/06/2013  01:34:00      -69.689      -25.761        4.043       26.661       20.852       17.088      710.824      434.785      291.993        0.349        0.072       74.298       17.417        0.055      333.020        2.062      869.408
11/06/2013  01:35:00      -82.975      -35.706        0.217       17.769       11.934        9.010      315.721      142.428       81.184        0.435        0.027       90.331        7.234        0.006      333.111        2.211      869.395
11/06/2013  01:36:00      -55.321      -22.470        5.350       20.296       16.139       12.503      411.934      260.476      156.328        0.221        0.041       59.710       11.135        0.035      333.113        2.215      869.381
11/06/2013  01:37:00      -49.794      -29.656       -1.115       12.149        9.383        7.203      147.590       88.043       51.889        0.182        0.014       57.956        4.693        0.007      333.290        2.507      869.368
11/06/2013  01:38:00      -34.934      -14.335       -6.811       12.268        9.355        8.087      150.492       87.509       65.392        0.089        0.015       37.761        5.175        0.019      333.285        2.497      869.369
11/06/2013  01:39:00      -46.173      -12.418       -5.269       12.097       10.896        6.753      146.338      118.720       45.598        0.131        0.016       47.813        4.527        0.009      333.294        2.513      869.391
11/06/2013  01:40:00      -63.975      -22.514       -8.871        6.625        8.151        6.876       43.886       66.447       47.276        0.242        0.008       67.821        4.999        0.005      333.261        2.458      869.409
11/06/2013  01:41:00      -71.774      -32.363       -9.058        8.295       11.727        6.120       68.813      137.530       37.450        0.326        0.012       78.732        6.118        0.006      333.211        2.375      869.423
11/06/2013  01:42:00      -85.406      -30.273       -7.727       17.128       11.435       10.731      293.364      130.758      115.160        0.440        0.027       90.612       11.548        0.016      333.159        2.288      869.440
11/06/2013  01:43:00      -88.598      -22.767       -5.376       13.338       11.017        9.612      177.893      121.379       92.383        0.439        0.020       91.477        6.158        0.005      333.126        2.236      869.444
11/06/2013  01:44:00      -87.812      -28.697      -10.674       11.412       12.044        8.217      130.229      145.051       67.523        0.450        0.017       92.382        3.137        0.001      333.150        2.274      869.433
11/06/2013  01:45:00      -89.520      -20.749       -9.272       10.974        9.428        7.746      120.436       88.886       59.999        0.440        0.013       91.893        3.940        0.002      333.144        2.264      869.410
11/06/2013  01:46:00      -94.679      -22.672      -11.065       12.824       13.203       10.352      164.445      174.319      107.170        0.502        0.022       97.356        7.072        0.005      333.078        2.158      869.397
11/06/2013  01:47:00      -83.131      -38.375       -1.283       19.058       21.902       16.006      363.197      479.715      256.201        0.474        0.055       91.561       13.295        0.021      332.965        1.970      869.392
11/06/2013  01:48:00      -75.830      -60.385       -8.304       19.968       14.624       11.880      398.727      213.855      141.141        0.511        0.038       96.936        2.185        0.001      332.926        1.907      869.396
11/06/2013  01:49:00      -60.311      -48.833       -6.792       30.590       17.922       19.503      935.762      321.193      380.384        0.385        0.082       77.602       15.753        0.041      332.931        1.916      869.408
11/06/2013  01:50:00     -101.580      -48.975      -11.822       17.754       18.666       14.363      315.220      348.430      206.308        0.686        0.043      112.770       12.250        0.012      332.860        1.797      869.422
11/06/2013  01:51:00      -81.784      -40.384       -8.539       32.083       22.788       17.810     1029.291      519.287      317.209        0.513        0.093       91.211       16.004        0.031      332.847        1.775      869.431
11/06/2013  01:52:00      -78.547      -39.817       -4.009       28.151       25.736       16.338      792.494      662.325      266.920        0.475        0.086       88.062       13.102        0.022      332.780        1.665      869.448
11/06/2013  01:53:00      -74.600      -30.523       -6.119       31.070       22.927       21.659      965.351      525.657      469.116        0.425        0.098       80.603       18.148        0.051      332.711        1.551      869.453
11/06/2013  01:54:00      -65.127      -23.084       -5.065       24.031       22.294       14.365      577.468      497.027      206.354        0.304        0.064       69.097       12.414        0.032      332.734        1.588      869.449
11/06/2013  01:55:00      -52.158      -32.293       -7.198       18.508       20.522       15.390      342.542      421.150      236.866        0.241        0.050       61.346        5.178        0.007      332.808        1.713      869.442
11/06/2013  01:56:00      -73.822      -17.717      -12.399       15.009       12.653       10.929      225.284      160.108      119.441        0.321        0.025       75.918        5.590        0.005      332.859        1.796      869.431
11/06/2013  01:57:00      -75.586      -15.763       -8.310       16.523       18.987       13.758      273.019      360.496      189.277        0.343        0.041       77.212       12.061        0.024      332.875        1.823      869.432
11/06/2013  01:58:00      -55.118      -19.822       -7.357       26.768       19.044       13.808      716.527      362.675      190.650        0.238        0.063       58.574       12.785        0.048      332.885        1.840      869.440
11/06/2013  01:59:00      -74.339      -27.494       -9.608       17.123       21.064       13.839      293.181      443.706      191.525        0.365        0.046       79.261       11.722        0.022      332.885        1.838      869.460
11/06/2013  02:00:00      -89.276      -12.184      -13.640       16.847       14.269       10.033      283.811      203.608      100.662        0.445        0.029       90.103        7.053        0.006      332.844        1.772      869.481
11/06/2013  02:01:00      -74.160      -18.394      -11.226       17.698       17.460       14.073      313.221      304.860      198.062        0.339        0.041       76.407        9.370        0.015      332.891        1.848      869.485
11/06/2013  02:02:00      -68.935      -23.303       -7.526       19.148       18.822       12.479      366.646      354.258      155.729        0.311        0.044       72.767        7.439        0.010      332.900        1.862      869.481
11/06/2013  02:03:00      -55.289      -28.752      -12.552       19.103       15.177       14.487      364.944      230.346      209.867        0.242        0.040       62.318        8.659        0.019      332.919        1.895      869.468
11/06/2013  02:04:00      -59.338      -25.206      -13.382       13.105       13.766        8.152      171.748      189.514       66.450        0.238        0.021       64.470        6.241        0.009      332.944        1.936      869.465
11/06/2013  02:05:00      -45.472      -24.907       -6.453       16.350       12.947       11.448      267.320      167.629      131.057        0.165        0.028       51.846       10.580        0.042      333.030        2.078      869.453
11/06/2013  02:06:00      -56.054      -24.861       -9.190       12.898       13.862       10.133      166.360      192.141      102.678        0.215        0.023       61.320        4.264        0.005      333.033        2.083      869.436
11/06/2013  02:07:00      -51.528      -26.150      -12.878       13.581       12.381       11.133      184.437      153.298      123.954        0.198        0.023       57.784        6.149        0.011      333.059        2.127      869.426
11/06/2013  02:08:00      -67.106      -20.518      -10.404       15.022       14.509       11.128      225.661      210.520      123.835        0.280        0.028       70.173        9.363        0.018      332.951        1.947      869.421
11/06/2013  02:09:00      -64.596      -25.680       -9.307       12.687       13.703       10.462      160.955      187.769      109.460        0.269        0.023       69.513        8.105        0.014      332.878        1.829      869.429
11/06/2013  02:10:00      -66.900      -27.419      -15.240       19.477       16.751       15.599      379.351      280.598      243.320        0.318        0.045       72.301       13.885        0.037      332.919        1.896      869.443
11/06/2013  02:11:00      -74.972      -42.214      -12.327       15.950       15.274       14.244      254.418      233.306      202.884        0.412        0.035       86.040        3.847        0.002      332.932        1.916      869.467
11/06/2013  02:12:00      -83.650      -38.692      -18.540       17.158       20.100       18.745      294.393      404.007      351.381        0.494        0.052       92.165       14.262        0.024      332.897        1.859      869.482
11/06/2013  02:13:00      -93.008      -32.948      -22.386       19.115       19.746       14.482      365.379      389.913      209.723        0.560        0.048       98.671        7.238        0.005      332.835        1.757      869.492
11/06/2013  02:14:00      -75.391      -31.531      -14.689       22.739       20.368       16.051      517.052      414.843      257.635        0.404        0.059       81.719       11.839        0.021      332.791        1.684      869.498
11/06/2013  02:15:00      -70.495       -3.831      -18.046       32.431       19.526       18.945     1051.790      381.271      358.919        0.355        0.090       70.599       20.284        0.083      332.874        1.822      869.515
11/06/2013  02:16:00      -64.681      -19.570       -0.400       29.229       29.971       17.670      854.352      898.242      312.228        0.332        0.103       67.577       15.481        0.052      332.843        1.769      869.527
11/06/2013  02:17:00      -79.136      -19.956       -8.082       25.001       23.986       18.425      625.056      575.319      339.469        0.413        0.077       81.613       16.856        0.043      332.898        1.862      869.530
11/06/2013  02:18:00      -71.570      -38.150       -9.164       18.300       17.835       14.991      334.885      318.089      224.733        0.377        0.044       81.103       10.118        0.016      332.846        1.775      869.523
11/06/2013  02:19:00     -101.560      -17.923      -11.723       23.167       27.383       17.282      536.690      749.842      298.661        0.618        0.079      103.130       16.473        0.026      332.864        1.805      869.505
11/06/2013  02:20:00      -94.050      -36.449       -7.656       29.258       23.813       14.335      856.049      567.044      205.495        0.593        0.081      100.866       13.622        0.018      332.892        1.851      869.504
11/06/2013  02:21:00     -137.463      -22.037      -12.962       34.599       26.725       16.377     1197.073      714.236      268.198        1.086        0.109      139.218       11.040        0.006      332.860        1.798      869.511
11/06/2013  02:22:00      -93.023      -42.748       -9.569       22.209       23.004       16.943      493.245      529.191      287.062        0.594        0.065      102.376       14.297        0.020      332.884        1.837      869.527
11/06/2013  02:23:00      -86.904      -45.937      -11.148       23.326       21.477       18.500      544.087      461.242      342.255        0.557        0.067       98.298       15.017        0.023      332.873        1.820      869.544
11/06/2013  02:24:00      -96.214      -55.282      -16.800       14.426       13.924        9.924      208.113      193.874       98.482        0.655        0.025      110.965        4.820        0.002      332.889        1.848      869.559
11/06/2013  02:25:00      -80.812      -40.412      -10.283       19.168       17.919       12.894      367.427      321.104      166.261        0.456        0.043       90.354        8.690        0.009      332.922        1.900      869.579
11/06/2013  02:26:00     -104.930      -29.185      -13.011       27.030       21.350       14.149      730.627      455.810      200.194        0.671        0.069      108.913       15.605        0.021      332.859        1.797      869.594
11/06/2013  02:27:00     -110.057      -35.414      -10.705       25.660       24.018       14.573      658.412      576.869      212.382        0.746        0.072      115.614       11.459        0.010      332.879        1.830      869.609
11/06/2013  02:28:00      -56.272      -31.937       -3.641       40.057       30.631       19.577     1604.543      938.262      383.269        0.356        0.146       64.703       23.072        0.127      332.877        1.825      869.618
11/06/2013  02:29:00      -78.579      -23.890       -3.551       21.872       26.454       17.952      478.380      699.791      322.291        0.413        0.075       82.130       16.267        0.039      332.877        1.826      869.630
11/06/2013  02:30:00      -96.865      -31.412       -8.648       26.776       22.927       17.712      716.978      525.665      313.698        0.600        0.078      101.831       14.363        0.020      332.831        1.749      869.652
11/06/2013  02:31:00     -120.659      -28.987       -9.493       32.702       26.296       17.323     1069.397      691.477      300.072        0.877        0.103      124.092       17.248        0.019      332.851        1.784      869.666
11/06/2013  02:32:00     -117.251      -42.466      -14.492       40.738       26.462       17.625     1659.564      700.258      310.642        0.922        0.134      124.705       17.045        0.019      332.781        1.666      869.672
11/06/2013  02:33:00     -112.880      -45.810      -12.348       29.168       22.978       16.179      850.774      527.982      261.770        0.832        0.082      121.822       16.623        0.019      332.824        1.738      869.666
11/06/2013  02:34:00      -56.073      -23.507        3.596       44.876       23.586       22.269     2013.816      556.298      495.899        0.339        0.153       60.801       26.920        0.196      332.787        1.678      869.658
11/06/2013  02:35:00      -61.610      -58.512      -12.030       23.180       16.498       14.095      537.309      272.192      198.660        0.419        0.050       84.968        4.010        0.002      332.788        1.680      869.658
11/06/2013  02:36:00      -93.804      -34.729      -15.370       16.206       11.920        9.138      262.646      142.090       83.501        0.536        0.024      100.027        4.374        0.002      332.867        1.810      869.647
11/06/2013  02:37:00      -84.941      -29.046       -9.730       12.884       14.399       10.428      165.995      207.336      108.748        0.432        0.024       89.770        5.942        0.004      332.870        1.815      869.644
11/06/2013  02:38:00      -85.533      -16.659      -11.142        7.077        6.793        6.394       50.081       46.142       40.881        0.393        0.007       87.140        3.956        0.002      332.905        1.873      869.653
11/06/2013  02:39:00      -93.659      -37.368      -13.793       20.907       13.514        9.344      437.102      182.630       87.312        0.553        0.035      100.839       10.662        0.011      332.968        1.976      869.663
11/06/2013  02:40:00      -93.696      -28.791      -11.311        6.716        8.404        6.952       45.111       70.629       48.328        0.495        0.008       98.020        3.688        0.001      332.999        2.026      869.677
11/06/2013  02:41:00      -88.503      -17.927      -14.660       13.895       10.141        9.401      193.074      102.842       88.383        0.438        0.019       90.300        6.514        0.005      333.091        2.180      869.679
11/06/2013  02:42:00      -99.518      -30.017      -16.522        9.216        9.367        7.883       84.933       87.740       62.140        0.566        0.012      103.946        4.534        0.002      333.111        2.213      869.674
11/06/2013  02:43:00      -91.333      -21.270      -11.550        9.622        9.857        8.586       92.582       97.162       73.719        0.460        0.013       93.777        4.447        0.002      333.099        2.192      869.683
11/06/2013  02:44:00      -94.332      -19.573      -14.587        9.102       10.716        7.140       82.838      114.843       50.984        0.487        0.012       96.341        4.204        0.002      333.119        2.225      869.687
11/06/2013  02:45:00      -94.544      -20.713      -13.134        8.955        9.381        7.755       80.200       87.998       60.133        0.488        0.011       96.787        2.784        0.001      333.098        2.191      869.695
11/06/2013  02:46:00      -91.790      -20.236       -9.369       11.322        9.449        8.834      128.191       89.277       78.042        0.461        0.015       93.994        5.864        0.004      333.071        2.147      869.696
11/06/2013  02:47:00      -85.965      -19.958      -13.419        9.681        9.318        6.690       93.719       86.833       44.758        0.410        0.011       88.251        2.649        0.001      333.066        2.137      869.697
11/06/2013  02:48:00      -86.930       -3.353      -12.408       10.060       11.377        9.870      101.196      129.435       97.426        0.402        0.016       86.994        6.788        0.006      333.036        2.087      869.700
11/06/2013  02:49:00     -107.690      -10.196      -14.645        9.012       11.030        9.422       81.213      121.670       88.771        0.610        0.015      108.172        7.183        0.004      333.063        2.133      869.714
11/06/2013  02:50:00     -102.911      -16.402      -13.573       15.163       10.701        9.129      229.905      114.511       83.344        0.574        0.021      104.210        4.518        0.002      332.953        1.951      869.733
11/06/2013  02:51:00     -102.787      -19.095      -11.695       12.504       10.992        9.604      156.341      120.827       92.244        0.572        0.018      104.545        5.907        0.003      332.927        1.908      869.759
11/06/2013  02:52:00     -113.211      -13.002      -13.049        9.805       13.374        8.528       96.138      178.855       72.719        0.675        0.017      113.956        5.325        0.002      332.907        1.876      869.767
11/06/2013  02:53:00     -109.895      -10.367      -17.426       17.139       10.160        9.520      293.729      103.234       90.640        0.649        0.024      110.383        8.017        0.005      332.868        1.812      869.777
11/06/2013  02:54:00     -101.567      -13.095      -16.350       15.074        9.733       10.150      227.237       94.730      103.027        0.559        0.021      102.407        8.081        0.006      332.788        1.678      869.785
11/06/2013  02:55:00      -96.763      -23.635      -13.668       10.481        9.500        6.906      109.861       90.259       47.697        0.518        0.012       99.608        3.724        0.001      332.816        1.725      869.789
11/06/2013  02:56:00      -89.609      -45.236      -13.989       11.012       14.887        7.922      121.260      221.625       62.761        0.534        0.020      100.379        3.441        0.001      332.907        1.876      869.783
11/06/2013  02:57:00     -105.885      -36.584      -14.297       10.887       14.092        9.657      118.531      198.589       93.257        0.658        0.021      112.027        6.020        0.003      332.945        1.937      869.774
11/06/2013  02:58:00     -107.014      -30.597      -10.350       13.694       15.301        9.877      187.535      234.129       97.547        0.651        0.026      111.302        5.950        0.003      332.974        1.984      869.761
11/06/2013  02:59:00     -105.383      -31.853      -10.352       19.428       14.161       11.664      377.428      200.522      136.051        0.647        0.036      110.092        7.887        0.005      332.892        1.851      869.759
11/06/2013  03:00:00     -115.564      -34.758      -12.536       11.770       10.745       10.244      138.540      115.463      104.930        0.754        0.018      120.677        4.509        0.001      332.875        1.824      869.757
11/06/2013  03:01:00     -117.101      -16.513       -7.745       19.203       15.383       13.383      368.748      236.643      179.106        0.741        0.039      118.260       10.053        0.007      332.836        1.759      869.754
11/06/2013  03:02:00     -119.910      -22.566      -10.572       22.986       17.841       14.291      528.364      318.294      204.230        0.802        0.053      122.015        9.232        0.006      332.818        1.731      869.747
11/06/2013  03:03:00     -127.865      -20.151      -15.276       27.723       17.451       18.262      768.583      304.531      333.498        0.920        0.070      129.443       18.336        0.020      332.770        1.649      869.743
11/06/2013  03:04:00      -97.929      -29.265       -3.144       30.177       28.417       16.799      910.652      807.511      282.217        0.623        0.100      102.209       15.233        0.022      332.680        1.501      869.727
11/06/2013  03:05:00      -92.216      -19.385       -7.532       40.830       32.302       18.300     1667.064     1043.398      334.887        0.599        0.152       94.232       16.388        0.030      332.641        1.436      869.707
11/06/2013  03:06:00      -79.225      -11.091       -0.978       42.696       27.117       23.625     1822.923      735.317      558.121        0.476        0.156       79.997       23.853        0.089      332.692        1.520      869.707
11/06/2013  03:07:00     -101.563        0.672       -3.287       46.027       30.772       24.316     2118.451      946.919      591.287        0.699        0.183      101.565       25.936        0.065      332.734        1.590      869.714
11/06/2013  03:08:00     -129.047       -0.684       -3.342       49.469       32.993       26.129     2447.195     1088.541      682.728        1.044        0.211      129.049       27.467        0.045      332.799        1.698      869.736
11/06/2013  03:09:00     -127.189       14.689       -8.204       47.506       33.414       24.824     2256.785     1116.466      616.226        1.022        0.199      128.034       19.681        0.024      332.857        1.793      869.749
11/06/2013  03:10:00     -154.218       30.323      -11.080       40.011       30.981       21.698     1600.847      959.793      470.793        1.393        0.152      157.170       17.007        0.012      332.978        1.992      869.760
11/06/2013  03:11:00     -131.257       26.142      -13.071       35.340       25.305       17.493     1248.928      640.362      306.021        1.014        0.110      133.835       12.488        0.009      332.996        2.022      869.760
11/06/2013  03:12:00     -131.292       14.585      -12.557       42.499       37.717       22.526     1806.133     1422.570      507.430        1.067        0.187      132.100       20.228        0.023      332.937        1.925      869.756
11/06/2013  03:13:00      -95.605      -13.034       -2.082       55.382       39.443       21.219     3067.193     1555.742      450.241        0.719        0.254       96.489       22.453        0.054      332.878        1.828      869.738
11/06/2013  03:14:00      -48.564      -36.890       -0.098       34.410       24.002       19.192     1184.039      576.104      368.342        0.292        0.106       60.986       19.335        0.101      332.908        1.878      869.736
11/06/2013  03:15:00      -38.033      -22.629        0.577       28.670       22.805       21.579      821.949      520.081      465.663        0.188        0.090       44.255       15.573        0.124      332.918        1.893      869.744
11/06/2013  03:16:00      -41.253      -27.149       -3.594       39.063       16.762       15.242     1525.929      280.950      232.330        0.225        0.102       49.385        8.917        0.033      332.872        1.818      869.743
11/06/2013  03:17:00      -35.205      -33.651       -7.937       38.362       19.187       15.297     1471.658      368.128      234.011        0.225        0.104       48.701       15.996        0.108      332.865        1.806      869.732
11/06/2013  03:18:00      -62.319      -47.423       -1.529       42.901       26.048       20.184     1840.463      678.488      407.386        0.453        0.146       78.311       18.410        0.055      332.853        1.788      869.724
11/06/2013  03:19:00      -38.320      -24.233        0.074       33.231       21.963       16.461     1104.318      482.390      270.966        0.196        0.093       45.340       16.805        0.137      332.853        1.787      869.720
11/06/2013  03:20:00      -50.313      -20.990        0.319       32.298       20.034       17.673     1043.192      401.351      312.337        0.236        0.088       54.516       12.590        0.053      332.905        1.873      869.718
11/06/2013  03:21:00      -74.739      -12.982       -7.507       31.363       23.154       18.588      983.660      536.096      345.510        0.384        0.093       75.858       22.598        0.089      332.933        1.917      869.716
11/06/2013  03:22:00      -82.185       -2.236       -9.415       21.357       28.342       18.254      456.133      803.279      333.200        0.422        0.080       82.215       14.634        0.032      332.915        1.888      869.719
11/06/2013  03:23:00      -97.631      -12.538      -10.177       26.651       20.050       16.876      710.287      401.994      284.789        0.559        0.070       98.433       10.808        0.012      332.884        1.838      869.723
11/06/2013  03:24:00      -71.692      -14.090       -9.923       20.152       24.317       12.237      406.089      591.327      149.737        0.329        0.057       73.063       10.733        0.022      332.879        1.829      869.731
11/06/2013  03:25:00      -88.626      -15.325       -9.892       27.799       16.356       15.543      772.806      267.514      241.579        0.473        0.064       89.941       10.890        0.015      332.855        1.790      869.739
11/06/2013  03:26:00     -102.292      -21.113       -8.661       23.335       23.959       13.703      544.506      574.011      187.765        0.615        0.065      104.448       12.650        0.015      332.888        1.846      869.744
11/06/2013  03:27:00      -95.637      -27.035       -9.638       19.121       22.146       12.905      365.622      490.444      166.531        0.550        0.051       99.385        7.497        0.006      332.849        1.779      869.747
11/06/2013  03:28:00      -87.089      -40.282       -7.822       19.528       25.287       17.343      381.353      639.433      300.770        0.529        0.066       95.954       14.644        0.023      332.814        1.720      869.756
11/06/2013  03:29:00      -74.587      -47.442      -11.590       23.215       25.560       16.282      538.959      653.308      265.090        0.470        0.073       88.397       13.741        0.024      332.837        1.760      869.771
11/06/2013  03:30:00      -73.945      -42.006       -7.600       30.473       20.502       17.916      928.585      420.343      320.977        0.448        0.083       85.044       15.025        0.031      332.818        1.728      869.782
11/06/2013  03:31:00     -105.843      -42.450      -19.747       11.721       12.797       11.438      137.393      163.766      130.820        0.691        0.022      114.039        8.637        0.006      332.789        1.680      869.795
11/06/2013  03:32:00      -71.750      -19.401      -11.028       15.746       20.855       14.991      247.926      434.928      224.723        0.328        0.045       74.327       10.863        0.021      332.810        1.716      869.803
11/06/2013  03:33:00      -68.031      -16.012       -9.589       23.261       14.480       14.132      541.053      209.677      199.710        0.296        0.048       69.890       12.892        0.034      332.787        1.678      869.809
11/06/2013  03:34:00      -43.973        0.482       -2.160       20.406       14.203       11.308      416.421      201.719      127.862        0.134        0.037       43.976       10.693        0.059      332.762        1.636      869.819
11/06/2013  03:35:00      -11.137      -13.485       -3.654       10.880        8.811        9.047      118.385       77.626       81.853        0.030        0.014       17.490        5.917        0.114      332.978        1.992      869.817
11/06/2013  03:36:00      -24.023       -9.580       -2.590        6.808        6.170        4.975       46.351       38.067       24.746        0.039        0.005       25.863        3.940        0.023      333.023        2.068      869.826
11/06/2013  03:37:00      -16.056      -11.246       -4.533       13.105        8.664        8.059      171.744       75.072       64.940        0.036        0.016       19.602        3.805        0.038      332.982        1.998      869.841
11/06/2013  03:38:00        0.150      -15.178       -1.605       10.407       17.787        9.949      108.297      316.392       98.984        0.038        0.026       15.179        7.033        0.215      332.992        2.015      869.858
11/06/2013  03:39:00       -9.734      -20.553        4.052       13.279       15.370       10.668      176.330      236.239      113.797        0.053        0.026       22.742        6.217        0.075      332.945        1.939      869.872
11/06/2013  03:40:00      -15.319       -5.737        2.051       12.466        7.285        8.249      155.413       53.064       68.048        0.027        0.014       16.358        7.954        0.236      332.897        1.859      869.878
11/06/2013  03:41:00      -23.050       -7.427       -3.796        5.658        8.960        6.215       32.017       80.279       38.621        0.038        0.008       24.217        4.649        0.037      332.936        1.925      869.874
11/06/2013  03:42:00      -12.518       -1.608       -0.027        7.144        4.588        4.608       51.038       21.046       21.236        0.013        0.005       12.621        3.219        0.065      332.964        1.968      869.859
11/06/2013  03:43:00       11.825       10.781        5.048       11.225        8.861        4.799      125.997       78.516       23.027        0.025        0.011       16.002        1.898        0.014      332.954        1.950      869.858
11/06/2013  03:44:00       20.607       15.871        4.836       13.263       10.572       11.022      175.903      111.775      121.476        0.055        0.020       26.010        8.078        0.096      332.932        1.915      869.860
11/06/2013  03:45:00        0.833        1.704        9.787        5.437        5.444        5.048       29.563       29.640       25.482        0.009        0.004        1.897        1.948        1.055      332.846        1.776      869.869
11/06/2013  03:46:00      -11.328       -4.224        2.057        9.472        5.236        5.474       89.718       27.414       29.964        0.015        0.007       12.090        6.668        0.304      332.903        1.871      869.882
11/06/2013  03:47:00      -25.296       -5.316       -1.873        6.953        4.201        3.965       48.348       17.651       15.723        0.038        0.004       25.848        2.064        0.006      332.922        1.902      869.896
11/06/2013  03:48:00      -47.215      -12.432       -7.879        9.939        7.242        8.558       98.785       52.448       73.236        0.134        0.011       48.825        6.051        0.015      332.911        1.883      869.905
11/06/2013  03:49:00      -58.494      -25.683       -7.595       12.182       13.951        8.107      148.409      194.619       65.725        0.227        0.020       63.884        2.079        0.001      332.831        1.750      869.924
11/06/2013  03:50:00      -60.685      -28.449       -3.196       20.119       10.366       12.332      404.789      107.447      152.078        0.258        0.033       67.023        3.842        0.003      332.770        1.650      869.941
11/06/2013  03:51:00      -75.745      -41.044       -6.600       21.486       13.585       11.779      461.627      184.560      138.752        0.413        0.039       86.150       10.933        0.016      332.935        1.921      869.961
11/06/2013  03:52:00      -66.181      -32.249       -6.394       16.298       10.848       12.679      265.625      117.672      160.758        0.300        0.027       73.620        7.942        0.012      332.861        1.800      869.974
11/06/2013  03:53:00      -65.495      -39.028       -1.649       31.197       23.084       13.629      973.277      532.869      185.750        0.375        0.085       76.242       13.299        0.030      332.828        1.744      869.986
11/06/2013  03:54:00      -82.679      -44.123        0.192       29.175       35.699       16.040      851.162     1274.438      257.276        0.558        0.119       93.716       17.865        0.036      332.910        1.880      869.993
11/06/2013  03:55:00      -78.259      -38.659       -1.583       21.194       24.481       14.346      449.165      599.316      205.801        0.444        0.063       87.286        9.282        0.011      332.846        1.775      870.003
11/06/2013  03:56:00      -70.424       -8.206       -0.733       29.058       18.375       14.322      844.393      337.652      205.122        0.321        0.069       70.900       15.526        0.048      332.719        1.564      870.010
11/06/2013  03:57:00      -71.548      -18.208       -0.217       29.542       17.886       14.981      872.723      319.909      224.442        0.343        0.071       73.829       15.093        0.042      332.668        1.481      870.018
11/06/2013  03:58:00      -62.466      -30.664       -5.600       27.074       15.910       12.468      732.980      253.131      155.457        0.301        0.057       69.587        9.236        0.018      332.705        1.542      870.024
11/06/2013  03:59:00      -48.636      -13.439       -0.120       27.216       22.938       10.263      740.689      526.168      105.337        0.196        0.069       50.459       11.034        0.048      332.693        1.522      870.025
11/06/2013  04:00:00      -39.576      -11.339        2.802       21.579       24.615       14.148      465.663      605.914      200.154        0.149        0.064       41.169       10.044        0.060      332.674        1.491      870.019
11/06/2013  04:01:00      -40.018       -8.617        0.274       24.066       14.378       11.208      579.157      206.722      125.628        0.129        0.046       40.935       11.478        0.079      332.678        1.497      870.011
11/06/2013  04:02:00      -59.484       -9.167       -3.680       28.142       13.426       10.892      791.973      180.250      118.635        0.236        0.055       60.186       12.463        0.043      332.678        1.497      870.004
11/06/2013  04:03:00      -90.473       -8.163       -5.472       17.267       12.525       10.736      298.148      156.883      115.263        0.443        0.029       90.840        8.673        0.009      332.699        1.532      869.991
11/06/2013  04:04:00      -95.027       -0.343      -10.762       14.192        6.957        6.424      201.406       48.403       41.274        0.472        0.015       95.028        6.556        0.005      332.701        1.536      869.983
11/06/2013  04:05:00      -64.783       -3.280       -6.729       23.336       11.933       12.344      544.570      142.407      152.377        0.255        0.042       64.866       12.505        0.037      332.694        1.524      869.981
11/06/2013  04:06:00      -59.967       -8.784       -5.231       18.097       13.692       11.540      327.498      187.468      133.174        0.217        0.032       60.607       10.709        0.031      332.764        1.640      869.971
11/06/2013  04:07:00      -50.752       -8.077       -2.532       17.130       15.508       12.622      293.420      240.485      159.324        0.167        0.035       51.391        9.809        0.036      332.771        1.650      869.970
11/06/2013  04:08:00      -59.990       -9.416       -3.634       13.050       11.862        9.469      170.312      140.716       89.669        0.205        0.020       60.725        6.927        0.013      332.759        1.631      869.976
11/06/2013  04:09:00      -38.107       -9.189       -4.368        9.655       12.056        6.251       93.221      145.352       39.075        0.092        0.014       39.199        6.317        0.026      332.756        1.627      869.979
11/06/2013  04:10:00      -41.348       -6.376       -7.848       13.181       12.187        7.113      173.738      148.527       50.589        0.109        0.019       41.837        6.644        0.025      332.785        1.675      869.984
11/06/2013  04:11:00      -32.987        6.691       -1.799       14.862       11.567        7.296      220.881      133.795       53.229        0.077        0.020       33.659        4.192        0.016      332.863        1.803      869.987
11/06/2013  04:12:00      -33.478        1.601        0.967       13.745        8.477        7.147      188.935       71.859       51.079        0.072        0.016       33.516        4.204        0.016      332.821        1.735      869.994
11/06/2013  04:13:00      -34.241        7.379       -5.070       15.803       14.285        9.740      249.728      204.074       94.868        0.090        0.027       35.027        5.876        0.028      332.803        1.703      870.005
11/06/2013  04:14:00      -48.808       -6.210       -6.426       11.328       14.021        9.550      128.325      196.589       91.195        0.144        0.021       49.202        4.916        0.010      332.754        1.624      870.024
11/06/2013  04:15:00      -44.831      -12.560       -1.034       12.693       10.047       11.964      161.117      100.941      143.149        0.129        0.020       46.557        9.461        0.041      332.754        1.623      870.036
11/06/2013  04:16:00      -60.286      -22.272      -11.944       10.906       10.147        7.689      118.933      102.966       59.115        0.228        0.014       64.268        5.785        0.008      332.757        1.628      870.056
11/06/2013  04:17:00      -54.569      -27.900       -8.860       11.485       13.505        9.145      131.900      182.391       83.630        0.212        0.020       61.288        8.867        0.021      332.724        1.574      870.072
11/06/2013  04:18:00      -48.985      -26.799      -15.614        9.154        9.992        7.973       83.788       99.841       63.571        0.180        0.012       55.837        5.898        0.011      332.675        1.492      870.082
11/06/2013  04:19:00      -39.540      -22.917      -10.903       11.367        9.925        8.275      129.208       98.504       68.474        0.125        0.015       45.701        5.484        0.014      332.620        1.400      870.086
11/06/2013  04:20:00      -22.948      -15.458       -6.733       13.554       10.728        8.473      183.704      115.081       71.785        0.059        0.019       27.669        5.077        0.034      332.557        1.298      870.085
11/06/2013  04:21:00      -12.698      -15.987       -5.712       18.460       11.997       10.120      340.780      143.918      102.423        0.052        0.029       20.416       10.149        0.247      332.560        1.301      870.076
11/06/2013  04:22:00      -46.818      -18.321       -7.284       13.507       11.824       11.671      182.438      139.796      136.205        0.152        0.023       50.275        8.818        0.031      332.515        1.227      870.070
11/06/2013  04:23:00      -56.732      -24.321       -8.501        8.390        9.356        8.023       70.389       87.542       64.365        0.205        0.011       61.725        4.105        0.004      332.416        1.064      870.072
11/06/2013  04:24:00      -45.011      -14.109       -9.340       10.875        7.757        8.672      118.266       60.174       75.195        0.128        0.013       47.170        5.411        0.013      332.536        1.262      870.072
11/06/2013  04:25:00      -34.950      -19.537       -5.544       11.471        7.091        6.343      131.587       50.284       40.238        0.093        0.011       40.040        1.958        0.002      332.599        1.366      870.075
11/06/2013  04:26:00      -17.350      -11.575       -2.079        8.991        6.558        5.022       80.841       43.005       25.222        0.029        0.007       20.857        3.501        0.028      332.688        1.513      870.071
11/06/2013  04:27:00      -12.531       -7.235        1.308       10.796        6.381        4.334      116.550       40.721       18.780        0.019        0.009       14.470        3.587        0.061      332.713        1.555      870.063
11/06/2013  04:28:00      -45.595      -13.716       -0.213       14.696        8.351        6.405      215.958       69.738       41.030        0.130        0.016       47.614        4.125        0.008      332.549        1.284      870.062
11/06/2013  04:29:00      -56.999      -23.576       -8.592        8.255        8.953        5.335       68.142       80.157       28.467        0.203        0.009       61.682        2.823        0.002      332.424        1.077      870.065
11/06/2013  04:30:00      -71.124       -4.980      -10.843       13.160       10.507        8.679      173.194      110.404       75.322        0.278        0.018       71.298        5.428        0.006      332.369        0.987      870.079
11/06/2013  04:31:00      -64.560      -13.566       -8.867       11.494       11.338        8.299      132.111      128.557       68.881        0.238        0.016       65.970        7.087        0.012      332.348        0.949      870.108
11/06/2013  04:32:00      -53.349      -18.333       -9.460       10.198       10.762        7.739      104.006      115.814       59.889        0.178        0.014       56.412        3.631        0.004      332.418        1.067      870.137
11/06/2013  04:33:00      -61.731      -10.345      -13.782        8.774       10.283        8.822       76.980      105.738       77.822        0.218        0.013       62.592        5.843        0.009      332.418        1.067      870.165
11/06/2013  04:34:00      -73.703       -5.389       -8.909       11.180        8.062        7.689      124.990       65.003       59.116        0.289        0.012       73.900        6.829        0.009      332.429        1.086      870.190
11/06/2013  04:35:00      -85.616       -2.503      -11.835       15.570        9.795       11.096      242.412       95.937      123.128        0.397        0.023       85.653        3.698        0.002      332.413        1.059      870.211
11/06/2013  04:36:00      -94.668        5.321      -12.757       10.154        7.211        7.383      103.109       52.003       54.509        0.468        0.010       94.818        5.531        0.003      332.388        1.017      870.224
11/06/2013  04:37:00      -55.707       -5.439       -6.556       18.304        9.109        8.461      335.024       82.968       71.581        0.183        0.024       55.972        5.839        0.011      332.465        1.146      870.229
11/06/2013  04:38:00      -37.361       -7.768       -9.968       10.508        7.594        6.388      110.418       57.667       40.801        0.088        0.010       38.160        5.310        0.019      332.500        1.204      870.234
11/06/2013  04:39:00      -47.083      -10.520      -10.752        5.445        6.964        5.194       29.646       48.496       26.978        0.127        0.005       48.244        3.986        0.007      332.698        1.529      870.242
11/06/2013  04:40:00      -88.629       -1.219      -13.582       14.030        7.452        6.931      196.850       55.535       48.042        0.417        0.015       88.637        6.059        0.005      332.543        1.273      870.253
11/06/2013  04:41:00      -85.841       -5.277      -13.101       10.054        8.760        6.808      101.076       76.735       46.347        0.390        0.011       86.003        3.306        0.001      332.477        1.164      870.265
11/06/2013  04:42:00      -78.973       -2.348       -8.139        8.665        8.127        7.449       75.079       66.042       55.487        0.325        0.010       79.007        3.425        0.002      332.480        1.170      870.275
11/06/2013  04:43:00      -72.836       -6.846       -8.159        8.608        8.653        6.921       74.106       74.881       47.894        0.281        0.010       73.157        3.197        0.002      332.488        1.184      870.279
11/06/2013  04:44:00      -64.536      -17.435      -12.703       10.211        7.235        5.740      104.259       52.350       32.946        0.241        0.009       66.850        3.710        0.003      332.458        1.133      870.284
11/06/2013  04:45:00      -65.256      -18.036       -8.952       14.207        9.754        7.304      201.839       95.149       53.348        0.251        0.018       67.702        2.847        0.002      332.478        1.166      870.293
11/06/2013  04:46:00      -70.601      -19.104       -8.017       11.161       10.067        9.133      124.568      101.353       83.411        0.286        0.015       73.140        6.549        0.008      332.566        1.311      870.299
11/06/2013  04:47:00      -79.157       -8.970       -9.669        6.893        7.534        5.868       47.510       56.759       34.430        0.329        0.007       79.664        2.453        0.001      332.563        1.306      870.303
11/06/2013  04:48:00      -62.253      -17.371       -7.068        7.264        8.545        7.492       52.767       73.012       56.129        0.220        0.009       64.631        4.163        0.004      332.592        1.355      870.311
11/06/2013  04:49:00      -49.547       -5.702       -9.116        5.172        7.115        7.019       26.748       50.621       49.273        0.135        0.006       49.874        4.662        0.009      332.589        1.351      870.314
11/06/2013  04:50:00      -47.504      -10.664       -4.699        5.128        7.759        5.857       26.291       60.209       34.302        0.126        0.006       48.686        3.384        0.005      332.656        1.461      870.316
11/06/2013  04:51:00      -51.460      -12.094       -5.214        7.320        9.851        6.901       53.580       97.045       47.628        0.151        0.010       52.862        5.908        0.012      332.667        1.481      870.311
11/06/2013  04:52:00      -62.524      -10.801       -4.300        9.147        7.787        8.144       83.677       60.640       66.321        0.213        0.011       63.450        4.393        0.005      332.689        1.514      870.305
11/06/2013  04:53:00      -63.141       -7.705       -9.340        8.596        7.290        7.716       73.886       53.150       59.536        0.216        0.009       63.609        4.370        0.005      332.686        1.511      870.302
11/06/2013  04:54:00      -78.788      -14.566      -11.261        5.777        7.191        4.950       33.373       51.717       24.503        0.333        0.005       80.123        1.651        0.000      332.650        1.449      870.303
11/06/2013  04:55:00      -76.182      -17.880      -10.148        5.469        8.803        6.183       29.905       77.487       38.227        0.319        0.007       78.252        1.824        0.001      332.620        1.403      870.320
11/06/2013  04:56:00      -80.520      -14.613       -9.230       10.040       10.815        6.966      100.795      116.963       48.527        0.352        0.013       81.835        3.084        0.001      332.556        1.295      870.331
11/06/2013  04:57:00      -81.845      -16.248       -9.428       12.139       14.181        8.605      147.351      201.098       74.040        0.374        0.021       83.442        5.976        0.005      332.529        1.249      870.335
11/06/2013  04:58:00      -88.426       -9.685      -10.110       21.356       14.180        9.073      456.073      201.081       82.317        0.438        0.037       88.955        5.952        0.004      332.488        1.182      870.339
11/06/2013  04:59:00      -92.646       -1.243      -13.944       11.041        8.049        7.383      121.905       64.787       54.516        0.451        0.012       92.654        4.502        0.002      332.403        1.044      870.345
11/06/2013  05:00:00      -90.636       -1.913      -11.965       23.797       12.191       10.108      566.278      148.610      102.173        0.459        0.041       90.656       10.267        0.013      332.389        1.019      870.356
11/06/2013  05:01:00      -74.163       -5.645       -9.118       28.431       23.041       14.714      808.334      530.870      216.495        0.359        0.078       74.378       14.616        0.039      332.303        0.878      870.363
11/06/2013  05:02:00      -88.550       -0.454       -3.040       32.608       25.711       18.625     1063.290      661.031      346.890        0.496        0.104       88.551       17.601        0.040      332.279        0.839      870.371
11/06/2013  05:03:00      -94.360      -26.030       -6.572       23.401       19.261       12.804      547.598      370.982      163.943        0.535        0.054       97.885       11.352        0.013      332.285        0.847      870.386
11/06/2013  05:04:00     -126.887      -13.790       -6.618       34.788       27.430       18.564     1210.186      752.417      344.622        0.932        0.115      127.634       16.990        0.018      332.253        0.795      870.391
11/06/2013  05:05:00     -108.311      -14.275       -9.661       36.688       19.812       17.956     1346.033      392.502      322.401        0.704        0.103      109.248       12.139        0.012      332.231        0.759      870.404
11/06/2013  05:06:00      -82.699      -18.637       -0.096       24.853       27.943       14.312      617.666      780.809      204.829        0.439        0.080       84.773       14.360        0.029      332.195        0.701      870.421
11/06/2013  05:07:00      -57.021      -17.884        1.790       19.719       17.417       14.486      388.857      303.339      209.843        0.224        0.045       59.759       13.196        0.049      332.245        0.783      870.439
11/06/2013  05:08:00      -57.013       -7.818       -7.222       15.390       13.675       10.407      236.867      187.017      108.301        0.195        0.027       57.547        8.645        0.023      332.362        0.975      870.458
11/06/2013  05:09:00      -43.770       -7.143        1.631       14.520       12.908       11.371      210.829      166.629      129.298        0.124        0.025       44.349        9.142        0.042      332.417        1.066      870.483
11/06/2013  05:10:00      -54.364        2.369      -10.662       10.572        8.461        8.076      111.771       71.587       65.217        0.166        0.012       54.416        4.879        0.008      332.468        1.150      870.493
11/06/2013  05:11:00      -45.647        2.634       -7.370        7.246        8.992        7.350       52.505       80.856       54.023        0.117        0.009       45.723        4.903        0.011      332.469        1.148      870.496
11/06/2013  05:12:00      -34.812       -6.583      -11.489        5.719        5.886        3.898       32.708       34.648       15.195        0.073        0.004       35.429        2.713        0.006      332.503        1.207      870.485
11/06/2013  05:13:00      -26.842       -7.157       -6.682        7.449        7.099        5.277       55.482       50.390       27.848        0.048        0.007       27.779        3.022        0.012      332.566        1.313      870.467
11/06/2013  05:14:00       -9.925      -16.011       -3.459       12.338       12.757        5.885      152.232      162.743       34.638        0.036        0.017       18.838        4.829        0.066      332.603        1.373      870.450
11/06/2013  05:15:00      -34.003      -10.939       -0.763        7.708        8.103        8.262       59.415       65.658       68.268        0.073        0.010       35.720        4.141        0.013      332.577        1.329      870.432
11/06/2013  05:16:00      -27.672      -11.516        0.213        9.844       13.140       11.553       96.903      172.658      133.464        0.065        0.020       29.973        8.557        0.082      332.587        1.347      870.420
11/06/2013  05:17:00      -35.858      -40.097        2.010       26.828       25.559       10.988      719.726      653.276      120.725        0.220        0.075       53.792       10.246        0.036      332.657        1.461      870.402
11/06/2013  05:18:00      -53.331      -37.187       -3.818        9.015       19.976        6.895       81.262      399.049       47.535        0.238        0.026       65.016        6.006        0.009      332.715        1.558      870.381
11/06/2013  05:19:00      -37.270       -8.425        3.935       21.709       14.671        9.502      471.277      215.230       90.284        0.113        0.039       38.210        9.976        0.068      332.576        1.328      870.372
11/06/2013  05:20:00      -54.175       -5.608       -7.121       12.707       16.050        8.459      161.463      257.593       71.561        0.175        0.025       54.465        8.467        0.024      332.563        1.307      870.375
11/06/2013  05:21:00      -35.381        2.633       -7.330        6.053        6.334        5.495       36.640       40.115       30.200        0.071        0.005       35.479        1.533        0.002      332.605        1.377      870.375
11/06/2013  05:22:00      -47.344      -18.460       -5.800        9.803        8.196        7.454       96.099       67.166       55.563        0.142        0.011       50.816        5.395        0.011      332.604        1.376      870.367
11/06/2013  05:23:00      -49.670      -20.397       -5.028       10.828       14.195        7.502      117.242      201.506       56.287        0.164        0.019       53.694        4.134        0.006      332.599        1.366      870.360
11/06/2013  05:24:00      -47.467      -25.989       -3.533       18.853       11.303       12.014      355.439      127.761      144.342        0.178        0.031       54.116        9.297        0.030      332.543        1.274      870.361
11/06/2013  05:25:00      -44.402      -13.415        1.315       24.183       13.975       10.462      584.825      195.290      109.455        0.152        0.044       46.384       10.938        0.056      332.472        1.156      870.375
11/06/2013  05:26:00      -54.268       -6.573        0.264       27.335       16.661       11.511      747.203      277.598      132.504        0.207        0.058       54.665       13.399        0.060      332.409        1.052      870.402
11/06/2013  05:27:00      -37.930       11.090        2.489       23.175       15.313        7.883      537.095      234.497       62.139        0.120        0.042       39.518        8.424        0.045      332.409        1.053      870.426
11/06/2013  05:28:00      -50.899       32.415       -6.676       15.225       11.963        8.455      231.789      143.115       71.481        0.207        0.022       60.344        6.435        0.011      332.576        1.329      870.441
11/06/2013  05:29:00      -81.006       21.820      -13.602       13.320       12.319        7.999      177.435      151.750       63.980        0.381        0.020       83.894        5.224        0.004      332.782        1.670      870.440
11/06/2013  05:30:00      -52.060      -24.123       -4.123       17.956       22.573       15.303      322.401      509.560      234.186        0.219        0.053       57.378       13.831        0.058      332.707        1.546      870.450
11/06/2013  05:31:00      -59.503      -28.781       -7.190       13.160       16.122       12.153      173.176      259.925      147.706        0.250        0.029       66.097        8.848        0.018      332.606        1.378      870.447
11/06/2013  05:32:00      -15.258       -3.321       -5.594       15.477       14.926        9.681      239.551      222.778       93.730        0.042        0.028       15.615        5.934        0.144      332.561        1.303      870.448
11/06/2013  05:33:00      -15.144       -2.114       -1.605        7.850        7.776       10.580       61.627       60.468      111.935        0.024        0.012       15.291        5.661        0.137      332.536        1.263      870.438
11/06/2013  05:34:00       -9.289       -3.228       -3.001        5.962        8.993        5.003       35.543       80.878       25.028        0.012        0.007        9.834        4.617        0.220      332.656        1.461      870.424
11/06/2013  05:35:00        4.995       27.257       -1.575        6.873       10.199        5.369       47.242      104.021       28.823        0.048        0.009       27.711        2.045        0.005      332.675        1.491      870.424
11/06/2013  05:36:00      -18.648        7.892       -0.876        8.280        7.369        3.555       68.551       54.297       12.641        0.027        0.007       20.249        3.134        0.024      332.798        1.695      870.424
11/06/2013  05:37:00      -30.864       -7.547       -4.066        7.411        6.499        4.264       54.929       42.237       18.184        0.057        0.006       31.773        3.477        0.012      332.661        1.469      870.427
11/06/2013  05:38:00       -8.359      -13.793       -3.989        7.903        5.883        4.915       62.451       34.612       24.155        0.020        0.006       16.128        2.678        0.028      332.516        1.230      870.426
11/06/2013  05:39:00      -15.404      -18.527       -1.899       12.534        6.076        8.350      157.105       36.918       69.726        0.042        0.013       24.095        7.261        0.091      332.599        1.368      870.434
11/06/2013  05:40:00      -40.013      -24.495       -8.956       15.873        9.761        8.790      251.965       95.274       77.270        0.135        0.021       46.916        7.972        0.029      332.612        1.389      870.446
11/06/2013  05:41:00      -54.047      -25.853       -8.987       10.808       13.049        7.253      116.814      170.271       52.605        0.200        0.017       59.912        4.496        0.006      332.494        1.192      870.473
11/06/2013  05:42:00      -84.327      -20.116      -11.101        8.731       10.810        7.822       76.230      116.847       61.188        0.395        0.013       86.693        5.023        0.003      332.343        0.943      870.496
11/06/2013  05:43:00      -96.221      -16.082      -13.058       16.336       14.359       11.369      266.855      206.171      129.265        0.514        0.030       97.555        6.595        0.005      332.221        0.744      870.503
11/06/2013  05:44:00      -77.806      -12.880       -9.284       18.246       12.229       13.633      332.923      149.555      185.862        0.349        0.033       78.865       10.856        0.019      332.154        0.633      870.505
11/06/2013  05:45:00      -91.462       -9.675      -11.381       11.218       13.021       10.887      125.845      169.534      118.533        0.450        0.021       91.972        4.910        0.003      332.178        0.673      870.500
11/06/2013  05:46:00      -84.129      -26.259      -15.791       13.691       13.603       10.603      187.434      185.047      112.415        0.425        0.024       88.132        6.331        0.005      332.190        0.690      870.495
11/06/2013  05:47:00      -99.246      -16.674      -10.559       26.284       17.014       14.007      690.862      289.466      196.186        0.571        0.059      100.637       11.314        0.013      332.192        0.695      870.497
11/06/2013  05:48:00     -114.357       -1.752      -15.347       12.392       11.670       11.472      153.569      136.198      131.597        0.687        0.021      114.371        4.460        0.002      332.128        0.590      870.504
11/06/2013  05:49:00     -124.322       -6.248      -17.453       19.181       11.820       10.239      367.917      139.707      104.829        0.821        0.031      124.478        4.769        0.001      332.118        0.573      870.507
11/06/2013  05:50:00     -113.260      -10.592       -6.742       34.860       18.552       17.058     1215.241      344.171      290.963        0.742        0.093      113.755       16.732        0.022      332.194        0.699      870.503
11/06/2013  05:51:00      -94.161      -33.660       -1.369       26.895       19.333       13.974      723.364      373.752      195.260        0.565        0.065       99.997       10.756        0.012      332.167        0.654      870.493
11/06/2013  05:52:00     -103.901      -43.602       -3.677       23.789       24.039       15.295      565.931      577.874      233.938        0.704        0.069      112.679       12.443        0.012      332.214        0.731      870.492
11/06/2013  05:53:00     -116.148      -18.140       -9.544       34.317       28.185       18.579     1177.677      794.409      345.167        0.811        0.116      117.556       18.559        0.025      332.135        0.600      870.486
11/06/2013  05:54:00     -118.932      -23.266      -13.394       30.708       19.410       14.865      942.973      376.745      220.974        0.820        0.077      121.187       13.415        0.012      332.127        0.588      870.490
11/06/2013  05:55:00     -102.247      -21.474      -13.447       28.461       37.881       18.286      810.056     1434.991      334.369        0.684        0.129      104.477       14.525        0.019      332.134        0.599      870.496
11/06/2013  05:56:00     -140.519       21.125       -5.747       42.610       34.158       20.758     1815.649     1166.756      430.898        1.182        0.171      142.098       20.561        0.021      332.126        0.588      870.506
11/06/2013  05:57:00     -155.209       40.960       -7.635       42.400       27.087       22.719     1797.738      733.687      516.141        1.444        0.152      160.522       19.903        0.015      332.160        0.644      870.500
11/06/2013  05:58:00     -148.353       27.782      -14.879       36.325       28.865       17.041     1319.503      833.213      290.405        1.272        0.122      150.932       11.920        0.006      332.154        0.633      870.498
11/06/2013  05:59:00      -83.732      -19.960       -4.081       54.733       33.232       19.201     2995.741     1104.372      368.686        0.595        0.223       86.079       23.244        0.073      332.109        0.559      870.500
11/06/2013  06:00:00      -61.965      -12.699        0.286       25.460       39.768       21.368      648.192     1581.489      456.571        0.334        0.134       63.252       15.254        0.058      332.060        0.477      870.499
11/06/2013  06:01:00     -112.766        2.096      -15.881       25.681       30.048       19.197      659.503      902.874      368.542        0.745        0.097      112.786        8.886        0.006      332.085        0.518      870.495
11/06/2013  06:02:00     -135.994       16.531       -8.579       24.701       24.465       13.316      610.143      598.553      177.314        1.011        0.069      136.995       10.399        0.006      332.068        0.488      870.488
11/06/2013  06:03:00      -94.338        2.784      -12.154       33.235       28.308       13.929     1104.557      801.339      194.004        0.558        0.105       94.379       16.001        0.029      332.066        0.489      870.477
11/06/2013  06:04:00      -74.734      -24.109       -6.622       18.553       24.824       11.981      344.202      616.221      143.555        0.366        0.055       78.526        8.765        0.012      332.137        0.604      870.466
11/06/2013  06:05:00      -65.549      -13.601       -3.213       29.334       24.298       19.663      860.482      590.373      386.615        0.316        0.092       66.945       18.716        0.078      332.087        0.521      870.454
11/06/2013  06:06:00      -68.181      -22.592      -12.688       29.531       19.771       13.612      872.069      390.886      185.280        0.338        0.072       71.826        3.262        0.002      332.209        0.724      870.452
11/06/2013  06:07:00      -72.135      -27.466       -9.074       25.363       18.016       14.800      643.261      324.567      219.050        0.361        0.059       77.187        8.060        0.011      332.178        0.672      870.462
11/06/2013  06:08:00      -47.197      -29.842      -17.745       32.337       20.860       14.532     1045.711      435.119      211.189        0.256        0.085       55.840        3.202        0.003      332.148        0.622      870.477
11/06/2013  06:09:00      -60.378      -16.487       -5.778       36.847       15.498       18.131     1357.730      240.179      328.721        0.294        0.096       62.589       17.813        0.081      332.146        0.621      870.486
11/06/2013  06:10:00      -66.642       -9.798      -16.733       27.024       14.514       13.748      730.283      210.663      189.015        0.297        0.056       67.358       10.241        0.023      332.172        0.663      870.485
11/06/2013  06:11:00      -12.129      -10.570        4.251       22.862       16.610       15.170      522.657      275.892      230.114        0.065        0.051       16.089        8.090        0.253      332.142        0.612      870.472
11/06/2013  06:12:00      -34.050       -9.571       -9.452       19.904       11.119       13.007      396.158      123.630      169.180        0.101        0.034       35.369       11.644        0.108      332.174        0.666      870.445
11/06/2013  06:13:00      -39.890      -14.418       -6.685       17.427        9.642       12.389      303.691       92.970      153.482        0.120        0.028       42.416        7.350        0.030      332.227        0.754      870.426
11/06/2013  06:14:00      -48.878      -19.441       -8.928       14.209       13.593       13.429      201.895      184.772      180.350        0.171        0.028       52.602        6.474        0.015      332.242        0.777      870.421
11/06/2013  06:15:00      -30.772      -30.740       -3.445       20.902       10.707       13.262      436.903      114.640      175.879        0.132        0.036       43.496        3.680        0.007      332.233        0.763      870.415
11/06/2013  06:16:00      -54.826      -23.131       -9.603       12.680       11.515        7.969      160.781      132.594       63.501        0.199        0.018       59.506        1.732        0.001      332.294        0.863      870.424
11/06/2013  06:17:00      -62.521      -33.551      -10.826       13.280       13.397       11.788      176.350      179.485      138.957        0.282        0.025       70.954        6.358        0.008      332.248        0.788      870.445
11/06/2013  06:18:00      -81.551      -34.885      -12.402       13.358       11.382        7.384      178.427      129.551       54.520        0.419        0.018       88.699        1.936        0.000      332.230        0.759      870.453
11/06/2013  06:19:00      -90.066      -12.226       -9.301       13.525       16.075        8.454      182.924      258.422       71.478        0.443        0.026       90.892        7.461        0.007      332.231        0.759      870.459
11/06/2013  06:20:00      -50.927      -23.201       -4.552       30.376       17.303       10.097      922.720      299.388      101.947        0.224        0.066       55.963        7.325        0.017      332.341        0.939      870.461
11/06/2013  06:21:00      -68.478      -15.379       -4.118       23.046       15.613        9.685      531.133      243.753       93.803        0.291        0.043       70.184        6.399        0.008      332.278        0.836      870.452
11/06/2013  06:22:00      -68.337      -25.983       -2.486       15.679       14.743       10.508      245.819      217.356      110.421        0.296        0.029       73.110        7.610        0.011      332.344        0.944      870.434
11/06/2013  06:23:00      -40.677      -33.927       -4.770       29.385       15.252       10.954      863.493      232.635      119.988        0.202        0.061       52.969        5.586        0.011      332.395        1.029      870.420
11/06/2013  06:24:00      -22.889      -18.540        3.427       18.037       15.526       12.471      325.332      241.065      155.530        0.080        0.036       29.456       12.504        0.180      332.399        1.036      870.418
11/06/2013  06:25:00      -40.531      -12.239       -2.291       19.706       15.819       10.398      388.337      250.235      108.121        0.127        0.037       42.339        8.663        0.042      332.323        0.911      870.425
11/06/2013  06:26:00      -72.978      -20.784       -6.180       19.246       11.457       13.875      370.405      131.253      192.514        0.324        0.035       75.880       11.027        0.021      332.326        0.916      870.438
11/06/2013  06:27:00      -66.510      -27.899       -9.022       17.072       17.722       11.444      291.444      314.075      130.961        0.301        0.037       72.124        6.588        0.008      332.303        0.877      870.432
11/06/2013  06:28:00      -61.108      -37.449       -2.426       29.807       18.836       10.812      888.433      354.790      116.894        0.325        0.068       71.670       11.019        0.024      332.297        0.866      870.423
11/06/2013  06:29:00      -72.437      -34.879       -2.224       23.340       20.846       10.071      544.761      434.548      101.430        0.377        0.054       80.397        9.799        0.015      332.289        0.855      870.432
11/06/2013  06:30:00      -54.994      -23.217        3.493       36.032       21.096       16.406     1298.311      445.022      269.170        0.279        0.101       59.694       17.554        0.086      332.200        0.708      870.439
11/06/2013  06:31:00      -86.303      -21.373       -1.564       34.441       26.744       18.173     1186.159      715.264      330.247        0.507        0.112       88.910       21.704        0.060      332.127        0.589      870.445
11/06/2013  06:32:00      -91.597       -0.838       -7.249       37.362       16.936       18.622     1395.892      286.825      346.770        0.524        0.101       91.601       21.097        0.053      331.984        0.351      870.457
11/06/2013  06:33:00     -108.677       -6.022       -8.529       25.589       23.375       19.208      654.807      546.378      368.938        0.674        0.079      108.844       15.825        0.021      331.929        0.262      870.465
11/06/2013  06:34:00     -113.743       -8.599       -1.662       36.486       30.721       23.580     1331.263      943.781      556.027        0.792        0.142      114.068       20.420        0.032      331.901        0.214      870.473
11/06/2013  06:35:00      -91.260      -16.459       -2.395       35.806       22.340       18.708     1282.047      499.058      349.977        0.537        0.107       92.733       16.319        0.031      331.948        0.292      870.478
11/06/2013  06:36:00      -99.117      -10.711       -5.096       25.702       15.188       15.332      660.608      230.690      235.058        0.555        0.056       99.694       14.917        0.022      331.992        0.365      870.473
11/06/2013  06:37:00      -98.573      -22.317       -7.536       26.726       23.781       14.779      714.270      565.533      218.423        0.588        0.075      101.068       14.485        0.021      332.069        0.492      870.483
11/06/2013  06:38:00     -100.314      -37.945      -10.591       15.412       27.564       16.869      237.529      759.777      284.560        0.645        0.064      107.251        8.712        0.007      332.053        0.464      870.494
11/06/2013  06:39:00      -78.010      -12.353       -5.838       44.248       25.521       18.075     1957.894      651.305      326.719        0.460        0.147       78.982       21.089        0.071      332.016        0.405      870.502
11/06/2013  06:40:00      -99.329      -16.708       -4.348       27.350       35.104       17.942      748.022     1232.260      321.922        0.623        0.115      100.724       12.945        0.017      331.982        0.347      870.503
11/06/2013  06:41:00     -108.451      -15.334       -9.949       25.733       25.704       15.905      662.179      660.700      252.970        0.684        0.079      109.530       10.134        0.009      331.976        0.338      870.495
11/06/2013  06:42:00     -116.397      -11.427      -16.299       21.667       22.715       14.542      469.458      515.965      211.456        0.757        0.060      116.957       12.163        0.011      331.960        0.313      870.488
11/06/2013  06:43:00     -115.120      -12.452      -14.525       35.247       20.910       21.690     1242.343      437.229      470.468        0.788        0.108      115.791       20.196        0.030      331.916        0.238      870.489
11/06/2013  06:44:00     -106.900      -14.832       -5.486       29.481       25.649       16.218      869.107      657.891      263.035        0.673        0.090      107.924       11.331        0.011      331.866        0.157      870.505
11/06/2013  06:45:00     -111.416      -19.996       -0.307       34.922       27.822       22.329     1219.559      774.052      498.592        0.765        0.125      113.196       21.561        0.036      331.907        0.226      870.524
11/06/2013  06:46:00     -128.549      -18.583      -11.888       20.521       20.536       15.907      421.131      421.727      253.044        0.905        0.055      129.886       12.114        0.009      331.962        0.316      870.555
11/06/2013  06:47:00     -126.628      -36.900       -9.701       32.010       29.635       17.098     1024.636      878.208      292.331        0.984        0.110      131.895        6.720        0.003      331.977        0.340      870.575
11/06/2013  06:48:00     -127.463      -10.367       -1.478       47.843       32.529       20.977     2288.997     1058.148      440.015        1.007        0.189      127.884       23.161        0.033      331.976        0.337      870.599
11/06/2013  06:49:00     -116.880       -8.788       -2.631       38.403       36.598       24.489     1474.785     1339.428      599.734        0.858        0.171      117.210       22.176        0.036      332.003        0.382      870.615
11/06/2013  06:50:00     -105.211       -1.985       -2.720       48.407       32.593       27.526     2343.283     1062.285      757.699        0.762        0.208      105.230       19.020        0.033      331.980        0.345      870.627
11/06/2013  06:51:00      -77.930        7.995        0.459       46.720       35.262       25.934     2182.739     1243.419      672.571        0.512        0.205       78.339       24.139        0.095      331.978        0.343      870.620
11/06/2013  06:52:00      -32.566        2.707        9.318       35.406       27.754       21.569     1253.594      770.277      465.203        0.182        0.124       32.678       21.983        0.453      332.011        0.397      870.611
11/06/2013  06:53:00      -54.408      -11.864        2.442       49.859       31.276       24.504     2485.882      978.191      600.445        0.359        0.203       55.686       26.045        0.219      332.011        0.397      870.603
11/06/2013  06:54:00      -90.831       -3.029       -2.394       45.578       27.978       21.461     2077.369      782.795      460.577        0.579        0.166       90.882       23.102        0.065      332.011        0.396      870.598
11/06/2013  06:55:00      -92.322      -10.445       -2.364       26.456       24.346       17.853      699.927      592.714      318.736        0.512        0.081       92.911       12.611        0.018      332.084        0.518      870.592
11/06/2013  06:56:00      -39.139      -10.875        5.493       32.217       22.254       21.657     1037.903      495.236      469.036        0.184        0.100       40.622       13.089        0.104      332.152        0.631      870.588
11/06/2013  06:57:00      -46.132       -9.291       -8.473       29.211       17.532       15.095      853.280      307.385      227.868        0.184        0.069       47.059       11.991        0.065      332.215        0.731      870.585
11/06/2013  06:58:00      -52.522      -14.625      -12.378       13.030        9.269        8.895      169.786       85.919       79.123        0.173        0.017       54.521        7.052        0.017      332.332        0.927      870.586
11/06/2013  06:59:00      -36.670      -23.098      -10.190        9.670       12.997        8.987       93.514      168.921       80.765        0.116        0.017       43.339        7.769        0.032      332.430        1.088      870.582
11/06/2013  07:00:00      -26.813      -22.083       -1.837        9.751       11.747        7.736       95.084      137.984       59.849        0.075        0.015       34.736        5.566        0.026      332.462        1.140      870.577
11/06/2013  07:01:00       -8.062       -8.452        0.130       10.356       10.398        7.531      107.246      108.120       56.721        0.020        0.014       11.680        7.014        0.361      332.703        1.538      870.573
11/06/2013  07:02:00       -9.328       -5.763        1.343       13.720       11.102       12.139      188.226      123.250      147.365        0.029        0.023       10.964       11.139        1.032      332.788        1.680      870.577
11/06/2013  07:03:00      -23.727      -15.426        2.304       14.690        7.159        5.605      215.782       51.246       31.422        0.055        0.015       28.301        2.711        0.009      332.702        1.537      870.592
11/06/2013  07:04:00      -39.516      -14.635       -4.949       10.466        9.307        6.605      109.538       86.623       43.625        0.102        0.012       42.139        4.638        0.012      332.579        1.334      870.606
11/06/2013  07:05:00      -50.057      -11.259       -8.644        7.857       10.641        9.179       61.739      113.231       84.259        0.148        0.013       51.307        6.831        0.018      332.457        1.132      870.622
11/06/2013  07:06:00      -59.513      -19.030      -11.489       20.045       10.740        9.268      401.821      115.351       85.895        0.232        0.030       62.481        7.326        0.014      332.461        1.139      870.630
11/06/2013  07:07:00      -57.969      -41.304        2.356       34.278       25.122       15.340     1175.002      631.138      235.322        0.356        0.102       71.179       12.530        0.031      332.379        1.003      870.649
11/06/2013  07:08:00      -60.559      -28.299       -8.170        9.889       11.562        7.189       97.799      133.676       51.688        0.241        0.014       66.845        5.771        0.007      332.379        1.004      870.653
11/06/2013  07:09:00      -62.255      -26.257       -8.164       14.252       11.462        8.729      203.116      131.377       76.201        0.252        0.021       67.566        6.059        0.008      332.500        1.204      870.654
11/06/2013  07:10:00      -47.653      -18.577       -7.528       15.335       10.371        7.577      235.153      107.565       57.418        0.154        0.020       51.146        5.450        0.011      332.542        1.272      870.671
11/06/2013  07:11:00      -33.638      -11.285        0.080       10.005       10.481        8.961      100.108      109.858       80.291        0.077        0.015       35.480        4.027        0.013      332.627        1.413      870.674
11/06/2013  07:12:00      -36.180       -3.912       -7.122        8.350        8.934        8.964       69.723       79.817       80.353        0.080        0.011       36.391        4.060        0.012      332.735        1.593      870.695
11/06/2013  07:13:00      -35.851       -3.663       -3.497        7.379        8.211        7.139       54.451       67.416       50.964        0.074        0.009       36.038        5.854        0.026      332.785        1.674      870.712
11/06/2013  07:14:00      -35.203        0.617       -5.479       12.988        8.362        6.969      168.697       69.920       48.571        0.078        0.014       35.208        6.321        0.032      332.818        1.729      870.731
11/06/2013  07:15:00      -40.359       -0.311       -2.212        8.814        6.606        6.128       77.687       43.633       37.551        0.090        0.008       40.360        5.760        0.020      332.866        1.810      870.746
11/06/2013  07:16:00      -30.616      -14.825       -6.227        6.906        6.782        5.699       47.688       46.002       32.483        0.066        0.006       34.016        2.862        0.007      332.918        1.893      870.774
11/06/2013  07:17:00      -30.420       -6.878       -6.960        8.730        6.274        4.781       76.220       39.364       22.856        0.058        0.007       31.187        2.322        0.006      332.909        1.880      870.798
11/06/2013  07:18:00      -23.758       -5.921       -2.595        5.657        5.476        4.958       32.002       29.987       24.581        0.035        0.004       24.484        3.983        0.026      332.890        1.849      870.813
11/06/2013  07:19:00      -24.736        1.929       -5.880        8.014        5.434        3.747       64.227       29.527       14.037        0.038        0.005       24.811        3.490        0.020      332.904        1.872      870.827
11/06/2013  07:20:00      -30.461       -3.100       -3.079        9.758        7.558        2.915       95.215       57.130        8.499        0.055        0.008       30.619        1.953        0.004      332.948        1.942      870.833
11/06/2013  07:21:00      -30.622      -10.136       -2.177        8.443        4.947        3.937       71.292       24.470       15.502        0.058        0.006       32.256        4.022        0.016      333.075        2.153      870.839
11/06/2013  07:22:00      -28.908       -7.309       -5.038        4.789        6.989        4.795       22.937       48.847       22.993        0.050        0.005       29.818        3.885        0.017      333.096        2.187      870.844
11/06/2013  07:23:00      -20.098       -3.714       -0.808       12.135        9.890        7.941      147.250       97.813       63.067        0.036        0.015       20.438        3.601        0.031      333.158        2.291      870.849
11/06/2013  07:24:00      -31.507       -4.575       -1.218       10.825        9.103        8.616      117.189       82.865       74.239        0.064        0.014       31.837        8.740        0.075      333.171        2.312      870.858
11/06/2013  07:25:00      -26.441       -8.317       -3.408       10.119        5.383        4.595      102.388       28.973       21.117        0.047        0.008       27.718        3.694        0.018      333.176        2.319      870.869
11/06/2013  07:26:00      -18.015       -3.455        0.847        8.621        8.363        8.195       74.327       69.947       67.164        0.027        0.011       18.343        5.421        0.087      333.303        2.529      870.871
11/06/2013  07:27:00       -8.177        5.616       19.150        4.981        9.579       12.278       24.808       91.759      150.749        0.037        0.013        9.920        8.626        0.756      333.796        3.347      870.862
11/06/2013  07:28:00       -3.843       17.897       28.077        5.960       10.725        5.449       35.527      115.031       29.689        0.065        0.009       18.305        4.061        0.049      333.735        3.245      870.860
11/06/2013  07:29:00       -5.416        7.296       28.177        6.923        8.420        7.095       47.928       70.893       50.334        0.052        0.008        9.087        3.778        0.173      333.982        3.655      870.857
11/06/2013  07:30:00       -2.838       10.434       22.480        9.453        9.271        8.346       89.351       85.959       69.664        0.043        0.012       10.813        4.069        0.142      333.899        3.516      870.859
11/06/2013  07:31:00       24.164       27.944       16.852       17.450        7.821       14.970      304.497       61.175      224.104        0.112        0.029       36.943       13.271        0.129      333.619        3.054      870.859
11/06/2013  07:32:00       29.353       34.830       30.922       16.281       12.695       15.795      265.069      161.174      249.492        0.185        0.034       45.549       11.166        0.060      333.623        3.059      870.847
11/06/2013  07:33:00       22.896       48.740       36.450       14.607       14.914       12.577      213.358      222.439      158.175        0.241        0.030       53.850        8.007        0.022      333.687        3.164      870.841
11/06/2013  07:34:00       39.469       34.119       28.990       28.144       22.669       22.652      792.109      513.899      513.115        0.269        0.091       52.172       20.598        0.156      333.669        3.134      870.839
11/06/2013  07:35:00       36.569       41.942        5.319       20.938       16.271       15.360      438.400      264.752      235.927        0.203        0.047       55.645       11.473        0.043      333.591        3.004      870.836
11/06/2013  07:36:00        6.330       16.095       32.789       17.068       14.317        8.487      291.332      204.989       72.027        0.097        0.028       17.295        7.680        0.197      334.103        3.855      870.827
11/06/2013  07:37:00        6.686       22.858       31.042       18.061       17.367       18.482      326.211      301.607      341.581        0.125        0.048       23.816       17.950        0.568      333.995        3.675      870.837
11/06/2013  07:38:00       43.618       38.532        2.461       31.064       36.897       27.127      965.000     1361.407      735.856        0.323        0.153       58.200       26.080        0.201      333.799        3.351      870.844
11/06/2013  07:39:00       70.292       56.979       -6.152       29.419       22.099       22.024      865.452      488.351      485.051        0.503        0.092       90.485       18.153        0.040      333.672        3.140      870.852
11/06/2013  07:40:00       65.434       21.682       -2.847       28.329       13.241       14.492      802.560      175.311      210.006        0.297        0.059       68.932        7.422        0.012      333.672        3.140      870.855
11/06/2013  07:41:00       29.261        9.216        4.809       24.991       28.782       21.335      624.541      828.426      455.175        0.144        0.095       30.678       18.029        0.345      333.767        3.298      870.860
11/06/2013  07:42:00       23.326       35.342       25.406       35.474       21.900       30.906     1258.404      479.598      955.167        0.257        0.135       42.346       26.700        0.398      333.981        3.653      870.876
11/06/2013  07:43:00       58.087       49.338       23.032       33.986       25.595       23.937     1155.052      655.120      572.998        0.436        0.119       76.213       11.870        0.024      333.831        3.403      870.895
11/06/2013  07:44:00       23.959       48.370       35.267       29.297       23.905       23.480      858.329      571.454      551.304        0.307        0.099       53.978       17.110        0.100      333.899        3.515      870.911
11/06/2013  07:45:00       38.145       27.718       27.672       48.669       30.087       31.401     2368.652      905.216      986.027        0.362        0.213       47.153       24.511        0.270      333.984        3.657      870.925
11/06/2013  07:46:00       50.321       46.122       30.140       30.347       21.170       31.102      920.930      448.166      967.329        0.395        0.117       68.260       20.858        0.093      333.810        3.368      870.935
11/06/2013  07:47:00        9.289        3.582       28.420       17.152       23.625       17.714      294.197      558.139      313.775        0.104        0.058        9.956       12.633        1.610      334.080        3.818      870.929
11/06/2013  07:48:00       35.128       53.629       46.630       38.885       28.875       25.185     1512.040      833.743      634.269        0.463        0.149       64.109       25.520        0.158      333.979        3.650      870.933
11/06/2013  07:49:00       66.297       43.326       -2.947       24.233       21.999       21.581      587.247      483.965      465.720        0.391        0.077       79.199        8.781        0.012      333.807        3.364      870.930
11/06/2013  07:50:00       48.807       47.829        5.962       33.147       15.679       23.007     1098.729      245.845      529.345        0.329        0.094       68.335       15.947        0.054      333.917        3.548      870.930
11/06/2013  07:51:00       58.713       62.922        1.716       33.140       28.619       19.795     1098.232      819.076      391.830        0.486        0.115       86.061       14.559        0.029      334.144        3.922      870.927
11/06/2013  07:52:00       81.640       76.760        6.560       31.526       25.864       21.081      993.866      668.967      444.421        0.735        0.105      112.059       13.597        0.015      333.872        3.472      870.917
11/06/2013  07:53:00       55.324       53.143        5.259       30.260       21.052       24.158      915.695      443.199      583.591        0.393        0.097       76.714       15.619        0.041      333.992        3.672      870.920
11/06/2013  07:54:00       82.757       51.786        1.957       38.230       30.649       22.365     1461.506      939.378      500.172        0.622        0.145       97.624       13.326        0.019      333.926        3.562      870.913
11/06/2013  07:55:00      105.804       79.368        0.041       15.410       14.721       19.399      237.459      216.708      376.306        0.916        0.042      132.264        8.451        0.004      333.773        3.308      870.906
11/06/2013  07:56:00       78.807       53.993        8.230       29.597       27.968       28.571      875.962      782.228      816.285        0.583        0.124       95.529       18.690        0.038      333.953        3.606      870.907
11/06/2013  07:57:00       55.514       49.351        4.775       33.396       38.290       28.928     1115.270     1466.148      836.801        0.448        0.171       74.278       20.240        0.074      334.053        3.772      870.921
11/06/2013  07:58:00       84.433       59.898       -0.414       43.833       31.135       31.657     1921.313      969.387     1002.147        0.730        0.195      103.522       13.191        0.016      333.932        3.573      870.936
11/06/2013  07:59:00       73.299       69.030       11.347       31.437       31.868       29.144      988.285     1015.552      849.400        0.656        0.143      100.687       17.733        0.031      333.938        3.582      870.954
11/06/2013  08:00:00       48.127       71.665       60.555       39.167       35.339       42.331     1534.092     1248.874     1791.944        0.785        0.229       86.326       24.853        0.083      334.179        3.980      870.977
11/06/2013  08:01:00       57.885       83.840       76.287       55.565       51.603       38.890     3087.519     2662.887     1512.411        1.173        0.363      101.881       41.418        0.165      333.964        3.625      870.980
11/06/2013  08:02:00       54.954       82.876       61.397       48.095       32.472       32.871     2313.152     1054.406     1080.500        0.905        0.222       99.440       28.905        0.084      334.012        3.703      870.980
11/06/2013  08:03:00       41.311       81.717       75.620       43.789       41.210       39.623     1917.491     1698.249     1570.014        0.964        0.259       91.566       35.820        0.153      334.018        3.713      870.973
11/06/2013  08:04:00        1.341       68.305       75.803       30.936       29.292       25.531      957.047      858.018      651.816        0.644        0.123       68.318       21.807        0.102      334.208        4.030      870.972
11/06/2013  08:05:00       33.702       43.816       48.427       49.023       40.387       38.649     2403.289     1631.131     1493.747        0.546        0.276       55.278       33.976        0.378      334.286        4.159      870.971
11/06/2013  08:06:00      104.938       55.907        8.886       29.637       33.639       26.297      878.371     1131.586      691.538        0.846        0.135      118.902       16.471        0.019      334.110        3.865      870.976
11/06/2013  08:07:00       62.975       34.091       10.908       45.149       41.381       35.794     2038.435     1712.396     1281.240        0.514        0.252       71.611       24.537        0.117      334.201        4.018      870.977
11/06/2013  08:08:00       66.487       54.559        5.057       23.618       25.371       18.958      557.821      643.709      359.410        0.449        0.078       86.007       10.472        0.015      334.147        3.927      870.989
11/06/2013  08:09:00       86.796       65.967        4.480       33.592       21.230       25.387     1128.419      450.724      644.518        0.706        0.111      109.020       10.752        0.010      334.225        4.057      871.006
11/06/2013  08:10:00       80.204       43.130       -3.902       26.930       24.740       21.435      725.249      612.049      459.470        0.505        0.090       91.065       10.263        0.013      334.236        4.075      871.019
11/06/2013  08:11:00       65.240       43.422       19.189       43.674       37.147       36.239     1907.376     1379.880     1313.256        0.555        0.230       78.369       17.572        0.050      334.470        4.464      871.032
11/06/2013  08:12:00       27.001       14.109       35.655       37.974       45.041       32.895     1442.003     2028.703     1082.093        0.338        0.228       30.465       32.899        1.166      334.609        4.694      871.047
11/06/2013  08:13:00       34.378       51.437       31.804       41.206       33.887       28.257     1697.915     1148.309      798.460        0.424        0.182       61.868       20.797        0.113      334.602        4.682      871.062
11/06/2013  08:14:00       73.568       66.716       40.421       36.899       22.751       29.967     1361.554      517.603      897.992        0.714        0.139       99.314       22.916        0.053      334.419        4.380      871.075
11/06/2013  08:15:00       45.465       47.444       41.077       30.129       28.617       28.445      907.764      818.939      809.093        0.427        0.127       65.711       18.693        0.081      334.399        4.347      871.091
11/06/2013  08:16:00       24.781       35.232       48.355       37.510       32.427       21.960     1407.006     1051.511      482.236        0.357        0.147       43.074       16.055        0.139      334.684        4.819      871.093
11/06/2013  08:17:00       71.352       51.011       12.255       32.326       27.504       35.856     1044.974      756.456     1285.627        0.546        0.154       87.711       25.490        0.084      334.249        4.096      871.093
11/06/2013  08:18:00       11.788       25.534       56.730       31.316       30.392       25.501      980.673      923.700      650.309        0.328        0.128       28.123       13.762        0.239      334.754        4.935      871.087
11/06/2013  08:19:00       10.176       43.978       63.753       25.571       37.394       20.095      653.890     1398.292      403.826        0.428        0.123       45.140       18.883        0.175      334.747        4.923      871.096
11/06/2013  08:20:00       27.201       66.810       62.827       35.383       23.849       25.608     1251.949      568.762      655.772        0.581        0.124       72.135       20.327        0.079      334.639        4.745      871.090
11/06/2013  08:21:00       69.477       72.810       55.139       45.540       21.066       32.242     2073.920      443.788     1039.549        0.836        0.178      100.639       26.354        0.069      334.410        4.364      871.090
11/06/2013  08:22:00       40.415       29.550       54.007       30.423       28.621       21.069      925.579      819.146      443.897        0.381        0.109       50.065       14.451        0.083      334.638        4.742      871.092
11/06/2013  08:23:00       33.244       24.135       24.845       32.739       26.123       31.115     1071.853      682.398      968.143        0.251        0.136       41.081       28.758        0.490      334.598        4.677      871.091
11/06/2013  08:24:00       27.456       37.903       33.069       31.954       26.549       28.025     1021.086      704.831      785.416        0.290        0.126       46.802       19.268        0.169      334.769        4.960      871.086
11/06/2013  08:25:00       27.298       35.990       64.178       36.597       34.039       19.154     1339.364     1158.632      366.862        0.451        0.143       45.172       17.689        0.153      334.914        5.201      871.073
11/06/2013  08:26:00       26.971       69.374       71.279       30.127       40.429       31.881      907.659     1634.475     1016.424        0.709        0.178       74.432       24.459        0.108      334.877        5.139      871.061
11/06/2013  08:27:00       44.290       38.782       36.054       36.172       29.564       39.031     1308.414      874.032     1523.420        0.424        0.185       58.870       21.636        0.135      334.690        4.829      871.058
11/06/2013  08:28:00       66.968        8.893        4.698       37.052       19.931       22.343     1372.846      397.240      499.210        0.343        0.113       67.556       12.738        0.036      334.721        4.881      871.049
11/06/2013  08:29:00       61.743      -12.003       17.803       23.383       22.807       22.850      546.788      520.171      522.125        0.293        0.079       62.899       17.174        0.075      334.951        5.262      871.048
11/06/2013  08:30:00       22.860        1.146       -1.311       23.039       20.541       25.451      530.806      421.917      647.733        0.106        0.080       22.889       15.302        0.447      334.862        5.114      871.048
11/06/2013  08:31:00       16.485       18.154       22.903       16.441       14.744       14.905      270.293      217.392      222.158        0.092        0.035       24.522       12.542        0.262      335.147        5.589      871.048
11/06/2013  08:32:00       16.535       55.274       42.895       32.156       26.549       18.764     1034.023      704.866      352.093        0.363        0.105       57.694       13.275        0.053      335.215        5.702      871.054
11/06/2013  08:33:00       35.839       53.830        7.413       36.044       21.302       19.397     1299.148      453.773      376.243        0.318        0.106       64.669       15.149        0.055      334.830        5.062      871.052
11/06/2013  08:34:00      -50.950       25.044       17.442       26.086       32.887       33.289      680.481     1081.527     1108.139        0.320        0.144       56.773       22.798        0.161      335.032        5.397      871.042
11/06/2013  08:35:00        5.109       45.084       16.290       26.347       30.625       18.874      694.173      937.861      356.234        0.216        0.099       45.372       10.703        0.056      335.132        5.563      871.012
11/06/2013  08:36:00        3.529       17.284       46.781       16.416       20.827       13.777      269.495      433.777      189.805        0.170        0.045       17.641        9.629        0.298      335.301        5.842      870.985
11/06/2013  08:37:00        3.521      -11.355       34.623       18.787       45.393       28.808      352.945     2060.550      829.895        0.229        0.162       11.888       31.628        7.078      335.328        5.890      870.957
11/06/2013  08:38:00       34.959       57.567       24.213       34.555       28.867       32.129     1194.053      833.327     1032.292        0.409        0.153       67.350       20.308        0.091      334.963        5.281      870.926
11/06/2013  08:39:00       46.535       25.085       15.429       36.485       28.746       30.553     1331.136      826.324      933.514        0.306        0.155       52.865       23.639        0.200      335.003        5.349      870.912
11/06/2013  08:40:00       68.911       46.465       -7.325       18.420       25.565       25.801      339.287      653.575      665.697        0.431        0.083       83.113       14.888        0.032      334.802        5.016      870.913
11/06/2013  08:41:00       28.067       28.770       33.666       27.343       41.673       37.466      747.637     1736.607     1403.716        0.332        0.194       40.193       38.923        0.938      335.148        5.590      870.919
11/06/2013  08:42:00       36.905       49.022       32.936       21.964       21.773       26.859      482.433      474.056      721.425        0.326        0.084       61.361       12.549        0.042      335.065        5.452      870.934
11/06/2013  08:43:00       50.280       51.844       31.478       36.577       19.450       26.885     1337.872      378.313      722.817        0.432        0.122       72.222       13.244        0.034      335.088        5.489      870.956
11/06/2013  08:44:00       70.354       71.114       39.653       34.511       22.570       21.081     1191.020      509.423      444.426        0.686        0.107      100.034       10.885        0.012      334.926        5.223      870.983
11/06/2013  08:45:00       35.834       55.521       62.156       38.728       26.289       22.379     1499.882      691.103      500.801        0.546        0.135       66.080       17.235        0.068      335.118        5.540      871.010
11/06/2013  08:46:00       42.973       44.070       34.188       22.327       31.751       27.482      498.482     1008.148      755.236        0.361        0.113       61.554       14.086        0.052      334.894        5.169      871.019
11/06/2013  08:47:00       49.505       48.221       41.355       38.080       38.624       31.367     1450.105     1491.802      983.874        0.521        0.196       69.109       23.536        0.116      335.043        5.416      871.030
11/06/2013  08:48:00       24.414       54.437       38.044       46.721       32.050       27.543     2182.833     1027.210      758.591        0.449        0.198       59.661       25.208        0.179      335.215        5.699      871.032
11/06/2013  08:49:00       96.063       61.493       12.833       34.916       33.092       23.437     1219.128     1095.084      549.315        0.802        0.143      114.059        9.119        0.006      335.077        5.471      871.032
11/06/2013  08:50:00       93.139       71.294        7.559       37.163       25.097       27.799     1381.095      629.844      772.762        0.830        0.139      117.293       15.440        0.017      334.979        5.309      871.032
11/06/2013  08:51:00       71.189       57.910       13.734       34.176       32.622       26.983     1168.032     1064.210      728.094        0.578        0.148       91.768       16.962        0.034      335.090        5.492      871.028
11/06/2013  08:52:00       72.049       74.399       -1.909       33.784       24.581       22.542     1141.370      604.242      508.137        0.649        0.113      103.568       13.823        0.018      335.131        5.561      871.033
11/06/2013  08:53:00       60.860       52.839       -1.827       34.151       19.938       16.470     1166.280      397.505      271.265        0.417        0.092       80.597        6.068        0.006      335.151        5.594      871.025
11/06/2013  08:54:00       49.655       72.104       41.278       39.836       33.302       38.994     1586.896     1109.037     1520.570        0.679        0.211       87.548       19.451        0.049      335.403        6.012      871.024
11/06/2013  08:55:00       30.517       60.745       59.411       41.470       37.897       37.102     1719.751     1436.185     1376.524        0.634        0.227       67.980       34.324        0.255      335.403        6.015      871.011
11/06/2013  08:56:00      100.514       65.721       37.164       30.219       26.433       38.383      913.199      698.689     1473.257        0.944        0.154      120.093       25.122        0.044      335.161        5.611      871.006
11/06/2013  08:57:00       68.246       56.988       22.998       18.427       15.625       24.914      339.573      244.145      620.720        0.482        0.060       88.911       13.688        0.024      335.100        5.511      871.005
11/06/2013  08:58:00       35.198       22.336       17.849       24.590       26.362       23.060      604.660      694.936      531.772        0.194        0.092       41.687       18.652        0.200      335.359        5.941      870.995
11/06/2013  08:59:00       60.718       28.073       39.836       46.317       27.098       28.540     2145.280      734.284      814.543        0.488        0.185       66.894       28.851        0.186      335.518        6.206      870.997
11/06/2013  09:00:00       90.272       45.294       13.050       35.514       25.369       31.542     1261.246      643.567      994.898        0.663        0.145      100.998       18.496        0.034      335.251        5.762      871.001
11/06/2013  09:01:00       51.785       48.021       42.239       29.050       25.608       33.770      843.906      655.757     1140.424        0.471        0.132       70.624       14.827        0.044      335.486        6.153      871.002
11/06/2013  09:02:00       58.506       43.462       29.174       26.248       44.485       28.931      688.963     1978.946      837.028        0.483        0.175       72.883       22.811        0.098      335.367        5.954      870.989
11/06/2013  09:03:00       40.975      -22.824       19.351       45.027       42.418       25.144     2027.426     1799.252      632.246        0.352        0.223       46.903       24.521        0.273      335.610        6.358      870.985
11/06/2013  09:04:00       33.346       44.053       33.085       29.227       25.942       27.545      854.206      672.970      758.742        0.322        0.114       55.251       15.952        0.083      335.609        6.356      870.972
11/06/2013  09:05:00       19.896       37.807       35.539       24.015       24.951       30.911      576.699      622.564      955.511        0.262        0.108       42.722       10.991        0.066      335.845        6.751      870.957
11/06/2013  09:06:00       78.693       49.437        7.120       52.353       37.819       26.159     2740.859     1430.311      684.279        0.677        0.243       92.933       12.034        0.017      335.666        6.452      870.954
11/06/2013  09:07:00       55.414       36.209       11.242       46.862       25.825       25.586     2196.075      666.946      654.666        0.401        0.176       66.195       18.739        0.080      336.105        7.183      870.950
11/06/2013  09:08:00       71.517       42.782        0.828       31.926       31.700       22.548     1019.291     1004.859      508.411        0.474        0.127       83.337       16.685        0.040      335.922        6.878      870.947
11/06/2013  09:09:00       83.789       59.983        5.897       42.048       42.349       33.890     1768.074     1793.420     1148.545        0.768        0.236      103.046       16.663        0.026      336.019        7.040      870.945
11/06/2013  09:10:00       53.560       66.769        0.223       49.700       42.579       42.511     2470.122     1812.991     1807.213        0.671        0.305       85.596       24.996        0.085      335.978        6.972      870.936
11/06/2013  09:11:00       55.388       59.960       18.810       35.505       44.379       40.594     1260.577     1969.468     1647.867        0.595        0.244       81.627       33.429        0.168      336.031        7.060      870.925
11/06/2013  09:12:00       50.395       64.530        0.481       39.655       39.720       38.048     1572.534     1577.713     1447.661        0.565        0.230       81.876       27.139        0.110      335.991        6.995      870.914
11/06/2013  09:13:00       37.400       50.300       12.175       48.596       31.329       26.840     2361.537      981.534      720.383        0.407        0.203       62.681       21.888        0.122      336.092        7.161      870.906
11/06/2013  09:14:00       95.421       62.386       -8.837       25.256       34.717       24.856      637.847     1205.244      617.838        0.777        0.123      114.005       14.649        0.017      335.893        6.830      870.907
11/06/2013  09:15:00       40.057       51.493       11.105       50.105       39.902       29.390     2510.533     1592.179      863.753        0.467        0.248       65.238       19.373        0.088      336.337        7.572      870.894
11/06/2013  09:16:00       32.650       12.084       27.477       29.490       29.391       30.135      869.653      863.854      908.122        0.230        0.132       34.814       14.834        0.182      336.586        7.987      870.893
11/06/2013  09:17:00       30.543       24.137       25.109       40.578       35.552       32.843     1646.536     1263.938     1078.649        0.307        0.199       38.929       21.838        0.315      336.322        7.546      870.886
11/06/2013  09:18:00       13.073       -6.758       10.483       22.735       37.193       21.817      516.880     1383.339      475.982        0.135        0.119       14.717       18.443        1.570      336.331        7.560      870.873
11/06/2013  09:19:00       35.158       40.762        8.417       49.525       38.909       30.279     2452.752     1513.889      916.839        0.393        0.244       53.829       23.640        0.193      336.386        7.652      870.870
11/06/2013  09:20:00       66.264       40.893       -0.703       42.560       34.464       30.996     1811.395     1187.793      960.734        0.501        0.198       77.866       24.729        0.101      336.286        7.486      870.873
11/06/2013  09:21:00       52.426       51.922        4.426       50.106       27.980       24.060     2510.601      782.894      578.899        0.467        0.194       73.786       18.914        0.066      336.291        7.494      870.873
11/06/2013  09:22:00       79.295       59.913        5.841       35.527       25.324       26.217     1262.185      641.328      687.318        0.625        0.130       99.385       17.723        0.032      336.026        7.051      870.885
11/06/2013  09:23:00       39.980       48.087       -1.432       27.616       31.224       20.732      762.657      974.933      429.804        0.304        0.108       62.536        7.224        0.013      336.163        7.281      870.884
11/06/2013  09:24:00       27.121       29.408       30.156       64.982       38.974       32.107     4222.619     1518.996     1030.874        0.464        0.339       40.005       27.677        0.479      336.670        8.128      870.876
11/06/2013  09:25:00       38.290       28.944       36.603       49.190       42.114       24.355     2419.609     1773.560      593.147        0.421        0.239       47.999       19.383        0.163      336.528        7.890      870.879
11/06/2013  09:26:00       61.813       41.512        7.896       35.682       28.595       25.304     1273.181      817.691      640.294        0.417        0.137       74.459       12.810        0.030      336.317        7.537      870.884
11/06/2013  09:27:00       88.020       65.165       10.244       39.774       25.891       30.663     1581.964      670.363      940.245        0.765        0.160      109.517       19.945        0.033      336.247        7.421      870.894
11/06/2013  09:28:00       51.342       72.293       -9.210       45.683       24.972       24.877     2086.939      623.623      618.846        0.564        0.166       88.670       15.527        0.031      336.429        7.726      870.894
11/06/2013  09:29:00       15.687       49.664       24.879       37.007       36.625       28.185     1369.527     1341.369      794.408        0.342        0.175       52.082       27.755        0.284      336.829        8.395      870.888
11/06/2013  09:30:00       53.791       51.333      -11.296       36.540       41.949       23.565     1335.158     1759.698      555.296        0.465        0.183       74.354       21.666        0.085      336.392        7.663      870.881
11/06/2013  09:31:00      106.277       94.772        3.469       47.839       33.195       27.282     2288.537     1101.888      744.288        1.221        0.207      142.395       17.220        0.015      336.212        7.362      870.869
11/06/2013  09:32:00       81.888       70.773       10.480       19.979       20.075       20.830      399.162      403.024      433.888        0.653        0.062      108.233       10.322        0.009      336.150        7.258      870.871
11/06/2013  09:33:00       49.146       65.492       -0.153       23.836       36.620       25.768      568.143     1341.049      663.982        0.464        0.129       81.881       21.438        0.069      336.322        7.546      870.867
11/06/2013  09:34:00       -2.501       27.125      -12.900       35.184       32.885       24.013     1237.937     1081.439      576.627        0.190        0.145       27.240       22.745        0.697      336.403        7.682      870.854
11/06/2013  09:35:00        3.288       48.825       33.144       33.243       42.870       48.070     1105.102     1837.804     2310.687        0.437        0.263       48.936       25.845        0.279      336.845        8.419      870.836
11/06/2013  09:36:00       80.015       65.635        8.476       40.469       31.703       24.356     1637.718     1005.068      593.218        0.701        0.162      103.491       15.433        0.022      336.103        7.182      870.819
11/06/2013  09:37:00       19.988       26.246        9.356       22.574       18.113       15.221      509.592      328.086      231.684        0.112        0.053       32.991       10.477        0.101      336.471        7.794      870.802
11/06/2013  09:38:00       26.744       53.312        7.288       38.680       28.220       23.455     1496.107      796.369      550.132        0.323        0.142       59.644       20.197        0.115      336.538        7.908      870.786
11/06/2013  09:39:00       54.619       55.593       12.694       42.018       41.860       34.522     1765.530     1752.246     1191.736        0.547        0.235       77.935       21.029        0.073      336.426        7.721      870.771
11/06/2013  09:40:00      122.204       81.390       26.442       30.416       23.738       32.057      925.153      563.496     1027.657        1.239        0.126      146.827       17.682        0.015      336.310        7.526      870.756
11/06/2013  09:41:00      114.930      102.284        1.132       39.955       24.552       28.749     1596.390      602.822      826.481        1.335        0.151      153.854       13.317        0.007      336.291        7.494      870.737
11/06/2013  09:42:00      122.034       97.359       23.600       45.988       35.098       36.926     2114.856     1231.855     1363.495        1.482        0.236      156.112       19.507        0.016      336.320        7.542      870.723
11/06/2013  09:43:00       88.103       69.674       22.313       40.659       31.124       33.866     1653.176      968.687     1146.939        0.844        0.188      112.324       18.959        0.028      336.438        7.742      870.704
11/06/2013  09:44:00       40.184       37.377        5.159       42.884       42.720       31.657     1839.023     1825.011     1002.138        0.385        0.233       54.880       23.035        0.176      336.593        7.999      870.687
11/06/2013  09:45:00       49.567      -53.461       -3.242       72.741       80.336       31.496     5291.194     6453.865      992.000        0.903        0.637       72.903       41.432        0.323      336.655        8.104      870.660
11/06/2013  09:46:00       73.701       -5.678       15.759       39.838       44.488       32.933     1587.034     1979.145     1084.574        0.518        0.233       73.919       28.875        0.153      336.611        8.029      870.659
11/06/2013  09:47:00       46.535       74.856       79.529       64.978       47.854       33.110     4222.142     2290.003     1096.298        1.085        0.380       88.141       33.615        0.145      336.662        8.114      870.642
11/06/2013  09:48:00       60.048       97.407       87.000       67.093       42.121       37.246     4501.427     1774.196     1387.262        1.416        0.383      114.429       37.814        0.109      336.436        7.734      870.635
11/06/2013  09:49:00      117.543       47.375       20.167       51.695       45.462       34.925     2672.359     2066.759     1219.744        1.121        0.298      126.731       23.272        0.034      336.422        7.714      870.644
11/06/2013  09:50:00       56.738       60.272       50.323       44.272       43.313       40.785     1960.006     1875.986     1663.388        0.744        0.275       82.776       17.651        0.045      336.703        8.183      870.646
11/06/2013  09:51:00       77.151       28.751       -2.590       40.730       23.465       28.661     1658.917      550.625      821.439        0.491        0.152       82.334       16.402        0.040      336.374        7.632      870.649
11/06/2013  09:52:00       18.792       23.102       48.515       27.986       36.767       33.504      783.213     1351.779     1122.509        0.325        0.163       29.780       30.745        1.066      336.918        8.543      870.649
11/06/2013  09:53:00       39.264       40.631       48.606       36.172       32.892       22.782     1308.414     1081.865      519.002        0.423        0.145       56.502       22.075        0.153      336.588        7.992      870.644
11/06/2013  09:54:00       27.674       17.810       15.530       29.235       19.307       32.422      854.657      372.768     1051.175        0.180        0.114       32.909       18.823        0.327      336.548        7.924      870.639
11/06/2013  09:55:00       19.184       21.425       15.016       16.871       14.581       20.980      284.634      212.611      440.149        0.099        0.047       28.759       13.544        0.222      336.653        8.100      870.630
11/06/2013  09:56:00       32.368       31.904       18.275       27.933       19.812       20.549      780.253      392.502      422.268        0.200        0.080       45.448        8.199        0.033      336.700        8.179      870.623
11/06/2013  09:57:00       66.431       33.795       -9.549       43.076       39.558       31.722     1855.569     1564.865     1006.314        0.504        0.221       74.533       17.840        0.057      336.827        8.390      870.631
11/06/2013  09:58:00       82.145       55.082       14.705       18.111       22.128       25.778      328.024      489.659      664.491        0.574        0.074       98.903        9.665        0.010      336.501        7.846      870.650
11/06/2013  09:59:00       64.743       44.212       -3.962       42.309       25.029       23.989     1790.074      626.439      575.490        0.458        0.150       78.398       14.289        0.033      336.566        7.954      870.646
11/06/2013  10:00:00       94.720       29.977       -6.052       24.260       30.689       22.657      588.548      941.812      513.333        0.598        0.102       99.350        7.440        0.006      336.534        7.900      870.663
11/06/2013  10:01:00       55.120       35.188        3.031       22.597       22.076       25.345      510.611      487.337      642.391        0.296        0.082       65.395       12.620        0.037      336.644        8.083      870.675
11/06/2013  10:02:00       56.093       45.524        0.984       32.228       31.085       21.892     1038.671      966.290      479.246        0.385        0.124       72.241       16.119        0.050      336.634        8.069      870.676
11/06/2013  10:03:00       29.290       17.331       -4.971       26.766       20.924       15.422      716.392      437.796      237.827        0.129        0.070       34.033       14.282        0.176      336.800        8.344      870.679
11/06/2013  10:04:00       21.816       32.547       18.301       22.600       23.426       20.320      510.739      548.756      412.893        0.167        0.074       39.183       16.170        0.170      336.875        8.471      870.685
11/06/2013  10:05:00      -13.052       60.679       -6.974       24.834       32.965       26.353      616.748     1086.675      694.478        0.315        0.120       62.067       19.703        0.101      336.702        8.183      870.687
11/06/2013  10:06:00        2.918       35.129       16.759       29.661       31.984       23.075      879.799     1022.946      532.437        0.198        0.122       35.250       17.470        0.246      336.990        8.663      870.681
11/06/2013  10:07:00       21.613        9.859        6.931       17.339       23.470       20.846      300.641      550.848      434.537        0.095        0.064       23.755       11.428        0.231      336.769        8.293      870.666
11/06/2013  10:08:00       -7.508       28.752        4.036       15.499       32.458       16.012      240.226     1053.512      256.389        0.122        0.078       29.717       15.782        0.282      336.926        8.556      870.662
11/06/2013  10:09:00        0.899       55.451        5.184       24.090       35.359       20.636      580.337     1250.289      425.824        0.268        0.113       55.459       18.454        0.111      337.015        8.705      870.645
11/06/2013  10:10:00       32.025       26.922        3.660       22.866       14.056       18.756      522.835      197.561      351.794        0.142        0.054       41.838       11.257        0.072      336.908        8.526      870.630
11/06/2013  10:11:00        1.311       35.294        9.158       16.156       35.311       21.563      261.003     1246.849      464.944        0.165        0.099       35.318       16.384        0.215      337.066        8.790      870.621
11/06/2013  10:12:00       32.462       46.114       13.339       39.877       23.872       31.223     1590.184      569.861      974.882        0.325        0.157       56.394       17.754        0.099      337.038        8.743      870.619
11/06/2013  10:13:00       87.747       63.424       10.422       28.913       17.857       19.234      835.952      318.866      369.959        0.668        0.076      108.269       10.040        0.009      336.740        8.245      870.623
11/06/2013  10:14:00       51.056       55.619       13.992       35.079       28.332       25.749     1230.556      802.682      663.018        0.430        0.135       75.500       19.600        0.067      337.075        8.805      870.620
11/06/2013  10:15:00       47.637       36.580       20.307       32.942       29.256       29.543     1085.188      855.906      872.769        0.342        0.141       60.061       22.588        0.141      337.295        9.173      870.637
11/06/2013  10:16:00       26.500       39.407       -1.641       31.205       40.285       24.627      973.737     1622.918      606.489        0.273        0.160       47.488       22.724        0.229      337.221        9.048      870.660
11/06/2013  10:17:00        7.940       40.497        5.100       31.786       37.610       20.321     1010.324     1414.532      412.939        0.228        0.142       41.268       17.124        0.172      337.332        9.235      870.675
11/06/2013  10:18:00       18.301       47.105        0.810       32.613       33.896       23.613     1063.622     1148.949      557.574        0.266        0.139       50.535       18.362        0.132      337.206        9.024      870.682
11/06/2013  10:19:00       28.055       32.117       -0.620       22.945       16.684       17.862      526.468      278.342      319.054        0.147        0.056       42.645        9.892        0.054      337.147        8.924      870.688
11/06/2013  10:20:00       -4.695       85.367      -11.335       14.500       41.069       17.542      210.259     1686.626      307.723        0.482        0.110       85.496       18.765        0.048      337.030        8.731      870.682
11/06/2013  10:21:00      -20.147       53.620        4.273       19.412       42.337       20.809      376.836     1792.390      433.013        0.295        0.130       57.280       24.148        0.178      337.301        9.183      870.658
11/06/2013  10:22:00       -6.269      128.022      -14.105       18.807       49.740       18.732      353.696     2474.116      350.871        0.990        0.159      128.176       17.521        0.019      336.942        8.583      870.650
11/06/2013  10:23:00      -19.956       70.807       -1.829       20.315       29.790       20.567      412.718      887.416      423.013        0.357        0.086       73.565       19.453        0.070      337.214        9.037      870.634
11/06/2013  10:24:00      -22.659       50.241       -0.680       23.092       41.004       17.161      533.230     1681.292      294.515        0.277        0.125       55.115       18.179        0.109      337.260        9.113      870.616
11/06/2013  10:25:00        5.918       44.701       -0.628       52.996       43.007       30.664     2808.526     1849.603      940.297        0.382        0.280       45.091       23.123        0.263      337.296        9.173      870.618
11/06/2013  10:26:00       40.326       96.685       -7.452       29.307       45.002       32.307      858.872     2025.162     1043.727        0.748        0.196      104.757       32.234        0.095      337.133        8.901      870.617
11/06/2013  10:27:00       67.620       83.371        4.623       40.493       47.398       37.162     1639.657     2246.550     1381.000        0.841        0.263      107.346       33.786        0.099      337.262        9.116      870.601
11/06/2013  10:28:00       87.052      107.919       -7.194       44.706       32.425       39.374     1998.663     1051.393     1550.343        1.194        0.230      138.652       28.396        0.042      337.121        8.881      870.580
11/06/2013  10:29:00       75.095       72.316       -2.396       51.601       35.895       35.018     2662.683     1288.470     1226.276        0.803        0.259      104.254       23.604        0.051      337.393        9.335      870.553
11/06/2013  10:30:00       27.311       20.490      -12.949       36.762       20.092       13.493     1351.447      403.700      182.064        0.164        0.097       34.143       15.944        0.218      337.111        8.863      870.504
11/06/2013  10:31:00       48.803       20.113       47.107       38.978       53.167       42.937     1519.311     2826.744     1843.548        0.560        0.309       52.785       36.091        0.467      337.446        9.425      870.439
11/06/2013  10:32:00       58.379       34.424       64.970       66.724       57.020       37.953     4452.036     3251.310     1440.438        0.898        0.457       67.773       32.933        0.236      337.558        9.613      870.388
11/06/2013  10:33:00       96.118       42.187       60.965       60.512       58.199       51.519     3661.747     3387.158     2654.196        1.222        0.485      104.968       37.636        0.129      337.463        9.455      870.343
11/06/2013  10:34:00       61.658       68.455       62.069       35.832       33.315       35.507     1283.906     1109.861     1260.723        0.800        0.183       92.129       25.365        0.076      337.506        9.527      870.303
11/06/2013  10:35:00      119.258       86.722       47.391       61.721       50.845       41.417     3809.517     2585.196     1715.356        1.605        0.406      147.456       29.723        0.041      337.562        9.619      870.271
11/06/2013  10:36:00       58.334       69.134       83.096       54.625       63.594       49.332     2983.928     4044.187     2433.650        1.227        0.473       90.456       42.907        0.225      337.899       10.184      870.236
11/06/2013  10:37:00       70.725       77.563       62.659       83.477       58.517       35.435     6968.360     3424.278     1255.659        1.329        0.582      104.967       26.157        0.062      337.826       10.062      870.200
11/06/2013  10:38:00      172.218      110.200       48.217       93.152       65.530       57.947     8677.277     4294.215     3357.855        3.023        0.816      204.459       39.509        0.037      337.587        9.658      870.167
11/06/2013  10:39:00      108.568       54.994       23.263       79.207       67.941       47.229     6273.727     4615.991     2230.574        1.423        0.656      121.702       41.678        0.117      337.746        9.927      870.132
11/06/2013  10:40:00      130.918      110.937       91.297       68.495       52.980       50.271     4691.562     2806.920     2527.136        2.390        0.501      171.600       31.343        0.033      337.676        9.810      870.108
11/06/2013  10:41:00       95.044       16.366       24.955       71.897      113.933       46.286     5169.128    12980.713     2142.382        1.510        1.015       96.443       48.992        0.258      337.701        9.851      870.117
11/06/2013  10:42:00      129.844     -145.696      -17.663       34.970       46.605       30.245     1222.928     2172.043      914.755        2.135        0.215      195.159       15.841        0.007      337.436        9.408      870.131
11/06/2013  10:43:00       83.291      -56.535       26.858       51.254       47.269       32.301     2626.923     2234.351     1043.380        0.838        0.295      100.666       25.984        0.067      337.714        9.875      870.161
11/06/2013  10:44:00      141.610       55.672       37.058       62.075       51.311       48.526     3853.317     2632.820     2354.786        1.668        0.442      152.160       27.557        0.033      337.856       10.112      870.189
11/06/2013  10:45:00       87.125       58.286       41.389       63.351       38.601       39.118     4013.397     1490.017     1530.246        0.987        0.352      104.824       37.891        0.131      337.760        9.952      870.228
11/06/2013  10:46:00       39.330       62.491       73.482       61.275       47.506       44.456     3754.569     2256.842     1976.371        0.942        0.399       73.837       44.616        0.365      337.889       10.167      870.272
11/06/2013  10:47:00       58.026       46.067       36.683       29.392       31.795       35.746      863.871     1010.922     1277.772        0.499        0.158       74.089       12.836        0.030      337.728        9.899      870.303
11/06/2013  10:48:00       51.444       44.977        3.831       24.959       35.704       33.060      622.948     1274.766     1092.991        0.384        0.150       68.333       24.230        0.126      337.797       10.012      870.332
11/06/2013  10:49:00        3.951       35.362        0.776       19.451       23.594       20.820      378.338      556.663      433.481        0.132        0.068       35.582       16.702        0.220      338.055       10.447      870.361
11/06/2013  10:50:00       52.539       40.862       12.027       35.174       24.436       26.769     1237.191      597.129      716.594        0.356        0.128       66.559       17.388        0.068      337.951       10.272      870.375
11/06/2013  10:51:00      100.818       55.817       33.371       43.365       31.677       36.521     1880.562     1003.421     1333.798        0.930        0.211      115.238       14.442        0.016      337.830       10.071      870.387
11/06/2013  10:52:00       87.120       35.628       45.094       40.245       35.654       38.530     1619.645     1271.186     1484.565        0.763        0.219       94.124       22.464        0.057      337.901       10.188      870.400
11/06/2013  10:53:00       50.969       16.117       45.241       35.796       33.981       31.281     1281.336     1154.721      978.494        0.416        0.171       53.457       30.192        0.319      337.949       10.269      870.387
11/06/2013  10:54:00       53.843       52.908       75.001       54.529       45.444       41.477     2973.407     2065.202     1720.340        0.904        0.338       75.487       34.302        0.206      338.017       10.382      870.372
11/06/2013  10:55:00       43.221      -36.974        6.743       46.338       40.731       28.764     2147.225     1659.043      827.371        0.396        0.232       56.879       29.755        0.274      337.942       10.257      870.347
11/06/2013  10:56:00       86.775     -124.869      -27.446       32.612       32.892       19.202     1063.575     1081.852      368.700        1.319        0.126      152.060       14.739        0.009      337.790       10.001      870.308
11/06/2013  10:57:00       48.284      -42.823       41.080       44.410       80.704       48.668     1972.251     6513.124     2368.611        0.835        0.543       64.538       58.543        0.823      338.039       10.421      870.291
11/06/2013  10:58:00       47.409      -39.862       18.643       42.766       66.314       33.313     1828.900     4397.592     1109.760        0.576        0.367       61.940       34.257        0.306      338.179       10.655      870.263
11/06/2013  10:59:00       12.153       22.622       19.215       24.937       19.704       21.861      621.830      388.261      477.891        0.126        0.074       25.680        7.463        0.084      338.292       10.844      870.246
11/06/2013  11:00:00       48.925       42.444       64.664       53.034       35.603       35.502     2812.573     1267.553     1260.424        0.686        0.267       64.770       29.228        0.204      338.305       10.866      870.239
11/06/2013  11:01:00       77.630       28.350        0.363       37.650       42.908       28.374     1417.503     1841.096      805.110        0.545        0.203       82.645       23.356        0.080      338.117       10.551      870.243
11/06/2013  11:02:00       87.998       67.922       64.025       66.752       63.564       52.728     4455.781     4040.434     2780.196        1.386        0.564      111.162       44.645        0.161      338.129       10.571      870.235
11/06/2013  11:03:00      166.751      111.351       41.971       79.198       59.863       48.733     6272.309     3583.616     2374.857        2.710        0.612      200.512       36.530        0.033      337.972       10.303      870.233
11/06/2013  11:04:00       83.612       52.657       52.228       58.427       43.501       41.885     3413.725     1892.297     1754.364        0.977        0.353       98.811       22.040        0.050      337.990       10.336      870.249
11/06/2013  11:05:00       32.579       19.672       57.726       39.972       39.891       38.005     1597.800     1591.285     1444.370        0.471        0.232       38.058       15.197        0.159      338.152       10.610      870.268
11/06/2013  11:06:00       62.994       58.856       35.309       29.567       18.508       23.603      874.225      342.543      557.098        0.523        0.089       86.210        9.791        0.013      337.798       10.015      870.254
11/06/2013  11:07:00       99.251       52.528       -2.144       24.448       29.306       25.901      597.695      858.836      670.862        0.737        0.106      112.294       16.513        0.022      337.793       10.006      870.247
11/06/2013  11:08:00       49.556       65.681       51.318       45.669       34.493       35.823     2085.651     1189.735     1283.264        0.698        0.228       82.279       20.717        0.063      337.999       10.353      870.241
11/06/2013  11:09:00      103.058       29.185       42.013       45.239       52.100       39.149     2046.602     2714.448     1532.682        0.976        0.315      107.111       30.447        0.081      337.945       10.263      870.229
11/06/2013  11:10:00       75.028       49.105       33.846       60.436       48.657       39.639     3652.547     2367.542     1571.265        0.839        0.380       89.669       41.508        0.214      338.038       10.418      870.209
11/06/2013  11:11:00       85.297       11.174        8.426       32.150       33.496       20.865     1033.630     1122.008      435.328        0.503        0.130       86.026       16.176        0.035      338.015       10.379      870.195
11/06/2013  11:12:00        3.776       -7.608       27.450       28.207       25.239       25.504      795.626      636.997      650.473        0.145        0.104        8.494        6.323        0.554      338.354       10.950      870.189
11/06/2013  11:13:00        9.196      -13.471       16.967       24.888       32.670       24.951      619.417     1067.339      622.573        0.143        0.115       16.311       17.174        1.109      338.325       10.901      870.183
11/06/2013  11:14:00       72.553       46.803       22.482       38.843       39.961       27.436     1508.781     1596.862      752.753        0.591        0.193       86.339       20.927        0.059      338.178       10.654      870.164
11/06/2013  11:15:00       61.712       48.233       -0.364       27.274       26.706       20.856      743.877      713.232      434.986        0.401        0.095       78.325       10.503        0.018      338.029       10.403      870.147
11/06/2013  11:16:00       21.668       45.456       11.271       20.979       29.201       22.732      440.112      852.678      516.748        0.224        0.090       50.356       22.081        0.192      338.183       10.662      870.119
11/06/2013  11:17:00       -0.912       30.285       -6.956       22.557       37.161       13.235      508.806     1380.909      175.154        0.152        0.103       30.298        9.499        0.098      338.210       10.706      870.097
11/06/2013  11:18:00       13.421        2.031       -3.603       13.568       36.932       14.231      184.104     1363.938      202.510        0.097        0.088       13.573       11.295        0.692      338.431       11.077      870.074
11/06/2013  11:19:00      -18.102      -67.768      -10.911       44.550       34.667       22.237     1984.703     1201.779      494.488        0.436        0.184       70.144       17.721        0.064      338.348       10.937      870.056
11/06/2013  11:20:00      -31.334      -38.391       -0.307       31.618       27.928       15.311      999.671      779.981      234.439        0.223        0.101       49.555       10.685        0.046      338.213       10.710      870.029
11/06/2013  11:21:00      -48.341      -46.966       -4.462       33.656       30.407       19.697     1132.727      924.585      387.989        0.350        0.122       67.399       18.746        0.077      338.294       10.848      869.992
11/06/2013  11:22:00      -81.078      -61.358        0.553       29.483       24.382       21.532      869.239      594.462      463.614        0.613        0.096      101.678       13.788        0.018      338.243       10.761      869.958
11/06/2013  11:23:00      -33.558      -18.147        3.166       36.153       33.493       22.286     1307.066     1121.787      496.654        0.220        0.146       38.150       20.092        0.277      338.505       11.201      869.930
11/06/2013  11:24:00        4.951      -42.694       14.665       37.367       40.858       30.755     1396.325     1669.381      945.884        0.304        0.201       42.980       28.226        0.431      338.729       11.578      869.904
11/06/2013  11:25:00      -51.659      -45.156       -8.341       33.545       30.844       22.736     1125.259      951.383      516.907        0.368        0.130       68.613       12.576        0.034      338.439       11.092      869.900
11/06/2013  11:26:00      -39.495      -25.812      -11.331       44.304       25.055       18.894     1962.847      627.768      356.983        0.265        0.147       47.182       15.537        0.108      338.672       11.483      869.901
11/06/2013  11:27:00      -41.620      -43.935       10.401       40.773       40.410       28.573     1662.406     1632.947      816.398        0.394        0.206       60.518       16.573        0.075      338.884       11.838      869.909
11/06/2013  11:28:00      -65.540      -16.237        0.067       44.835       51.715       21.858     2010.167     2674.407      477.765        0.486        0.258       67.521       19.070        0.080      338.827       11.742      869.911
11/06/2013  11:29:00      -40.667       -1.742       11.721       30.665       28.406       19.000      940.331      806.893      361.001        0.195        0.105       40.704       19.775        0.236      339.064       12.141      869.916
11/06/2013  11:30:00      -27.170      -20.708        6.072       30.824       26.075       17.171      950.090      679.882      294.827        0.156        0.096       34.162        7.203        0.044      339.122       12.239      869.928
11/06/2013  11:31:00      -98.530      -84.020       -4.596       33.750       36.127       21.617     1139.095     1305.136      467.311        0.985        0.146      129.490       19.618        0.023      338.541       11.262      869.917
11/06/2013  11:32:00      -24.496       -2.316       20.974       29.935       22.382       17.719      896.096      500.948      313.951        0.138        0.086       24.605       16.720        0.462      339.172       12.325      869.885
11/06/2013  11:33:00       -8.465      -19.294        4.877       28.331       25.827       19.617      802.660      667.049      384.846        0.116        0.093       21.069       10.862        0.266      339.093       12.191      869.862
11/06/2013  11:34:00        3.725      -13.768       30.167       52.302       44.059       38.736     2735.514     1941.174     1500.490        0.364        0.309       14.263       37.302        6.840      339.282       12.509      869.837
11/06/2013  11:35:00      -27.713      -32.906       22.691       55.469       59.714       40.834     3076.755     3565.810     1667.434        0.534        0.415       43.021       46.944        1.191      339.213       12.394      869.822
11/06/2013  11:36:00      -20.177      -18.613       28.386       26.000       41.297       30.927      675.980     1705.407      956.475        0.245        0.167       27.451       32.409        1.394      339.397       12.702      869.804
11/06/2013  11:37:00      -39.726      -25.136      -14.110       25.239       57.952       31.860      636.982     3358.465     1015.082        0.371        0.251       47.011       19.413        0.171      339.068       12.148      869.784
11/06/2013  11:38:00       14.604      -19.461        5.305       31.940       33.382       22.588     1020.139     1114.336      510.239        0.163        0.132       24.331       16.464        0.458      339.404       12.714      869.770
11/06/2013  11:39:00       95.233     -136.643      -18.844       60.199       54.146       37.696     3623.938     2931.769     1421.006        1.803        0.399      166.556       22.932        0.019      339.030       12.083      869.757
11/06/2013  11:40:00      -77.249      -85.935       -5.911       55.903       41.852       28.361     3125.171     1751.553      804.332        0.953        0.284      115.552       13.350        0.013      339.088       12.181      869.753
11/06/2013  11:41:00      -39.548       -8.981       12.279       42.761       54.581       27.921     1828.527     2979.129      779.594        0.369        0.279       40.554       38.183        0.886      339.291       12.525      869.758
11/06/2013  11:42:00      -37.224      -18.882        0.490       48.035       38.948       27.841     2307.322     1516.935      775.146        0.317        0.230       41.739       29.915        0.514      339.174       12.327      869.764
11/06/2013  11:43:00       -7.931       -5.622       14.608       24.977       23.070       17.024      623.853      532.203      289.808        0.088        0.072        9.722       14.496        2.223      339.511       12.895      869.781
11/06/2013  11:44:00      -45.555      -19.031        9.889       27.183       27.221       16.698      738.932      740.964      278.838        0.215        0.088       49.370       15.450        0.098      339.173       12.325      869.776
11/06/2013  11:45:00       20.099       21.409       23.936       19.988       22.106       16.945      399.536      488.697      287.127        0.131        0.059       29.365       11.674        0.158      339.438       12.771      869.768
11/06/2013  11:46:00       -1.777      -32.130        8.387       50.970       44.226       33.220     2597.901     1955.896     1103.557        0.338        0.283       32.179       26.475        0.677      339.381       12.676      869.737
11/06/2013  11:47:00      -12.065       17.889       64.049       22.535       44.750       26.473      507.819     2002.545      700.808        0.389        0.161       21.578       24.964        1.338      339.529       12.925      869.712
11/06/2013  11:48:00      -36.596      -11.789       24.711       30.219       46.857       33.950      913.208     2195.608     1152.579        0.317        0.213       38.448       37.186        0.935      339.556       12.970      869.665
11/06/2013  11:49:00      -25.278       -1.628       44.816       36.148       53.936       43.063     1306.714     2909.045     1854.399        0.436        0.304       25.330       46.361        3.350      339.478       12.838      869.640
11/06/2013  11:50:00       71.236       86.362       82.262       33.960       32.951       28.116     1153.281     1085.770      790.495        1.116        0.151      111.951       13.459        0.014      339.019       12.066      869.619
11/06/2013  11:51:00       -6.728       20.018       47.688       18.919       32.341       17.719      357.926     1045.943      313.972        0.222        0.086       21.119       12.507        0.351      339.435       12.767      869.617
11/06/2013  11:52:00      -16.187       31.605       25.620       21.139       17.026       25.806      446.868      289.900      665.973        0.166        0.070       35.509       20.857        0.345      339.313       12.560      869.605
11/06/2013  11:53:00      -17.670       30.176       -2.174       17.291       25.320       19.017      298.995      641.117      361.657        0.126        0.065       34.969       18.953        0.294      339.329       12.588      869.611
11/06/2013  11:54:00        0.290       -2.948       15.701        8.616       11.224        9.933       74.240      125.976       98.656        0.028        0.015        2.962        5.282        3.181      339.912       13.571      869.611
11/06/2013  11:55:00      -25.950      -13.386        6.057       19.844       19.396       20.927      393.798      376.206      437.921        0.105        0.060       29.199       17.369        0.354      339.681       13.181      869.616
11/06/2013  11:56:00      -31.078       10.046       13.073       25.431       28.067       17.599      646.719      787.747      309.740        0.149        0.087       32.661       17.603        0.290      339.484       12.849      869.599
11/06/2013  11:57:00       13.853      -25.507       14.047       30.455       31.079       29.518      927.513      965.887      871.341        0.190        0.138       29.026       21.610        0.554      339.620       13.079      869.588
11/06/2013  11:58:00       40.728      -26.540       34.400       49.535       74.602       48.158     2453.755     5565.515     2319.169        0.694        0.517       48.612       53.218        1.198      339.443       12.781      869.573
11/06/2013  11:59:00       28.773      -39.550       29.122       40.746       60.365       37.105     1660.227     3643.902     1376.782        0.496        0.334       48.909       42.012        0.738      339.446       12.783      869.570
11/06/2013  12:00:00      -13.675      -87.017       -1.677       55.647       43.304       32.314     3096.627     1875.257     1044.221        0.689        0.301       88.085       34.591        0.154      339.342       12.609      869.562
11/06/2013  12:01:00      -31.938       -3.448       -2.525       23.095       22.574       24.919      533.398      509.587      620.934        0.135        0.083       32.123       15.650        0.237      339.492       12.862      869.537
11/06/2013  12:02:00       -7.951       21.843       40.204       25.416       21.665       23.709      645.960      469.373      562.103        0.192        0.084       23.246       16.523        0.505      339.960       13.651      869.533
11/06/2013  12:03:00        4.076       24.574       35.994       20.017       18.227       14.117      400.673      332.225      199.287        0.142        0.047       24.910       13.001        0.272      339.787       13.360      869.523
11/06/2013  12:04:00      -26.802       27.679        5.043       25.681       24.916       20.259      659.521      620.801      410.421        0.160        0.085       38.529       16.732        0.189      339.698       13.211      869.527
11/06/2013  12:05:00      -26.186       28.098       15.953       45.267       30.120       28.259     2049.101      907.233      798.579        0.274        0.188       38.408       29.321        0.583      339.713       13.236      869.523
11/06/2013  12:06:00        4.210      -30.332       10.287       53.059       45.453       36.914     2815.235     2065.945     1362.638        0.364        0.312       30.623       13.387        0.191      339.770       13.331      869.516
11/06/2013  12:07:00      -14.466      -23.809        8.939       84.474       36.323       33.535     7135.838     1319.349     1124.625        0.522        0.479       27.859       40.609        2.125      339.505       12.885      869.523
11/06/2013  12:08:00      -15.886       26.991       48.170       49.378       29.089       36.362     2438.183      846.163     1322.175        0.395        0.230       31.319       37.064        1.401      339.711       13.232      869.517
11/06/2013  12:09:00       57.393       26.868        8.062       43.793       34.990       42.362     1917.811     1224.307     1794.559        0.451        0.247       63.371       31.864        0.253      339.551       12.962      869.506
11/06/2013  12:10:00       43.440       27.418       41.523       47.712       44.218       40.695     2276.403     1955.239     1656.059        0.512        0.294       51.369       38.966        0.575      339.878       13.513      869.490
11/06/2013  12:11:00       35.132       52.888       60.020       44.747       44.461       31.980     2002.270     1976.778     1022.700        0.632        0.250       63.493       28.986        0.208      339.641       13.114      869.464
11/06/2013  12:12:00       60.447       51.802       54.193       63.985       29.475       36.521     4094.018      868.784     1333.758        0.778        0.315       79.607       36.340        0.208      339.611       13.062      869.463
11/06/2013  12:13:00       86.913       44.836        6.568       34.400       42.499       23.026     1183.344     1806.187      530.213        0.656        0.176       97.796       14.107        0.021      339.436       12.768      869.456
11/06/2013  12:14:00       41.087       36.085       22.774       30.813       42.642       22.685      949.470     1818.304      514.613        0.340        0.164       54.683       18.804        0.118      339.701       13.217      869.442
11/06/2013  12:15:00       -0.907       -7.789        5.629       26.320       16.220       15.719      692.732      263.077      247.083        0.065        0.060        7.842        9.481        1.462      340.073       13.842      869.442
11/06/2013  12:16:00       51.424      -63.055        6.621       61.022       77.870       41.297     3723.641     6063.717     1705.472        0.908        0.575       81.366       36.909        0.206      339.691       13.197      869.426
11/06/2013  12:17:00       47.586       58.958       67.852       39.745       42.121       44.745     1579.667     1774.168     2002.128        0.785        0.268       75.766       24.588        0.105      339.797       13.376      869.423
11/06/2013  12:18:00       83.334       53.349       37.413       73.339       49.476       45.847     5378.669     2447.881     2101.971        1.056        0.496       98.948       46.976        0.225      339.605       13.053      869.395
11/06/2013  12:19:00       45.128       31.579       35.459       61.116       32.106       36.076     3735.211     1030.802     1301.475        0.518        0.303       55.079       12.168        0.049      339.899       13.550      869.384
11/06/2013  12:20:00       87.042       61.298       10.413       76.915       56.984       45.544     5915.908     3247.143     2074.295        1.134        0.562      106.460       31.776        0.089      339.790       13.366      869.360
11/06/2013  12:21:00       82.652       83.205       46.816       51.516       48.208       63.828     2653.872     2324.038     4073.953        1.250        0.453      117.279       34.375        0.086      339.677       13.174      869.363
11/06/2013  12:22:00       64.440       45.472       14.018       36.980       37.508       26.210     1367.525     1406.840      686.952        0.494        0.173       78.868       10.036        0.016      339.557       12.973      869.355
11/06/2013  12:23:00       21.212       69.206      -21.999       58.649       43.039       20.183     3439.650     1852.334      407.368        0.571        0.285       72.383       18.131        0.063      339.504       12.883      869.345
11/06/2013  12:24:00       22.282       31.231       -3.789       61.209       38.058       34.963     3746.600     1448.399     1222.385        0.395        0.321       38.365       38.101        0.986      339.780       13.350      869.331
11/06/2013  12:25:00       12.002       43.641       15.771       31.332       26.251       27.705      981.722      689.111      767.588        0.237        0.122       45.261       12.168        0.072      340.042       13.790      869.307
11/06/2013  12:26:00        9.460       31.053       53.534       32.960       44.410       35.787     1086.353     1972.261     1280.745        0.413        0.217       32.462       28.762        0.785      340.316       14.252      869.301
11/06/2013  12:27:00       69.415       67.823       72.158       52.924       47.962       46.835     2800.898     2300.351     2193.556        1.096        0.365       97.048       44.501        0.210      339.804       13.388      869.294
11/06/2013  12:28:00       42.651       70.746       65.214       55.105       56.257       45.982     3036.600     3164.820     2114.380        0.969        0.416       82.608       40.764        0.244      340.024       13.760      869.276
11/06/2013  12:29:00       19.751       94.605       99.834       45.357       57.044       52.659     2057.278     3254.012     2772.926        1.369        0.404       96.645       43.590        0.203      340.002       13.722      869.252
11/06/2013  12:30:00      128.047       99.761       58.625       69.103       54.615       61.267     4775.173     2982.779     3753.606        2.065        0.576      162.321       57.687        0.126      339.657       13.139      869.243
11/06/2013  12:31:00      118.550       59.933       43.177       58.327       52.750       41.637     3402.086     2782.529     1733.654        1.371        0.396      132.838       18.010        0.018      339.797       13.376      869.231
11/06/2013  12:32:00      193.748       93.423       34.087       67.668       49.268       44.108     4578.960     2427.379     1945.554        2.819        0.448      215.095       20.954        0.009      339.716       13.235      869.215
11/06/2013  12:33:00      124.942       50.787       31.898       55.193       46.937       43.284     3046.246     2203.052     1873.543        1.316        0.356      134.869       26.152        0.038      340.007       13.731      869.205
11/06/2013  12:34:00       87.579       76.293       -6.663       51.402       46.581       39.657     2642.207     2169.789     1572.701        0.996        0.319      116.149       18.708        0.026      340.093       13.874      869.203
11/06/2013  12:35:00       95.340       83.153       50.736       97.633       62.765       60.540     9532.262     3939.432     3665.076        1.785        0.857      126.507       37.520        0.088      340.325       14.266      869.191
11/06/2013  12:36:00       86.875      131.872      128.422       71.675       66.921       58.528     5137.329     4478.481     3425.546        2.723        0.652      157.916       52.737        0.112      339.981       13.684      869.162
11/06/2013  12:37:00       93.583      113.232       96.242       51.064       46.580       41.743     2607.532     2169.656     1742.511        1.868        0.326      146.899       32.938        0.050      339.819       13.412      869.164
11/06/2013  12:38:00       31.056      122.895      129.363       54.404       61.897       54.098     2959.829     3831.214     2926.556        2.126        0.486      126.758       49.457        0.152      340.032       13.771      869.137
11/06/2013  12:39:00       65.884       38.556       52.652       60.078       62.208       48.582     3609.336     3869.830     2360.224        0.922        0.492       76.337       47.991        0.395      340.084       13.860      869.123
11/06/2013  12:40:00       60.937        7.964       53.401       66.748       87.023       52.536     4455.327     7572.982     2760.050        1.071        0.739       61.455       67.948        1.222      340.081       13.856      869.095
11/06/2013  12:41:00       44.559      -83.351       -6.186       38.940       39.910       25.599     1516.324     1592.783      655.306        0.637        0.188       94.514       24.533        0.067      340.162       13.993      869.083
11/06/2013  12:42:00        9.221       49.406       71.383       24.830       51.769       25.574      616.528     2679.996      654.017        0.579        0.198       50.259       30.378        0.365      340.692       14.888      869.054
11/06/2013  12:43:00       47.655       29.994       49.224       71.504       72.794       37.996     5112.762     5299.027     1443.680        0.872        0.593       56.309       32.591        0.335      340.736       14.963      869.028
11/06/2013  12:44:00       54.852       39.354       19.467       64.142       48.289       30.855     4114.204     2331.862      952.009        0.617        0.370       67.509       14.137        0.044      340.550       14.648      869.010
11/06/2013  12:45:00        8.040       79.920      118.105       75.461       97.201       62.988     5694.296     9448.034     3967.484        1.975        0.955       80.323       70.512        0.771      340.378       14.357      869.005
11/06/2013  12:46:00      102.850      123.362       90.159      128.913       94.046       95.287    16618.635     8844.605     9079.694        3.423        1.727      160.612       98.861        0.379      340.126       13.929      869.000
11/06/2013  12:47:00      151.135      115.996       55.592       56.063       41.085       46.947     3143.103     1688.004     2203.997        2.321        0.352      190.517       28.688        0.023      340.042       13.787      869.001
11/06/2013  12:48:00       76.630       63.239       56.711       60.413       56.973       39.908     3649.753     3245.937     1592.614        1.079        0.424       99.355       32.227        0.105      340.298       14.221      869.016
11/06/2013  12:49:00       77.104       28.358       44.069       95.106       59.673       56.152     9045.098     3560.882     3153.017        1.222        0.788       82.153       62.785        0.584      340.355       14.318      869.022
11/06/2013  12:50:00       59.891       73.754       62.444       69.758       67.382       63.961     4866.217     4540.345     4090.981        1.321        0.675       95.009       57.875        0.371      340.066       13.829      869.039
11/06/2013  12:51:00        0.735       -4.088       -6.883       36.954       33.280       24.058     1365.590     1107.542      578.798        0.156        0.153        4.153       21.304       26.312      340.065       13.831      869.025
11/06/2013  12:52:00       95.747       53.914       13.178       48.791       41.234       36.408     2380.548     1700.275     1325.528        0.883        0.270      109.883       29.315        0.071      340.174       14.012      869.018
11/06/2013  12:53:00       80.886       66.737        5.402       48.965       39.503       28.873     2397.615     1560.498      833.650        0.791        0.240      104.864       20.397        0.038      340.262       14.160      869.007
11/06/2013  12:54:00      157.720      113.119       29.856       72.080       52.140       50.097     5195.574     2718.533     2509.700        2.449        0.521      194.092       40.291        0.043      340.282       14.193      868.991
11/06/2013  12:55:00      131.904       69.540       31.422       65.029       45.983       39.994     4228.763     2114.443     1599.489        1.558        0.397      149.112       34.649        0.054      340.170       14.005      868.996
11/06/2013  12:56:00      178.501       93.264       26.925       73.195       45.045       43.462     5357.469     2029.017     1888.957        2.528        0.464      201.397       35.819        0.032      340.145       13.959      868.991
11/06/2013  12:57:00      148.307       98.939       15.699       71.729       70.386       51.404     5145.114     4954.146     2642.391        2.238        0.637      178.281       42.671        0.057      340.181       14.022      868.987
11/06/2013  12:58:00      156.661       86.205       21.157       42.233       41.026       37.076     1783.649     1683.114     1374.632        1.863        0.242      178.813       27.593        0.024      340.006       13.727      868.985
11/06/2013  12:59:00      122.549       76.464        1.610       55.158       48.817       40.298     3042.361     2383.135     1623.914        1.396        0.352      144.447       32.807        0.052      340.077       13.849      868.979
11/06/2013  13:00:00       92.867       76.692       49.889       63.164       35.704       40.872     3989.660     1274.784     1670.548        1.196        0.347      120.441       32.585        0.073      340.263       14.162      868.972
11/06/2013  13:01:00       71.215       63.698       27.337       56.597       41.595       39.318     3203.250     1730.180     1545.922        0.818        0.324       95.546       34.016        0.127      340.246       14.134      868.954
11/06/2013  13:02:00       98.295       76.427       20.127       37.067       41.944       33.776     1373.960     1759.298     1140.817        1.009        0.214      124.511       18.150        0.021      340.120       13.920      868.942
11/06/2013  13:03:00      101.702       74.419       15.269       56.356       44.552       30.025     3175.995     1984.923      901.483        1.109        0.303      126.022       28.647        0.052      340.210       14.072      868.926
11/06/2013  13:04:00      100.412       74.878        8.400       65.586       41.427       36.280     4301.541     1716.217     1316.237        1.155        0.367      125.257       20.191        0.026      340.203       14.061      868.911
11/06/2013  13:05:00      127.392      102.721       20.275       53.640       36.907       40.862     2877.229     1362.141     1669.704        1.655        0.295      163.647       29.112        0.032      340.126       13.931      868.896
11/06/2013  13:06:00      123.170       84.595       17.194       69.502       56.498       36.690     4830.583     3192.034     1346.141        1.599        0.468      149.423       33.287        0.050      340.185       14.030      868.885
11/06/2013  13:07:00      130.488       89.731       17.797       63.447       41.921       37.888     4025.514     1757.345     1435.522        1.631        0.361      158.363       23.002        0.021      340.164       13.995      868.866
11/06/2013  13:08:00       88.899       40.057        6.323       37.835       37.507       34.530     1431.494     1406.788     1192.324        0.679        0.202       97.507       12.403        0.016      340.255       14.148      868.852
11/06/2013  13:09:00      107.049       57.462       36.482       61.668       63.264       49.755     3802.909     4002.396     2475.592        1.318        0.514      121.497       38.752        0.102      340.350       14.310      868.845
11/06/2013  13:10:00      108.592       49.812       54.792       78.717       61.346       54.463     6196.347     3763.348     2966.199        1.510        0.646      119.472       44.901        0.141      340.321       14.260      868.842
11/06/2013  13:11:00       25.691       21.693       38.721       80.804       54.021       43.250     6529.344     2918.220     1870.580        0.697        0.566       33.625       30.628        0.830      340.503       14.569      868.839
11/06/2013  13:12:00       27.124       44.522       36.950       43.894       40.125       39.670     1926.704     1609.996     1573.729        0.460        0.256       52.134       34.027        0.426      340.483       14.536      868.850
11/06/2013  13:13:00       30.167       88.071       84.373       54.736       48.036       38.272     2996.042     2307.456     1464.782        1.128        0.338       93.094       31.676        0.116      340.411       14.413      868.848
11/06/2013  13:14:00       87.194       63.536       50.702       58.851       44.762       46.089     3463.408     2003.621     2124.162        1.090        0.380      107.887       38.817        0.129      340.384       14.368      868.833
11/06/2013  13:15:00       95.711       55.382       44.985       64.284       39.696       45.438     4132.473     1575.751     2064.568        1.101        0.389      110.580       37.095        0.113      340.393       14.383      868.813
11/06/2013  13:16:00       38.041       68.454       52.703       44.246       49.984       41.398     1957.681     2498.446     1713.771        0.754        0.308       78.314       38.038        0.236      340.590       14.716      868.783
11/06/2013  13:17:00       71.138       70.553       42.224       81.881       54.830       40.699     6704.552     3006.358     1656.395        1.159        0.568      100.191       15.174        0.023      340.638       14.796      868.765
11/06/2013  13:18:00       96.477       57.865        6.043       55.313       35.737       32.348     3059.503     1277.120     1046.402        0.904        0.269      112.500       24.063        0.046      340.517       14.591      868.747
11/06/2013  13:19:00       74.607       94.941       99.864       76.775       70.972       52.862     5894.371     5037.006     2794.422        1.914        0.686      120.748       30.195        0.063      340.723       14.938      868.724
11/06/2013  13:20:00      174.482       79.930       36.416       73.385       69.238       47.651     5385.317     4793.852     2270.655        2.530        0.622      191.919       31.634        0.027      340.377       14.354      868.727
11/06/2013  13:21:00       70.651       73.437       80.347       56.955       45.794       34.380     3243.860     2097.132     1181.986        1.168        0.326      101.905       22.786        0.050      340.565       14.674      868.714
11/06/2013  13:22:00       68.157       49.806       57.108       62.936       51.542       32.638     3960.996     2656.625     1065.216        0.903        0.384       84.416       26.908        0.102      340.756       14.996      868.700
11/06/2013  13:23:00      127.762      112.419       70.315       81.861       49.190       72.812     6701.165     2419.684     5301.635        2.416        0.721      170.179       67.672        0.158      340.752       14.987      868.679
11/06/2013  13:24:00       44.543       88.437      112.196       63.285       66.945       46.280     4004.949     4481.570     2141.798        1.651        0.531       99.021       45.520        0.211      340.746       14.978      868.668
11/06/2013  13:25:00       23.565       84.105      105.367       53.872       80.561       52.948     2902.141     6490.072     2803.464        1.546        0.610       87.344       55.088        0.398      340.879       15.205      868.649
11/06/2013  13:26:00       95.452      -90.633       18.062       58.566      103.597       50.308     3430.016    10732.254     2530.905        1.717        0.835      131.626       54.585        0.172      340.930       15.291      868.625
11/06/2013  13:27:00       47.120      -37.618       33.079       67.207       73.118       49.983     4516.754     5346.222     2498.326        0.854        0.618       60.294       39.771        0.435      341.147       15.657      868.608
11/06/2013  13:28:00       28.414       -7.370       28.741       40.372       62.506       43.667     1629.860     3906.993     1906.813        0.456        0.372       29.355       32.684        1.240      341.215       15.774      868.603
11/06/2013  13:29:00       41.779       18.129       27.623       72.333       45.034       28.612     5232.103     2028.062      818.675        0.546        0.404       45.543       11.638        0.065      341.045       15.484      868.596
11/06/2013  13:30:00        8.303      -18.388       19.764       47.294       73.810       40.531     2236.706     5447.906     1642.797        0.506        0.466       20.176       14.284        0.501      341.182       15.718      868.588
11/06/2013  13:31:00       21.714       68.448       62.526       48.704       54.263       64.116     2372.051     2944.426     4110.830        0.925        0.471       71.810       42.028        0.343      341.219       15.780      868.598
11/06/2013  13:32:00      137.553       73.219       19.523       68.304       55.335       46.750     4665.485     3061.934     2185.599        1.729        0.496      155.826       37.825        0.059      340.859       15.171      868.612
11/06/2013  13:33:00      127.643       94.042       43.890       70.724       56.950       74.548     5001.859     3243.265     5557.408        2.043        0.690      158.545       29.561        0.035      340.711       14.918      868.620
11/06/2013  13:34:00      132.862       63.870       74.115       93.208       77.117       64.226     8687.639     5947.008     4125.011        2.299        0.938      147.417       51.355        0.121      340.850       15.153      868.619
11/06/2013  13:35:00      101.561       68.446       39.484       78.968       53.668       55.977     6235.944     2880.291     3133.386        1.440        0.612      122.472       52.624        0.185      340.960       15.340      868.623
11/06/2013  13:36:00      168.120      120.128       66.287      101.440       55.598       59.396    10290.165     3091.175     3527.919        3.200        0.845      206.628       58.634        0.081      340.848       15.148      868.598
11/06/2013  13:37:00      168.085      107.705       53.972       73.096       60.108       73.501     5343.067     3613.013     5402.406        2.856        0.718      199.632       47.315        0.056      340.979       15.371      868.579
11/06/2013  13:38:00      126.520      107.354       53.741       85.003       54.723       62.447     7225.591     2994.575     3899.648        2.227        0.706      165.929       52.874        0.102      340.756       14.993      868.568
11/06/2013  13:39:00      118.087       73.901       30.135       66.456       39.943       49.255     4416.336     1595.407     2426.061        1.437        0.422      139.305       24.999        0.032      340.837       15.133      868.561
11/06/2013  13:40:00      130.079       71.896       10.735       89.276       57.472       41.387     7970.188     3303.050     1712.850        1.759        0.649      148.626       24.229        0.027      340.793       15.057      868.548
11/06/2013  13:41:00      154.660       59.132       15.760       79.715       45.707       43.249     6354.460     2089.154     1870.509        1.899        0.516      165.578       29.546        0.032      340.962       15.343      868.535
11/06/2013  13:42:00      117.675       65.477       54.276       74.910       49.643       56.761     5611.556     2464.471     3221.866        1.619        0.565      134.665       37.828        0.079      341.056       15.503      868.522
11/06/2013  13:43:00      108.042       68.554       23.473       61.768       68.423       45.729     3815.257     4681.646     2091.152        1.375        0.529      127.956       28.497        0.050      341.068       15.524      868.511
11/06/2013  13:44:00      130.207       82.305       34.283       75.212       54.143       62.308     5656.912     2931.518     3882.240        1.868        0.624      154.039       22.348        0.021      341.006       15.419      868.500
11/06/2013  13:45:00      130.429       48.049       36.698       47.464       37.116       51.568     2252.873     1377.618     2659.221        1.348        0.314      138.998       13.236        0.009      340.750       14.986      868.490
11/06/2013  13:46:00       51.939       18.733        5.719       39.635       25.492       23.065     1570.907      649.842      531.976        0.292        0.138       55.214       10.454        0.036      340.940       15.307      868.471
11/06/2013  13:47:00       81.516       99.223       99.717       80.488       66.577       49.085     6478.269     4432.538     2409.350        1.987        0.666      128.414       47.537        0.137      341.006       15.419      868.449
11/06/2013  13:48:00      104.314      119.779      105.967       78.021       59.602       56.353     6087.312     3552.369     3175.694        2.463        0.641      158.835       50.670        0.102      340.843       15.141      868.417
11/06/2013  13:49:00       41.917       90.299       91.295       46.948       52.315       45.499     2204.106     2736.895     2070.201        1.263        0.351       99.554       41.751        0.176      340.997       15.404      868.411
11/06/2013  13:50:00       80.276       84.134       49.994       53.468       53.645       54.595     2858.806     2877.829     2980.567        1.237        0.436      116.287       37.235        0.103      341.146       15.655      868.413
11/06/2013  13:51:00       59.571       30.859       27.739       65.074       44.149       28.207     4234.688     1949.106      795.638        0.612        0.349       67.090       22.081        0.108      341.167       15.692      868.417
11/06/2013  13:52:00       86.709       -4.967       55.548       62.083       95.675       56.286     3854.301     9153.610     3168.145        1.340        0.809       86.851       53.905        0.385      341.150       15.663      868.416
11/06/2013  13:53:00       60.360       39.809       60.392       49.141       43.238       32.979     2414.830     1869.559     1087.602        0.712        0.269       72.305       27.077        0.140      341.112       15.598      868.437
11/06/2013  13:54:00       51.350     -134.055       -0.850       40.844       55.365       25.201     1668.194     3065.231      635.094        1.299        0.268      143.554       19.091        0.018      341.044       15.483      868.451
11/06/2013  13:55:00       89.473      -26.530       27.190       37.155       63.590       41.181     1380.457     4043.741     1695.903        0.828        0.356       93.323       41.459        0.197      340.997       15.405      868.475
11/06/2013  13:56:00       96.069       43.510       12.366       49.898       34.780       27.733     2489.847     1209.631      769.124        0.787        0.223      105.463       17.181        0.027      340.906       15.250      868.477
11/06/2013  13:57:00       21.800        5.999       22.495       22.042       20.520       22.932      485.852      421.077      525.862        0.122        0.072       22.610        9.223        0.166      341.146       15.656      868.490
11/06/2013  13:58:00        3.088       -9.854        6.040       22.044       18.042       19.311      485.931      325.507      372.907        0.066        0.059       10.326       16.228        2.470      341.195       15.738      868.506
11/06/2013  13:59:00       55.698       37.570       46.428       44.961       78.199       40.534     2021.473     6115.067     1643.038        0.822        0.489       67.185       34.588        0.265      341.018       15.440      868.507
11/06/2013  14:00:00       26.807        7.350       46.369       55.300       58.123       43.930     3058.038     3378.282     1929.808        0.564        0.418       27.797       39.974        2.068      341.288       15.898      868.502
11/06/2013  14:01:00       28.970       15.118       53.123       44.709       64.753       52.881     1998.913     4192.920     2796.371        0.644        0.449       32.677       56.678        3.008      341.103       15.583      868.501
11/06/2013  14:02:00       19.477        7.289       31.372       35.244       28.880       26.760     1242.117      834.076      716.115        0.210        0.140       20.797       20.864        1.007      341.265       15.857      868.494
11/06/2013  14:03:00       21.887      -18.696       -2.989       24.347       26.864       21.855      592.754      721.660      477.642        0.131        0.090       28.785       19.861        0.476      341.137       15.641      868.481
11/06/2013  14:04:00        3.556      -14.372       27.507       24.511       41.596       26.965      600.796     1730.204      727.133        0.202        0.153       14.805       18.669        1.590      341.463       16.193      868.454
11/06/2013  14:05:00      -16.222      -14.948       37.924       23.291       58.530       33.216      542.451     3425.797     1103.281        0.350        0.254       22.059       33.658        2.328      341.516       16.282      868.442
11/06/2013  14:06:00       20.303      -79.963      -11.655       48.948       51.485       32.048     2395.922     2650.731     1027.076        0.651        0.304       82.500       24.760        0.090      341.321       15.953      868.430
11/06/2013  14:07:00       11.008      -56.740        0.467       32.263       32.926       30.813     1040.908     1084.119      949.420        0.321        0.154       57.798       15.989        0.077      341.436       16.147      868.407
11/06/2013  14:08:00      -11.802        5.410       35.317       29.620       39.047       32.262      877.344     1524.696     1040.856        0.243        0.172       12.983       32.231        6.163      341.596       16.419      868.391
11/06/2013  14:09:00      -28.825      -22.039       14.633       24.403       30.287       20.765      595.523      917.322      431.190        0.174        0.097       36.285       14.634        0.163      341.301       15.918      868.389
11/06/2013  14:10:00       -7.004      -54.600        4.446       44.366       41.263       36.030     1968.318     1702.661     1298.156        0.401        0.248       55.047       20.011        0.132      341.415       16.112      868.385
11/06/2013  14:11:00       26.206        4.747       79.950       44.910       55.273       37.637     2016.885     3055.054     1416.556        0.679        0.324       26.632       26.306        0.976      341.598       16.423      868.380
11/06/2013  14:12:00       68.455      -82.061       20.914       45.610       68.657       35.907     2080.253     4713.818     1289.288        0.997        0.404      106.865       36.346        0.116      341.337       15.980      868.367
11/06/2013  14:13:00      -15.772       20.242       20.884       39.166       37.954       21.761     1533.945     1440.533      473.530        0.227        0.172       25.661        7.931        0.096      341.567       16.369      868.366
11/06/2013  14:14:00       19.119       30.272       32.285       26.097       34.020       38.352      681.070     1157.359     1470.876        0.282        0.165       35.804       24.595        0.472      341.597       16.420      868.359
11/06/2013  14:15:00        2.305        3.306       32.615       32.049       36.644       26.823     1027.140     1342.804      719.483        0.208        0.154        4.030       20.739       26.482      341.607       16.437      868.345
11/06/2013  14:16:00       49.146       54.613       45.701       64.006       35.969       37.369     4096.723     1293.786     1396.407        0.714        0.339       73.470       41.530        0.320      341.407       16.098      868.331
11/06/2013  14:17:00       84.057       96.412      101.611       62.784       65.112       57.557     3941.783     4239.585     3312.755        1.909        0.575      127.909       38.381        0.090      341.329       15.965      868.314
11/06/2013  14:18:00       73.283       76.650       67.379       96.247       58.030       53.698     9263.535     3367.454     2883.479        1.565        0.776      106.045       54.941        0.268      341.372       16.040      868.299
11/06/2013  14:19:00       38.989       94.739      102.864       64.828       49.450       49.488     4202.693     2445.303     2449.100        1.509        0.455      102.448       39.667        0.150      341.307       15.928      868.287
11/06/2013  14:20:00      134.968       82.466       23.428       49.184       47.785       46.554     2419.038     2283.414     2167.236        1.622        0.343      158.168       26.695        0.028      341.222       15.785      868.289
11/06/2013  14:21:00      137.695       91.376       48.032       63.958       50.489       41.576     4090.580     2549.147     1728.544        1.899        0.418      165.256       30.147        0.033      341.261       15.850      868.279
11/06/2013  14:22:00      101.810       56.442       13.191       56.625       36.293       36.208     3206.344     1317.176     1311.037        0.978        0.292      116.409       26.891        0.053      341.267       15.862      868.273
11/06/2013  14:23:00       72.821      -31.216       27.522       52.421       78.691       41.716     2748.009     6192.308     1740.258        0.886        0.534       79.229       31.748        0.161      341.322       15.955      868.270
11/06/2013  14:24:00       34.467       23.168       50.350       42.432       52.632       45.556     1800.486     2770.151     2075.348        0.545        0.332       41.530       26.844        0.418      341.557       16.354      868.262
11/06/2013  14:25:00       95.999     -134.182       -0.323       65.452       71.092       41.195     4283.900     5054.031     1697.053        1.913        0.552      164.987       39.907        0.059      341.234       15.804      868.252
11/06/2013  14:26:00       77.770      -28.244       47.255       77.959       71.296       51.575     6077.681     5083.058     2659.960        1.145        0.691       82.740       53.071        0.411      341.412       16.106      868.240
11/06/2013  14:27:00       75.046      -27.779        5.952       66.025       41.551       30.461     4359.251     1726.471      927.845        0.673        0.351       80.023       21.490        0.072      341.275       15.875      868.252
11/06/2013  14:28:00       45.421      -62.614        2.211       34.260       71.723       27.414     1173.760     5144.129      751.549        0.653        0.353       77.354       31.410        0.165      341.326       15.960      868.250
11/06/2013  14:29:00       32.372      -97.844      -16.835       41.250       60.460       44.260     1701.590     3655.380     1958.914        0.911        0.366      103.061       36.114        0.123      341.229       15.798      868.227
11/06/2013  14:30:00       24.037       25.031       46.608       26.259       44.218       36.032      689.543     1955.213     1298.315        0.366        0.197       34.704       27.549        0.630      341.332       15.970      868.222
11/06/2013  14:31:00       25.375       59.466       64.769       24.867       41.490       24.658      618.363     1721.418      608.001        0.566        0.147       64.653       24.259        0.141      341.232       15.801      868.214
11/06/2013  14:32:00       10.626       44.927       47.074       33.007       42.575       33.077     1089.479     1812.597     1094.118        0.417        0.200       46.166       30.022        0.423      341.257       15.844      868.195
11/06/2013  14:33:00       98.515       72.801       31.744       44.691       29.407       35.900     1997.324      864.785     1288.843        1.008        0.208      122.496       17.664        0.021      341.179       15.713      868.185
11/06/2013  14:34:00       72.803       52.932       32.489       48.685       28.182       31.336     2370.250      794.232      981.922        0.665        0.207       90.012       30.688        0.116      341.158       15.678      868.180
11/06/2013  14:35:00       70.347       35.896       54.491       55.670       37.820       37.775     3099.141     1430.335     1426.972        0.758        0.298       78.976       32.920        0.174      341.175       15.706      868.174
11/06/2013  14:36:00       30.473       40.934       39.484       27.956       31.827       23.770      781.542     1012.975      565.020        0.326        0.118       51.031       14.049        0.076      341.253       15.836      868.167
11/06/2013  14:37:00       58.309        7.395       23.532       31.338       22.597       23.271      982.052      510.645      541.528        0.302        0.102       58.776       16.160        0.076      341.306       15.928      868.158
11/06/2013  14:38:00       35.619       20.749       19.855       37.556       23.528       21.116     1410.475      553.572      445.870        0.225        0.120       41.222       20.080        0.237      341.452       16.174      868.145
11/06/2013  14:39:00       39.419       18.558       14.010       23.993       29.570       23.165      575.679      874.390      536.616        0.204        0.099       43.569       17.252        0.157      341.335       15.976      868.136
11/06/2013  14:40:00       20.468      -21.265       23.396       21.060       31.737       20.467      443.513     1007.263      418.899        0.164        0.093       29.515        8.313        0.079      341.444       16.161      868.123
11/06/2013  14:41:00       43.558       30.749       10.928       16.148       15.895       13.432      260.766      252.658      180.417        0.183        0.035       53.318        7.611        0.020      341.345       15.993      868.116
11/06/2013  14:42:00       29.414       48.211       42.502       32.183       21.341       16.224     1035.719      455.441      263.223        0.337        0.088       56.476       19.057        0.114      341.392       16.070      868.097
11/06/2013  14:43:00       50.806       44.824       26.853       30.441       21.315       28.248      926.647      454.346      797.931        0.374        0.109       67.753       17.556        0.067      341.367       16.029      868.080
11/06/2013  14:44:00       99.018       38.846       29.656       44.121       50.495       32.571     1946.674     2549.790     1060.873        0.887        0.278      106.365       29.912        0.079      341.369       16.033      868.062
11/06/2013  14:45:00       49.351       54.736       43.369       46.153       40.110       39.508     2130.114     1608.831     1560.885        0.631        0.265       73.699       28.051        0.145      341.387       16.063      868.050
11/06/2013  14:46:00       -7.623      -51.367       18.746       48.868       73.412       33.014     2388.121     5389.351     1089.899        0.596        0.443       51.929       37.867        0.532      341.551       16.343      868.055
11/06/2013  14:47:00       57.028      -48.674        6.484       48.371       61.475       28.037     2339.722     3779.177      786.060        0.628        0.345       74.976       43.727        0.340      341.275       15.874      868.059
11/06/2013  14:48:00       54.392      -30.228        8.421       55.735       56.457       34.704     3106.347     3187.396     1204.339        0.572        0.375       62.227       45.102        0.525      341.313       15.939      868.054
11/06/2013  14:49:00       65.024       -7.559       11.378       42.254       60.031       36.509     1785.364     3603.671     1332.905        0.557        0.336       65.462       43.435        0.440      341.282       15.886      868.042
11/06/2013  14:50:00        2.565      -44.873      -11.369       28.765       28.312       27.779      827.414      801.561      771.662        0.227        0.120       44.946       10.169        0.051      341.504       16.261      868.039
11/06/2013  14:51:00       23.033      -21.925        7.886       37.505       30.316       18.874     1406.594      919.064      356.227        0.188        0.134       31.800       20.952        0.434      341.589       16.405      868.027
11/06/2013  14:52:00      -17.942      -64.838       -0.023       46.758       41.647       20.019     2186.316     1734.467      400.759        0.442        0.216       67.274       19.554        0.084      341.524       16.296      868.020
11/06/2013  14:53:00       41.750     -118.726       -2.099       27.961       42.815       32.059      781.840     1833.136     1027.778        0.974        0.182      125.852       25.381        0.041      341.331       15.971      868.013
11/06/2013  14:54:00       88.170      -42.453        8.436       50.066       84.871       42.147     2506.583     7203.075     1776.408        1.056        0.574       97.858       56.937        0.339      341.279       15.881      868.014
11/06/2013  14:55:00       18.487       40.581       44.936       27.243       20.655       16.681      742.176      426.647      278.253        0.273        0.072       44.593       15.264        0.117      341.353       16.006      868.007
11/06/2013  14:56:00        4.771      -28.857        5.028       18.611       22.047       18.454      346.388      486.068      340.540        0.103        0.059       29.249       13.589        0.216      341.673       16.549      868.004
11/06/2013  14:57:00       43.998      -99.593       -5.948       39.969       25.306       24.657     1597.544      640.418      607.989        0.737        0.142      108.879       17.172        0.025      341.490       16.240      868.003
11/06/2013  14:58:00       32.397       14.554       18.092       24.977       35.081       34.566      623.858     1230.643     1194.817        0.232        0.152       35.516       17.263        0.236      341.513       16.277      868.002
11/06/2013  14:59:00        2.540       -8.722       12.433       15.757       38.806       18.127      248.281     1505.872      328.592        0.116        0.104        9.084       11.591        1.628      341.599       16.423      867.995
11/06/2013  15:00:00        4.469       10.358       11.975       13.113       27.119       20.103      171.957      735.422      404.111        0.079        0.066       11.281       14.550        1.664      341.629       16.475      867.983
11/06/2013  15:01:00       58.138       35.004       34.666       48.086       36.226       36.904     2312.308     1312.331     1361.908        0.540        0.249       67.862       28.164        0.172      341.454       16.176      867.971
11/06/2013  15:02:00       84.494       74.601       22.390       44.950       37.914       39.423     2020.534     1437.434     1554.182        0.911        0.251      112.715       24.566        0.048      341.419       16.119      867.957
11/06/2013  15:03:00       20.777       11.452       43.923       42.070       42.956       29.547     1769.907     1845.220      873.042        0.349        0.224       23.724       29.011        1.495      341.560       16.357      867.951
11/06/2013  15:04:00      126.096       70.837       16.209       29.514       29.778       23.259      871.082      886.700      540.973        1.174        0.115      144.631       13.370        0.009      341.313       15.940      867.956
11/06/2013  15:05:00       79.747       42.726        8.037       43.048       30.896       22.841     1853.169      954.561      521.712        0.579        0.166       90.472        8.323        0.008      341.409       16.101      867.964
11/06/2013  15:06:00       44.059       -0.662        6.023       45.827       22.339       19.109     2100.101      499.040      365.141        0.247        0.148       44.064       21.345        0.235      341.529       16.303      867.968
11/06/2013  15:07:00        9.563      -33.815       12.909       23.394       38.694       22.912      547.278     1497.250      524.966        0.199        0.128       35.141       19.683        0.314      341.675       16.553      867.973
11/06/2013  15:08:00       31.356       13.144       30.035       43.112       28.986       27.924     1858.657      840.163      779.759        0.277        0.174       34.000       27.177        0.639      341.477       16.217      867.977
11/06/2013  15:09:00       28.600       13.465       35.645       37.439       39.703       39.098     1401.677     1576.356     1528.639        0.339        0.225       31.611       31.954        1.022      341.383       16.057      867.972
11/06/2013  15:10:00      -11.533      -13.424       13.150       33.366       29.416       22.809     1113.283      865.284      520.256        0.149        0.125       17.698       18.728        1.120      341.613       16.448      867.965
11/06/2013  15:11:00      -87.079        1.938       -0.184       26.173       39.439       17.559      685.012     1555.401      308.321        0.507        0.127       87.100       11.058        0.016      341.511       16.273      867.961
11/06/2013  15:12:00      -54.880        9.103        0.255       29.959       24.806       14.267      897.538      615.329      203.536        0.241        0.086       55.630        8.614        0.024      341.621       16.461      867.950
11/06/2013  15:13:00       25.748       14.394        4.976       12.369       14.615       13.415      152.995      213.596      179.951        0.072        0.027       29.498        5.614        0.036      341.500       16.255      867.927
11/06/2013  15:14:00       35.969       -1.293       18.911       29.387       29.174       27.200      863.619      851.119      739.852        0.205        0.123       35.993       18.147        0.254      341.615       16.450      867.919
11/06/2013  15:15:00       22.004       24.201       42.795       33.174       23.219       18.591     1100.536      539.121      345.627        0.244        0.099       32.709       15.189        0.216      341.623       16.463      867.911
11/06/2013  15:16:00      -19.914       14.521       12.186       17.073       18.132       16.784      291.477      328.782      281.711        0.083        0.045       24.646       15.169        0.379      341.697       16.589      867.899
11/06/2013  15:17:00        7.032       26.855       44.174       19.940       26.583       21.490      397.612      706.649      461.835        0.214        0.078       27.761       17.100        0.379      341.662       16.531      867.896
11/06/2013  15:18:00       76.009      -31.347       23.490       71.345       41.722       31.466     5090.136     1740.720      990.079        0.757        0.391       82.219       36.977        0.202      341.570       16.374      867.889
11/06/2013  15:19:00       60.153      -34.972       45.431       43.932       43.280       39.882     1929.991     1873.157     1590.600        0.615        0.270       69.581       20.152        0.084      341.585       16.399      867.866
11/06/2013  15:20:00       44.368      -40.614       16.796       42.530       68.426       51.375     1808.835     4682.050     2639.374        0.651        0.457       60.150       47.423        0.622      341.578       16.387      867.867
11/06/2013  15:21:00       76.148      -76.013        4.516       64.234       59.145       36.978     4126.037     3498.073     1367.378        1.029        0.450      107.595       36.442        0.115      341.575       16.384      867.848
11/06/2013  15:22:00       71.125      -23.457       17.885       57.378       47.435       29.307     3292.189     2250.094      858.886        0.616        0.320       74.893       32.544        0.189      341.509       16.269      867.846
11/06/2013  15:23:00       16.522       80.602       95.431       44.091       56.972       40.894     1944.029     3245.849     1672.326        1.137        0.343       82.278       44.573        0.293      341.448       16.168      867.829
11/06/2013  15:24:00        8.465       44.593       76.433       33.577       49.983       34.273     1127.447     2498.342     1174.665        0.635        0.240       45.389       35.496        0.612      341.511       16.274      867.823
11/06/2013  15:25:00       -5.292       50.680       78.157       21.089       38.231       28.224      444.748     1461.641      796.592        0.570        0.135       50.956       28.084        0.304      341.505       16.264      867.810
11/06/2013  15:26:00      -10.062        4.062       28.903       14.820       18.850       12.727      219.646      355.313      161.972        0.084        0.037       10.851       11.239        1.073      341.702       16.599      867.802
11/06/2013  15:27:00       51.382      -94.853        2.826       59.165       58.603       29.773     3500.508     3434.307      886.417        0.973        0.391      107.876       37.833        0.123      341.542       16.328      867.778
11/06/2013  15:28:00       73.194      -98.934       -1.702       36.218       65.610       32.237     1311.742     4304.669     1039.214        1.090        0.333      123.066       37.599        0.093      341.421       16.120      867.773
11/06/2013  15:29:00       35.258      -41.348       17.741       41.149       71.070       31.648     1693.239     5050.896     1001.572        0.551        0.387       54.340       43.959        0.654      341.453       16.176      867.766
11/06/2013  15:30:00       86.842      -68.584        5.443       31.165       27.298       24.837      971.246      745.189      616.875        0.730        0.117      110.658       19.615        0.031      341.387       16.065      867.760
11/06/2013  15:31:00       59.766      -23.709       27.111       36.960       47.334       24.585     1366.014     2240.515      604.424        0.454        0.211       64.296       28.325        0.194      341.398       16.083      867.750
11/06/2013  15:32:00       -2.060      -43.693       -9.158       24.507       36.270       18.424      600.607     1315.489      339.448        0.213        0.113       43.741       12.097        0.076      341.615       16.451      867.742
11/06/2013  15:33:00        1.544      -28.229        5.672       18.779       21.046       13.194      352.647      442.951      174.076        0.090        0.048       28.271       10.514        0.138      341.652       16.514      867.743
11/06/2013  15:34:00        4.746       -9.340       10.836       21.609       23.603       19.673      466.928      557.090      387.038        0.082        0.071       10.477       12.180        1.352      341.677       16.556      867.739
11/06/2013  15:35:00       27.139      -31.818        1.578       26.014       27.773       29.620      676.732      771.329      877.357        0.204        0.116       41.820       23.148        0.306      341.638       16.489      867.737
11/06/2013  15:36:00        4.596      -28.501       11.072       42.965       50.988       21.585     1845.982     2599.729      465.892        0.293        0.246       28.869       23.969        0.689      341.631       16.478      867.727
11/06/2013  15:37:00       87.893      -56.313        1.938       30.708       37.612       25.412      943.007     1414.648      645.750        0.695        0.150      104.385       26.087        0.062      341.450       16.172      867.718
11/06/2013  15:38:00       51.027      -63.354       10.999       31.636       40.971       26.198     1000.831     1678.587      686.349        0.505        0.168       81.348       26.856        0.109      341.546       16.333      867.706
11/06/2013  15:39:00       77.737      -62.379       -2.345       29.679       37.748       25.204      880.828     1424.945      635.225        0.644        0.147       99.670       26.048        0.068      341.429       16.135      867.689
11/06/2013  15:40:00       61.909      -40.349       -4.874       26.471       30.075       19.160      700.709      904.507      367.092        0.373        0.099       73.897       22.871        0.096      341.449       16.169      867.676
11/06/2013  15:41:00        1.932       19.566       42.725       24.401       28.191       20.518      595.404      794.722      421.003        0.201        0.091       19.661       19.073        0.941      341.661       16.529      867.655
11/06/2013  15:42:00       47.195      -43.165       14.906       41.706       55.567       28.592     1739.361     3087.714      817.490        0.498        0.282       63.958       37.468        0.343      341.569       16.372      867.652
11/06/2013  15:43:00       -2.540       24.693       24.881       18.025       20.834       13.558      324.899      434.045      183.827        0.109        0.047       24.823        6.331        0.065      341.613       16.445      867.650
11/06/2013  15:44:00       57.872       45.600       29.838       30.773       20.840       20.350      946.965      434.320      414.106        0.406        0.090       73.679       16.087        0.048      341.460       16.187      867.646
11/06/2013  15:45:00       27.209        7.461       10.657       32.257       20.964       25.595     1040.538      439.481      655.091        0.152        0.107       28.213       15.243        0.292      341.591       16.409      867.648
11/06/2013  15:46:00       -2.869       12.460       23.598       19.240       21.176       14.502      370.185      448.441      210.311        0.087        0.051       12.786       14.886        1.356      341.761       16.698      867.646
11/06/2013  15:47:00      -39.982      -19.340        6.558       18.982       18.194       12.928      360.319      331.026      167.130        0.144        0.043       44.414        8.458        0.036      341.720       16.629      867.642
11/06/2013  15:48:00      -25.405       -9.357        6.342       41.221       22.602       16.757     1699.203      510.830      280.785        0.163        0.125       27.074       15.219        0.316      341.721       16.631      867.637
11/06/2013  15:49:00      -25.095      -19.920       -8.726       26.880       31.423       17.075      722.553      987.408      291.558        0.155        0.100       32.040       12.947        0.163      341.672       16.547      867.629
11/06/2013  15:50:00      -33.324      -33.367        5.465       20.635       23.522       14.403      425.807      553.302      207.452        0.172        0.059       47.158        5.779        0.015      341.628       16.473      867.628
11/06/2013  15:51:00      -26.341      -47.850       16.071       25.113       32.774       31.601      630.643     1074.144      998.603        0.297        0.135       54.622        8.349        0.023      341.610       16.441      867.622
11/06/2013  15:52:00      -24.792       -2.028       12.796       23.185       17.299        8.600      537.529      299.247       73.959        0.085        0.046       24.875        9.776        0.154      341.694       16.585      867.629
11/06/2013  15:53:00       -6.448       -1.901        7.773        9.348        8.629        9.170       87.377       74.452       84.095        0.018        0.012        6.722        6.298        0.878      341.701       16.597      867.623
11/06/2013  15:54:00      -17.033        8.982        3.030       26.071       12.488       16.436      679.718      155.938      270.144        0.074        0.055       19.256       10.469        0.296      341.666       16.536      867.624
11/06/2013  15:55:00        2.582       19.357       15.621       12.527       18.716       19.894      156.932      350.289      395.769        0.076        0.045       19.529       10.564        0.293      341.514       16.278      867.630
11/06/2013  15:56:00        7.536      -14.729        6.950       33.076       23.733       17.158     1094.045      563.250      294.400        0.114        0.098       16.545       15.981        0.933      341.606       16.435      867.619
11/06/2013  15:57:00       48.232      -44.594        5.240       39.109       25.082       21.648     1529.499      629.092      468.635        0.348        0.131       65.688       16.293        0.062      341.567       16.368      867.608
11/06/2013  15:58:00       15.214      -52.023        5.035       23.509       28.922       18.495      552.660      836.467      342.081        0.235        0.087       54.202       17.717        0.107      341.585       16.400      867.602
11/06/2013  15:59:00        9.694      -13.719       28.231       22.620       30.820       16.690      511.676      949.861      278.571        0.141        0.087       16.798       13.017        0.600      341.521       16.292      867.596
11/06/2013  16:00:00       63.488      -87.135      -13.206       24.652       39.588       18.163      607.699     1567.237      329.895        0.715        0.125      107.811       17.793        0.027      341.483       16.227      867.588
11/06/2013  16:01:00       25.861       -3.723       30.336       35.943       35.954       30.614     1291.899     1292.725      937.220        0.256        0.176       26.128       27.957        1.145      341.409       16.102      867.588
11/06/2013  16:02:00       78.878      -50.263       11.590       55.987       60.699       42.106     3134.518     3684.324     1772.926        0.874        0.430       93.531       48.432        0.268      341.380       16.051      867.580
11/06/2013  16:03:00       30.870      -31.591       20.630       46.789       41.547       27.650     2189.173     1726.194      764.501        0.353        0.234       44.170       32.300        0.535      341.438       16.149      867.588
11/06/2013  16:04:00       52.315      -22.769       21.318       52.520       50.815       38.658     2758.310     2582.178     1494.413        0.527        0.342       57.055       39.342        0.475      341.362       16.021      867.584
11/06/2013  16:05:00      102.266      -65.591       -1.999       56.235       53.288       38.260     3162.351     2839.603     1463.823        1.111        0.373      121.493       45.565        0.141      341.334       15.975      867.566
11/06/2013  16:06:00       93.610     -113.617       -7.519       39.086       32.799       22.876     1527.697     1075.754      523.332        1.243        0.156      147.213       22.618        0.024      341.395       16.077      867.560
11/06/2013  16:07:00       77.997      -30.075        1.321       30.316       33.899       21.996      919.059     1149.130      483.808        0.477        0.128       83.595       19.236        0.053      341.363       16.024      867.565
11/06/2013  16:08:00       14.613       -2.087       10.501       22.444       19.411       13.356      503.740      376.794      178.394        0.069        0.053       14.761       14.310        0.940      341.374       16.042      867.565
11/06/2013  16:09:00       18.746      -51.292       -5.228       16.919       27.695       13.890      286.269      767.018      192.921        0.213        0.062       54.610       10.704        0.038      341.423       16.124      867.556
11/06/2013  16:10:00       56.365       35.796       32.474       29.119       26.636       14.394      847.932      709.503      207.189        0.364        0.088       66.771       14.546        0.047      341.324       15.957      867.545
11/06/2013  16:11:00        9.079       15.124       26.098       24.361       17.634       15.810      593.471      310.971      249.958        0.107        0.058       17.640       14.043        0.634      341.416       16.113      867.546
11/06/2013  16:12:00        1.636       -3.759       34.959       10.829       31.915       14.543      117.273     1018.568      211.508        0.129        0.067        4.099       11.865        8.376      341.514       16.279      867.539
11/06/2013  16:13:00       21.488        7.568       22.690       14.519       16.990       13.369      210.802      288.666      178.724        0.086        0.034       22.781        9.241        0.165      341.372       16.041      867.530
11/06/2013  16:14:00       20.283       -2.075        7.290       14.182       15.210       13.139      201.129      231.344      172.628        0.054        0.030       20.388        3.979        0.038      341.333       15.972      867.515
11/06/2013  16:15:00       19.685      -21.350        0.967       20.634       20.130       12.566      425.781      405.228      157.911        0.092        0.049       29.040       10.546        0.132      341.344       15.991      867.511
11/06/2013  16:16:00      -22.027      -38.884       -6.922       31.541       23.048       15.386      994.837      531.217      236.734        0.190        0.088       44.690        9.830        0.048      341.376       16.044      867.510
11/06/2013  16:17:00      -48.736        8.942        1.454       29.181       10.775       11.666      851.536      116.096      136.088        0.178        0.055       49.549       14.440        0.085      341.391       16.071      867.513
11/06/2013  16:18:00        0.838        6.706        0.878       11.571       11.516       11.051      133.894      132.616      122.124        0.022        0.019        6.758        6.052        0.802      341.341       15.986      867.512
11/06/2013  16:19:00       -5.891      -15.178        0.650       27.919       14.651       12.158      779.453      214.658      147.817        0.070        0.057       16.281       15.242        0.876      341.387       16.063      867.516
11/06/2013  16:20:00      -28.174        6.466        6.775       45.730       17.205       13.211     2091.212      296.022      174.522        0.172        0.128       28.906       20.297        0.493      341.286       15.894      867.504
11/06/2013  16:21:00       16.662        0.965       -1.778       28.516       24.487       18.624      813.182      599.626      346.858        0.102        0.088       16.690       13.695        0.673      341.344       15.989      867.506
11/06/2013  16:22:00       26.757      -37.056        2.623       14.110       24.690       15.629      199.080      609.587      244.250        0.157        0.053       45.707       10.477        0.053      341.332       15.971      867.517
11/06/2013  16:23:00      -19.929      -27.562        0.347       26.516       18.082       15.123      703.073      326.971      228.705        0.121        0.063       34.013       10.742        0.100      341.305       15.926      867.521
11/06/2013  16:24:00        9.470      -35.105        3.916       20.633       17.686       16.230      425.719      312.793      263.403        0.117        0.050       36.360       14.175        0.152      341.342       15.987      867.533
11/06/2013  16:25:00       -3.163      -28.060        2.484       12.788       20.202       13.069      163.523      408.131      170.807        0.077        0.037       28.237       12.396        0.193      341.313       15.938      867.532
11/06/2013  16:26:00       -7.470      -54.250       -0.359       25.054       33.320       18.255      627.698     1110.207      333.248        0.253        0.104       54.761       11.775        0.046      341.336       15.977      867.530
11/06/2013  16:27:00      -29.901      -24.820       -3.535       18.318       15.029       10.782      335.532      225.864      116.246        0.110        0.034       38.860        5.968        0.024      341.295       15.908      867.526
11/06/2013  16:28:00        0.580      -22.741       -1.647       12.310       18.597        8.045      151.548      345.846       64.722        0.054        0.028       22.749        8.366        0.135      341.305       15.926      867.526
11/06/2013  16:29:00       -6.491      -25.259        1.998       16.289       15.513       14.579      265.327      240.641      212.550        0.070        0.036       26.080       10.298        0.156      341.327       15.962      867.522
11/06/2013  16:30:00       -1.652        4.231        4.480        8.969       14.118        8.197       80.440      199.330       67.198        0.019        0.017        4.543        8.515        3.514      341.182       15.718      867.522
11/06/2013  16:31:00      -13.633      -27.094       -3.551       20.143       15.611       13.048      405.758      243.695      170.237        0.088        0.041       30.331        8.873        0.086      341.255       15.840      867.518
11/06/2013  16:32:00       -3.696      -14.044       -5.261       17.007       17.221       10.377      289.223      296.554      107.681        0.047        0.035       14.523        8.952        0.380      341.222       15.786      867.515
11/06/2013  16:33:00       -8.494      -32.353       -1.661       22.862       35.449       14.173      522.657     1256.667      200.871        0.155        0.099       33.450       15.910        0.226      341.210       15.764      867.505
11/06/2013  16:34:00      -10.826      -15.429        1.401       11.203       10.874        8.077      125.508      118.246       65.242        0.033        0.015       18.849        6.554        0.121      341.150       15.664      867.498
11/06/2013  16:35:00        0.283      -38.245      -11.824       16.252       15.148       10.202      264.118      229.464      104.082        0.110        0.030       38.246        8.678        0.051      341.107       15.590      867.493
11/06/2013  16:36:00        0.496      -25.766       -1.800       22.453       16.220       14.945      504.152      263.077      223.341        0.083        0.050       25.770       12.757        0.245      341.123       15.618      867.486
11/06/2013  16:37:00       -1.844       -3.670        4.399       19.479       11.945       14.521      379.413      142.678      210.873        0.038        0.037        4.107       13.657       11.059      341.021       15.443      867.487
11/06/2013  16:38:00        9.207       -3.047       13.027       12.186        8.174       11.971      148.504       66.807      143.296        0.031        0.018        9.698        7.700        0.630      341.025       15.452      867.489
11/06/2013  16:39:00        1.415       -6.777        3.801       19.265       12.428       10.614      371.144      154.446      112.648        0.035        0.032        6.923       10.322        2.223      341.078       15.541      867.487
11/06/2013  16:40:00       11.150       -4.049       -3.319       11.653       12.333       10.639      135.783      152.092      113.190        0.028        0.020       11.863        4.560        0.148      341.072       15.531      867.480
11/06/2013  16:41:00       -9.208       -3.933       -3.314       14.755       21.079       13.668      217.717      444.315      186.809        0.048        0.042       10.013       12.632        1.592      341.040       15.476      867.485
11/06/2013  16:42:00       17.942      -12.301       -4.562       15.754       17.717        7.775      248.193      313.881       60.443        0.056        0.031       21.754        8.484        0.152      341.092       15.564      867.484
11/06/2013  16:43:00      -11.272      -11.141       -1.203       29.356       12.625        8.739      861.756      159.383       76.370        0.067        0.055       15.849        6.657        0.176      341.041       15.479      867.489
11/06/2013  16:44:00        9.611        2.233        0.221       14.643       14.775       11.369      214.405      218.307      129.255        0.033        0.028        9.867        6.860        0.483      341.061       15.512      867.492
11/06/2013  16:45:00       -7.646        7.882        3.723       11.377        9.623       10.336      129.439       92.611      106.826        0.023        0.016       10.981        7.591        0.478      340.976       15.368      867.492
11/06/2013  16:46:00      -14.311        7.758       -1.490       12.047       13.225        7.153      145.122      174.907       51.171        0.032        0.019       16.278        3.486        0.046      341.000       15.408      867.499
11/06/2013  16:47:00      -22.849       -3.290        0.218       15.237       13.209        8.498      232.159      174.471       72.216        0.051        0.024       23.084        7.010        0.092      340.953       15.330      867.505
11/06/2013  16:48:00      -26.512       -1.262       -6.202       19.138       17.537       10.093      366.280      307.561      101.875        0.076        0.039       26.542       11.012        0.172      340.734       14.960      867.509
11/06/2013  16:49:00      -31.898      -20.057        2.218       25.175       20.554        8.291      633.788      422.468       68.749        0.127        0.056       37.680        7.193        0.036      340.705       14.908      867.522
11/06/2013  16:50:00      -34.021      -46.211        1.878       34.339       33.550       15.741     1179.142     1125.614      247.791        0.292        0.128       57.384       19.194        0.112      340.796       15.065      867.528
11/06/2013  16:51:00      -67.359      -60.780       -4.312       38.936       25.022       20.762     1516.033      626.100      431.054        0.541        0.129       90.727       21.466        0.056      340.964       15.348      867.534
11/06/2013  16:52:00      -67.149      -95.255       -6.549       24.673       29.896       17.484      608.781      893.781      305.699        0.772        0.090      116.544       16.517        0.020      340.993       15.397      867.542
11/06/2013  16:53:00      -64.470      -44.517       -0.179       28.598       26.221       17.494      817.851      687.553      306.043        0.397        0.091       78.346       15.429        0.039      340.836       15.131      867.534
11/06/2013  16:54:00      -71.803      -65.854       -0.244       25.423       20.251       14.002      646.312      410.109      196.069        0.537        0.063       97.429       12.750        0.017      340.860       15.172      867.540
11/06/2013  16:55:00      -69.597      -72.998       -3.801       27.274       22.596       16.047      743.883      510.569      257.505        0.585        0.076      100.859       16.342        0.026      340.915       15.265      867.537
11/06/2013  16:56:00      -78.327      -87.301      -11.567       24.510       21.206       14.625      600.748      449.704      213.878        0.758        0.063      117.289       11.392        0.009      340.993       15.397      867.541
11/06/2013  16:57:00      -72.711      -68.190       -5.270       24.093       27.337       15.008      580.480      747.324      225.246        0.576        0.078       99.684       15.401        0.024      340.895       15.231      867.542
11/06/2013  16:58:00      -73.307      -24.934       -1.072       14.597       16.333       10.212      213.078      266.775      104.292        0.329        0.029       77.431        7.072        0.008      340.648       14.813      867.540
11/06/2013  16:59:00      -58.910      -16.687        1.362       24.561       20.279       13.210      603.231      411.235      174.499        0.247        0.059       61.228       13.365        0.048      340.349       14.307      867.544
11/06/2013  17:00:00      -53.638      -12.764       -0.042       16.395       16.520       13.380      268.787      272.919      179.013        0.188        0.036       55.135       11.242        0.042      340.212       14.077      867.555
11/06/2013  17:01:00      -88.616      -10.417      -11.472       24.964       16.344       12.058      623.224      267.137      145.387        0.456        0.052       89.226       10.814        0.015      340.323       14.265      867.563
11/06/2013  17:02:00      -83.879      -11.008       -8.760       26.420       13.226       10.479      698.019      174.915      109.803        0.411        0.049       84.598       11.572        0.019      340.222       14.093      867.576
11/06/2013  17:03:00      -87.277      -16.558       -4.508       19.136       16.260        8.590      366.192      264.392       73.795        0.431        0.035       88.834        7.277        0.007      340.189       14.038      867.585
11/06/2013  17:04:00      -91.821      -15.638       -5.628       21.479       12.917       12.022      461.333      166.857      144.519        0.474        0.039       93.143        8.904        0.009      340.146       13.964      867.586
11/06/2013  17:05:00     -101.246      -19.158       -9.792       19.868       12.323       10.037      394.749      151.851      100.746        0.568        0.032      103.043        9.671        0.009      340.085       13.862      867.589
11/06/2013  17:06:00      -67.828      -29.675       -6.179       17.132       16.034       11.962      293.488      257.095      143.079        0.311        0.035       74.036        7.977        0.012      339.942       13.620      867.596
11/06/2013  17:07:00      -82.628      -31.563      -10.507       22.250       21.717       11.394      495.073      471.644      129.815        0.452        0.055       88.451       10.165        0.013      339.840       13.449      867.603
11/06/2013  17:08:00      -91.213      -30.394      -16.072       25.651       22.588       17.196      657.949      510.221      295.691        0.548        0.073       96.144       13.022        0.018      339.840       13.450      867.607
11/06/2013  17:09:00      -65.535      -17.112       -4.450       18.725       17.669       15.659      350.630      312.186      245.208        0.276        0.045       67.733        8.816        0.017      339.670       13.163      867.603
11/06/2013  17:10:00      -61.452       -5.478       -7.404       15.054       19.011       10.748      226.635      361.428      115.517        0.228        0.035       61.695        9.212        0.022      339.693       13.203      867.596
11/06/2013  17:11:00      -70.644      -17.351      -11.470       18.561       14.547       12.571      344.515      211.605      158.025        0.307        0.036       72.744       10.006        0.019      339.591       13.030      867.600
11/06/2013  17:12:00      -71.476       -8.422      -11.486       13.382       15.450       10.628      179.071      238.704      112.946        0.292        0.027       71.971        8.506        0.014      339.597       13.040      867.604
11/06/2013  17:13:00      -62.038        4.931       -6.327       14.748       14.174       10.614      217.512      200.905      112.664        0.222        0.027       62.233        8.685        0.019      339.606       13.056      867.601
11/06/2013  17:14:00      -54.136        4.175       -8.879       22.671       17.959       12.759      513.990      322.543      162.793        0.201        0.050       54.296        9.737        0.032      339.661       13.149      867.601
11/06/2013  17:15:00      -49.762      -16.867       -1.376       19.289       14.030       12.924      372.080      196.847      167.039        0.175        0.037       52.543        9.969        0.036      339.613       13.067      867.601
11/06/2013  17:16:00      -43.363       -6.095       -9.625       17.451       10.536        7.627      304.552      111.015       58.170        0.124        0.024       43.789        6.306        0.021      339.625       13.086      867.604
11/06/2013  17:17:00      -19.398       12.993       -5.841       13.051       14.018        9.055      170.327      196.500       81.988        0.051        0.022       23.347        8.592        0.135      339.700       13.212      867.612
11/06/2013  17:18:00      -20.186        3.308       -6.984       11.688        9.579        6.437      136.608       91.761       41.439        0.037        0.013       20.455        6.064        0.088      339.775       13.341      867.630
11/06/2013  17:19:00      -30.366        6.216       -6.349       13.288       11.418        9.702      176.575      130.371       94.121        0.070        0.020       30.996        9.262        0.089      339.719       13.246      867.641
11/06/2013  17:20:00      -42.578       20.205      -12.155        9.450       11.676        6.287       89.302      136.340       39.523        0.132        0.013       47.129        5.596        0.014      339.796       13.375      867.646
11/06/2013  17:21:00      -40.399       -4.293      -12.324       11.449        7.276       10.544      131.087       52.947      111.170        0.105        0.015       40.627        6.382        0.025      339.772       13.334      867.651
11/06/2013  17:22:00      -14.703        4.746       -1.256       14.707       11.672        6.986      216.289      136.234       48.802        0.032        0.020       15.450        7.054        0.208      340.170       14.006      867.653
11/06/2013  17:23:00      -23.555       -1.361       -3.828        9.919        8.572        6.504       98.396       73.477       42.301        0.039        0.011       23.594        5.327        0.051      339.950       13.635      867.650
11/06/2013  17:24:00      -26.228      -12.492       -5.718        8.847        8.594        5.878       78.266       73.854       34.545        0.053        0.009       29.051        2.985        0.011      339.873       13.504      867.641
11/06/2013  17:25:00       -3.773       -4.476       -0.585       15.562        5.743        5.008      242.182       32.977       25.076        0.017        0.015        5.854        6.790        1.346      339.911       13.568      867.636
11/06/2013  17:26:00        9.604       -5.447        1.191       10.022        7.394        6.150      100.432       54.676       37.821        0.016        0.010       11.041        3.992        0.131      339.911       13.569      867.629
11/06/2013  17:27:00       -7.166       27.524       -4.864       13.781       16.643        8.146      189.925      276.994       66.351        0.068        0.027       28.441        7.471        0.069      340.081       13.856      867.624
11/06/2013  17:28:00      -24.664       -3.099        2.095       14.042       23.416        9.804      197.178      548.298       96.126        0.073        0.042       24.858       10.868        0.191      339.635       13.105      867.620
11/06/2013  17:29:00      -11.303      -15.521       -0.621        9.675       13.191        6.517       93.612      174.004       42.466        0.034        0.016       19.200        5.672        0.087      339.665       13.154      867.625
11/06/2013  17:30:00      -28.054      -27.015        0.465        7.333        9.628        9.307       53.769       92.703       86.621        0.088        0.012       38.947        3.200        0.007      339.807       13.394      867.633
11/06/2013  17:31:00      -49.661      -18.512       -8.119       13.504       10.366       12.385      182.371      107.459      153.399        0.166        0.022       52.999        4.640        0.008      339.470       12.826      867.644
11/06/2013  17:32:00      -48.801      -20.532      -11.206       16.954       11.705        7.525      287.448      137.010       56.621        0.170        0.024       52.944        6.255        0.014      339.332       12.593      867.669
11/06/2013  17:33:00      -71.532       -8.421       -8.399       11.344       11.077        8.404      128.688      122.694       70.626        0.279        0.016       72.026        4.130        0.003      339.225       12.413      867.691
11/06/2013  17:34:00      -72.734       -7.308      -12.836       13.615       10.669       10.441      185.378      113.822      109.007        0.296        0.020       73.100        4.548        0.004      339.225       12.413      867.709
11/06/2013  17:35:00      -68.955       -9.487      -12.283       10.781       11.797        8.523      116.228      139.162       72.644        0.266        0.016       69.604        4.909        0.005      339.275       12.495      867.721
11/06/2013  17:36:00      -50.473      -18.334       -9.879       17.807        8.699        7.209      317.075       75.675       51.969        0.171        0.022       53.699        6.365        0.014      339.417       12.736      867.734
11/06/2013  17:37:00      -31.709      -17.720       -2.757       15.130        8.386        6.472      228.929       70.321       41.892        0.083        0.017       36.324        3.706        0.010      339.576       13.004      867.727
11/06/2013  17:38:00      -25.765      -14.564       -1.940        9.453       10.653        8.794       89.362      113.487       77.337        0.058        0.014       29.597        6.849        0.054      339.587       13.024      867.724
11/06/2013  17:39:00       -8.248      -15.263       -3.978       11.712       11.781        6.831      137.161      138.792       46.667        0.032        0.016       17.350        6.960        0.161      339.753       13.303      867.719
11/06/2013  17:40:00       -4.110        2.317        1.435       12.975        7.064        6.436      168.360       49.907       41.418        0.014        0.013        4.718        2.660        0.318      339.776       13.341      867.710
11/06/2013  17:41:00       -5.233       15.578        1.951       11.769       11.316        5.986      138.505      128.049       35.837        0.029        0.015       16.433        4.887        0.088      340.031       13.772      867.725
11/06/2013  17:42:00       -9.519       19.336        1.493       12.770       13.441        8.663      163.073      180.662       75.042        0.044        0.021       21.552        8.542        0.157      339.974       13.674      867.730
11/06/2013  17:43:00       -2.725        0.640        5.010       14.623       12.136       12.884      213.836      147.271      165.989        0.028        0.026        2.799       11.136       15.829      339.752       13.302      867.752
11/06/2013  17:44:00      -16.000       -8.345       -9.201       19.091       17.084        6.956      364.448      291.858       48.391        0.056        0.035       18.045        4.453        0.061      339.661       13.148      867.774
11/06/2013  17:45:00      -19.649      -16.921       -3.506       19.016       13.087       14.301      361.622      171.262      204.533        0.071        0.037       25.931       11.207        0.187      339.565       12.984      867.798
11/06/2013  17:46:00      -36.206      -31.730      -13.473       20.220       11.854       14.181      408.851      140.516      201.102        0.162        0.038       48.142       12.996        0.073      339.120       12.237      867.825
11/06/2013  17:47:00      -45.242      -29.792      -16.626       13.827        9.584        8.748      191.199       91.860       76.523        0.179        0.018       54.170        6.543        0.015      339.112       12.222      867.853
11/06/2013  17:48:00      -55.272      -42.898      -20.465       19.392       15.832       10.520      376.048      250.649      110.680        0.303        0.037       69.966        5.676        0.007      339.008       12.048      867.876
11/06/2013  17:49:00      -79.588      -23.113      -17.004       11.411       19.534        9.269      130.222      381.572       85.909        0.388        0.030       82.876        7.054        0.007      338.929       11.915      867.904
11/06/2013  17:50:00      -80.898      -16.931      -14.897       18.048       15.439       11.885      325.724      238.366      141.255        0.388        0.035       82.651       10.081        0.015      338.705       11.538      867.918
11/06/2013  17:51:00      -77.763      -14.365      -18.753       18.843       12.624        8.941      355.046      159.377       79.936        0.360        0.030       79.079        6.685        0.007      338.776       11.657      867.928
11/06/2013  17:52:00      -65.208      -24.540      -19.607       15.252       20.986        8.560      232.637      440.421       73.266        0.299        0.037       69.673        7.875        0.013      338.785       11.673      867.936
11/06/2013  17:53:00      -77.517      -28.379      -13.711       15.370       18.921       10.556      236.229      358.022      111.440        0.385        0.035       82.549        5.245        0.004      338.683       11.499      867.946
11/06/2013  17:54:00      -39.972      -12.459      -16.213       26.714       13.559       13.325      713.629      183.834      177.558        0.155        0.054       41.868        4.562        0.012      338.980       12.002      867.954
11/06/2013  17:55:00       -6.040       44.924      -13.801       17.230       42.039       12.650      296.867     1767.268      160.015        0.223        0.111       45.328       18.349        0.164      339.430       12.757      867.954
11/06/2013  17:56:00        2.792       80.879      -13.596       17.066       13.129        9.020      291.262      172.377       81.354        0.364        0.027       80.928        6.044        0.006      339.699       13.211      867.942
11/06/2013  17:57:00       23.211       40.845       -4.139       16.676       34.987       14.389      278.084     1224.087      207.037        0.197        0.085       46.980       15.832        0.114      339.534       12.933      867.931
11/06/2013  17:58:00       35.885       39.105       -1.744       22.978       26.845       19.407      527.992      720.640      376.642        0.222        0.081       53.075       15.421        0.084      339.540       12.944      867.923
11/06/2013  17:59:00       44.625       35.353       13.889       25.184       17.445       15.593      634.228      304.320      243.156        0.231        0.059       56.932        9.616        0.029      339.491       12.859      867.915
11/06/2013  18:00:00       56.418       34.530        9.634       20.937       14.203       11.906      438.369      201.734      141.760        0.262        0.039       66.146        7.682        0.013      339.478       12.840      867.921
11/06/2013  18:01:00       25.863       19.339        4.159       15.562       12.488       12.059      242.168      155.939      145.421        0.080        0.027       32.294       10.753        0.111      339.413       12.730      867.926
11/06/2013  18:02:00       46.643       33.361        0.579       28.092       21.605       17.096      789.167      466.770      292.283        0.242        0.077       57.345        5.017        0.008      339.442       12.779      867.941
11/06/2013  18:03:00       38.532       29.768        9.124       19.371       15.509       13.298      375.243      240.532      176.844        0.162        0.040       48.691        8.043        0.027      339.387       12.687      867.949
11/06/2013  18:04:00       46.887       34.719        6.837       25.505       18.511       15.693      650.480      342.658      246.275        0.234        0.062       58.342       10.384        0.032      339.383       12.678      867.959
11/06/2013  18:05:00       82.900       58.976       17.682       31.671       30.526       28.613     1003.028      931.829      818.726        0.671        0.138      101.737       23.347        0.053      339.429       12.755      867.967
11/06/2013  18:06:00      124.395       82.320       15.421       36.801       22.422       27.320     1354.300      502.768      746.410        1.255        0.130      149.167       16.972        0.013      339.452       12.794      867.963
11/06/2013  18:07:00       85.739       30.467       20.656       34.370       22.841       23.099     1181.298      521.722      533.544        0.547        0.112       90.992       18.194        0.040      339.275       12.499      867.965
11/06/2013  18:08:00       84.900       40.732       23.339       26.149       18.929       19.857      683.794      358.291      394.284        0.542        0.072       94.165       14.208        0.023      339.223       12.408      867.958
11/06/2013  18:09:00       60.627       24.004       17.096       36.807       21.967       20.810     1354.766      482.546      433.050        0.341        0.114       65.206       10.513        0.026      339.156       12.295      867.961
11/06/2013  18:10:00       64.201       20.020        7.952       26.653       14.018       11.192      710.384      196.491      125.250        0.281        0.052       67.250        6.295        0.009      339.238       12.434      867.959
11/06/2013  18:11:00       44.463        6.683       17.027       21.320       22.196       14.016      454.539      492.677      196.457        0.173        0.057       44.962        8.442        0.035      339.192       12.355      867.972
11/06/2013  18:12:00       60.991        0.754        4.022       20.009       19.827       12.534      400.370      393.123      157.097        0.234        0.048       60.996        9.242        0.023      339.336       12.600      867.970
11/06/2013  18:13:00       69.500      -12.069        6.002       18.784       20.669       14.127      352.851      427.192      199.565        0.300        0.049       70.540        9.514        0.018      339.362       12.645      867.979
11/06/2013  18:14:00       46.448       -5.235        4.940       20.832       24.998       16.520      433.989      624.919      272.914        0.177        0.067       46.742       10.090        0.047      339.321       12.575      867.983
11/06/2013  18:15:00       25.089      -11.854        2.006       12.560       16.860       12.969      157.752      284.257      168.190        0.069        0.031       27.748       11.185        0.162      339.217       12.400      867.978
11/06/2013  18:16:00       21.900      -15.309        0.502       18.787       11.913        5.488      352.938      141.911       30.117        0.062        0.026       26.720        2.000        0.006      339.232       12.424      867.989
11/06/2013  18:17:00       34.099      -28.610        0.539       12.347       12.845        8.094      152.449      164.992       65.515        0.118        0.019       44.512        8.129        0.033      339.324       12.577      867.980
11/06/2013  18:18:00       -9.819        4.267        4.079        7.807        8.770        8.017       60.948       76.920       64.272        0.017        0.010       10.706        5.759        0.289      339.074       12.159      867.991
11/06/2013  18:19:00        9.049       -2.542        3.647        7.062        5.450        4.632       49.866       29.703       21.454        0.010        0.005        9.399        2.386        0.064      339.097       12.198      867.997
11/06/2013  18:20:00        0.601       -4.885        0.288       14.135        6.610        4.024      199.787       43.693       16.193        0.014        0.013        4.922        2.306        0.219      339.088       12.184      868.000
11/06/2013  18:21:00      -23.635       -8.514        0.849        9.475        8.926        5.886       89.774       79.673       34.651        0.042        0.010       25.121        3.620        0.021      338.720       11.564      868.008
11/06/2013  18:22:00      -27.328       -7.644       -4.572        7.872        7.237        5.619       61.975       52.376       31.574        0.049        0.007       28.377        4.903        0.030      338.597       11.356      868.001
11/06/2013  18:23:00      -20.941        5.052       -1.425       13.416       14.001        9.586      179.986      196.026       91.891        0.047        0.023       21.542        7.409        0.118      338.770       11.647      867.997
11/06/2013  18:24:00        4.092       29.381      -11.376       30.469       22.961        9.496      928.332      527.196       90.182        0.128        0.077       29.665        7.479        0.064      339.096       12.194      867.998
11/06/2013  18:25:00      -14.211        9.857       -9.254       21.695       21.330       13.805      470.683      454.981      190.578        0.075        0.056       17.295       15.434        0.796      338.891       11.850      868.000
11/06/2013  18:26:00      -61.560       -2.971       -8.666       24.679        8.876        6.878      609.067       78.789       47.313        0.230        0.037       61.631        7.682        0.016      338.586       11.338      868.010
11/06/2013  18:27:00      -51.301      -19.139      -15.441       12.961       11.081        5.077      167.982      122.789       25.775        0.178        0.016       54.755        4.665        0.007      338.458       11.124      868.034
11/06/2013  18:28:00      -47.902      -32.392      -11.387        9.615        9.422        6.000       92.446       88.776       36.005        0.185        0.011       57.826        4.160        0.005      338.483       11.164      868.054
11/06/2013  18:29:00      -63.027       -7.127      -14.840        6.741        7.013        6.776       45.436       49.182       45.917        0.219        0.007       63.428        3.375        0.003      338.386       11.000      868.076
11/06/2013  18:30:00      -70.971      -16.078      -13.642       12.883        7.084        7.811      165.973       50.181       61.005        0.288        0.014       72.770        8.619        0.014      338.396       11.019      868.106
11/06/2013  18:31:00      -91.373       -4.706      -15.122       14.384       13.650        8.882      206.885      186.324       78.892        0.454        0.024       91.494        7.308        0.006      338.274       10.816      868.122
11/06/2013  18:32:00      -75.037      -11.824      -16.440       14.974       12.413        6.878      224.206      154.088       47.303        0.323        0.021       75.963        2.878        0.001      338.272       10.811      868.151
11/06/2013  18:33:00     -111.266      -10.365      -21.577       13.592        9.388        8.421      184.752       88.127       70.914        0.665        0.017      111.748        4.122        0.001      338.394       11.016      868.182
11/06/2013  18:34:00      -89.030      -18.794      -11.019       36.246       22.434       12.884     1313.789      503.279      166.002        0.519        0.099       90.992        9.031        0.010      338.505       11.202      868.204
11/06/2013  18:35:00      -76.960      -30.836       -5.133       33.501       15.179       20.560     1122.339      230.414      422.704        0.434        0.089       82.908       23.168        0.078      338.170       10.639      868.231
11/06/2013  18:36:00     -110.698       -5.811      -17.899       14.200       13.504       14.895      201.635      182.371      221.860        0.661        0.030      110.850        9.519        0.007      338.103       10.526      868.266
11/06/2013  18:37:00     -100.855      -17.534      -22.015        8.120       11.936        7.862       65.938      142.462       61.804        0.562        0.014      102.368        3.519        0.001      338.127       10.567      868.283
11/06/2013  18:38:00     -101.276      -13.751      -18.349        7.128       13.467        7.264       50.809      181.365       52.766        0.553        0.014      102.205        5.204        0.003      338.151       10.607      868.304
11/06/2013  18:39:00     -104.235      -17.248      -18.264       10.982       11.792        8.190      120.609      139.043       67.074        0.591        0.016      105.652        6.125        0.003      338.199       10.688      868.309
11/06/2013  18:40:00      -74.660      -47.551      -13.300       26.775       28.053       17.370      716.921      786.948      301.702        0.491        0.090       88.516        9.842        0.012      338.097       10.517      868.310
11/06/2013  18:41:00      -73.545      -23.079      -14.062       29.954       12.188       12.868      897.259      148.546      165.587        0.368        0.061       77.081       15.087        0.038      337.952       10.274      868.311
11/06/2013  18:42:00      -39.554      -40.310      -17.216       23.201       26.837       19.387      538.279      720.228      375.840        0.256        0.082       56.475       17.751        0.099      337.981       10.323      868.306
11/06/2013  18:43:00      -75.351      -13.602      -12.327       32.637       32.644       16.323     1065.185     1065.654      266.452        0.421        0.120       76.569       15.664        0.042      337.974       10.310      868.316
11/06/2013  18:44:00      -62.630      -18.347       -8.295       29.978       23.524       15.144      898.708      553.356      229.350        0.300        0.084       65.262        9.708        0.022      337.906       10.197      868.309
11/06/2013  18:45:00     -106.094      -15.411       -8.379       39.220       30.457       16.669     1538.216      927.621      277.846        0.715        0.137      107.207       16.424        0.023      337.960       10.287      868.305
11/06/2013  18:46:00      -85.774      -13.603       -4.769       33.362       26.654       19.038     1113.030      710.416      362.446        0.488        0.109       86.846       18.855        0.047      337.971       10.304      868.305
11/06/2013  18:47:00      -66.549      -12.684       -5.758       24.599       15.718       13.992      605.117      247.060      195.777        0.284        0.052       67.747       14.653        0.047      337.973       10.309      868.301
11/06/2013  18:48:00      -66.557       -9.732       -7.208       20.261       23.745       15.796      410.519      563.848      249.506        0.290        0.061       67.265       11.642        0.030      337.968       10.301      868.312
11/06/2013  18:49:00      -79.767      -10.451      -11.005       18.638       22.785       18.129      347.362      519.157      328.664        0.389        0.060       80.448       10.325        0.016      337.891       10.171      868.311
11/06/2013  18:50:00      -74.392      -11.979      -18.774       19.496       18.292       12.617      380.086      334.603      159.201        0.345        0.044       75.351        9.680        0.017      337.929       10.235      868.324
11/06/2013  18:51:00      -84.730      -14.242      -12.529       17.776       23.259       13.097      315.978      540.960      171.522        0.428        0.051       85.918        4.586        0.003      337.885       10.162      868.329
11/06/2013  18:52:00      -93.585      -17.261      -15.912       24.954       16.480       11.928      622.701      271.577      142.283        0.517        0.052       95.163        7.616        0.006      337.827       10.063      868.350
11/06/2013  18:53:00      -95.150       -7.759      -12.879       30.336       17.925       15.374      920.283      321.289      236.345        0.538        0.074       95.466        4.720        0.002      337.806       10.029      868.360
11/06/2013  18:54:00     -100.834      -16.113       -9.112       34.779       22.929       15.653     1209.545      525.747      245.004        0.624        0.099      102.113       14.433        0.020      337.785        9.992      868.370
11/06/2013  18:55:00      -87.640      -26.341      -11.574       32.045       22.746       13.961     1026.859      517.368      194.907        0.512        0.087       91.513       10.367        0.013      337.758        9.948      868.374
11/06/2013  18:56:00      -51.711      -34.592       -2.631       32.250       25.828       15.913     1040.053      667.082      253.238        0.292        0.098       62.214       13.476        0.047      337.789       10.002      868.382
11/06/2013  18:57:00      -76.657      -23.737      -17.562       19.586       20.298       13.673      383.613      411.989      186.962        0.387        0.049       80.248        9.308        0.013      337.865       10.128      868.384
11/06/2013  18:58:00      -87.864       -9.060      -15.647       18.256       16.783       14.381      333.285      281.672      206.824        0.443        0.041       88.330       11.805        0.018      337.890       10.170      868.375
11/06/2013  18:59:00      -84.491        0.614      -15.782       15.435       19.615       11.549      238.227      384.752      133.374        0.407        0.038       84.493        8.784        0.011      337.934       10.244      868.379
11/06/2013  19:00:00      -71.329      -14.846      -12.746       19.153       20.168       12.566      366.825      406.740      157.901        0.320        0.047       72.858       11.677        0.026      337.959       10.284      868.378
11/06/2013  19:01:00      -69.428      -13.308      -14.439       17.286       16.266       13.205      298.797      264.593      174.373        0.297        0.037       70.691       10.306        0.021      337.956       10.279      868.380
11/06/2013  19:02:00      -86.348      -15.206      -17.214       28.009       17.919       12.632      784.507      321.102      159.560        0.462        0.063       87.676       11.387        0.017      337.992       10.340      868.379
11/06/2013  19:03:00      -91.335      -12.262      -16.642       16.594       11.431       13.005      275.374      130.667      169.138        0.467        0.029       92.154        9.309        0.010      337.891       10.172      868.388
11/06/2013  19:04:00      -96.872      -28.561      -15.050       18.364       18.592       15.864      337.223      345.675      251.669        0.568        0.047      100.995        5.298        0.003      337.836       10.080      868.401
11/06/2013  19:05:00      -84.594      -45.056      -19.941       17.858       20.762       13.180      318.925      431.079      173.723        0.525        0.046       95.844       11.805        0.015      337.744        9.924      868.396
11/06/2013  19:06:00      -84.942      -44.629      -15.243       17.264       27.666       25.520      298.061      765.431      651.270        0.558        0.086       95.952       10.725        0.012      337.733        9.905      868.403
11/06/2013  19:07:00      -82.203      -29.440      -12.599       21.356       22.591       16.945      456.061      510.364      287.147        0.452        0.063       87.316       13.536        0.024      337.745        9.927      868.397
11/06/2013  19:08:00     -102.674      -37.686      -20.567       18.794       18.574       14.593      353.200      345.008      212.952        0.665        0.046      109.372        6.013        0.003      337.714        9.876      868.397
11/06/2013  19:09:00     -115.435      -64.071      -21.517       17.193       17.684       12.354      295.587      312.721      152.616        0.933        0.038      132.024        7.725        0.003      337.737        9.913      868.401
11/06/2013  19:10:00     -119.196      -67.594      -20.533       16.178       22.613       11.707      261.712      511.353      137.058        1.005        0.046      137.028        7.834        0.003      337.654        9.775      868.402
11/06/2013  19:11:00      -70.806      -69.026       -4.260       41.802       25.775       28.209     1747.385      664.351      795.771        0.650        0.160       98.884       24.042        0.059      337.640        9.752      868.403
11/06/2013  19:12:00      -80.088      -66.001       -4.428       34.952       29.449       20.260     1221.648      867.221      410.474        0.664        0.125      103.779       20.681        0.040      337.615        9.709      868.399
11/06/2013  19:13:00     -107.901      -53.631      -15.982       14.331       14.585       12.761      205.386      212.726      162.844        0.768        0.029      120.494        5.898        0.002      337.596        9.678      868.397
11/06/2013  19:14:00      -74.928      -46.800       -3.796       36.210       23.761       19.462     1311.167      564.593      378.760        0.504        0.113       88.343       22.846        0.067      337.656        9.778      868.396
11/06/2013  19:15:00      -93.398      -30.474      -10.005       16.956       20.994       10.298      287.500      440.740      106.050        0.529        0.042       98.244        5.113        0.003      337.592        9.668      868.381
11/06/2013  19:16:00      -80.333      -42.052       -4.495       16.958       19.220       10.256      287.586      369.423      105.175        0.450        0.038       90.674        7.963        0.008      337.705        9.858      868.390
11/06/2013  19:17:00      -66.748      -39.756       -2.700       35.020       15.909       12.910     1226.372      253.110      166.674        0.384        0.082       77.691       18.241        0.055      337.720        9.885      868.395
11/06/2013  19:18:00      -42.281      -30.063        0.406       25.638       15.364       11.072      657.313      236.066      122.596        0.185        0.051       51.880       13.309        0.066      337.717        9.878      868.405
11/06/2013  19:19:00      -77.685      -23.496      -12.897       12.199       14.862        9.656      148.815      220.893       93.238        0.361        0.023       81.161        7.060        0.008      337.697        9.845      868.408
11/06/2013  19:20:00      -95.624      -15.751      -11.892       16.212        9.143       12.356      262.829       83.602      152.663        0.502        0.025       96.912        9.855        0.010      337.732        9.905      868.405
11/06/2013  19:21:00     -111.392      -10.927      -21.110       12.428       13.527        9.801      154.466      182.985       96.057        0.670        0.022      111.927        6.261        0.003      337.695        9.842      868.405
11/06/2013  19:22:00      -98.662      -11.081      -15.994       11.411       12.301       10.835      130.208      151.315      117.405        0.526        0.020       99.283        6.902        0.005      337.623        9.724      868.403
11/06/2013  19:23:00     -115.627       -8.954      -19.656       10.946       10.072        8.361      119.812      101.442       69.912        0.706        0.015      115.973        2.023        0.000      337.631        9.735      868.401
11/06/2013  19:24:00      -97.239      -13.572      -11.415       17.930       16.976       12.918      321.480      288.174      166.869        0.527        0.039       98.182       11.698        0.014      337.587        9.661      868.421
11/06/2013  19:25:00      -87.252      -26.415       -7.094       21.437       23.061       17.270      459.530      531.831      298.254        0.483        0.064       91.163       13.074        0.021      337.554        9.607      868.422
11/06/2013  19:26:00     -113.547      -11.342      -20.833       20.781       16.981       17.456      431.859      288.351      304.715        0.724        0.051      114.112       13.177        0.013      337.441        9.418      868.428
11/06/2013  19:27:00      -67.048      -37.807      -12.768       22.791       15.656       13.438      519.422      245.110      180.575        0.352        0.047       76.973        6.031        0.006      337.469        9.463      868.438
11/06/2013  19:28:00      -51.179      -36.619      -10.458       24.229       20.695       12.849      587.021      428.266      165.102        0.262        0.059       62.930        4.809        0.006      337.590        9.665      868.424
11/06/2013  19:29:00      -66.654      -24.238      -11.357       21.723       19.392       13.631      471.871      376.032      185.798        0.310        0.052       70.924       13.389        0.036      337.546        9.593      868.417
11/06/2013  19:30:00      -90.765      -17.757      -23.629       17.639       16.380       16.514      311.148      268.288      272.706        0.498        0.043       92.485        8.569        0.009      337.506        9.526      868.413
11/06/2013  19:31:00      -79.191      -20.140      -11.523        9.844       18.381       11.329       96.897      337.878      128.349        0.369        0.028       81.712        4.648        0.003      337.504        9.523      868.395
11/06/2013  19:32:00      -87.143      -14.531      -14.249       16.506       15.321       11.552      272.461      234.747      133.450        0.432        0.032       88.346        6.104        0.005      337.429        9.397      868.382
11/06/2013  19:33:00     -112.753      -17.792      -19.322       15.728       15.780       12.823      247.366      249.017      164.428        0.703        0.033      114.148        4.924        0.002      337.361        9.283      868.396
11/06/2013  19:34:00     -133.951      -20.718      -15.687       22.020       30.465       19.507      484.867      928.112      380.525        1.021        0.090      135.543       11.992        0.008      337.352        9.269      868.401
11/06/2013  19:35:00     -120.391      -41.079      -13.312       30.231       34.643       20.263      913.900     1200.131      410.574        0.944        0.126      127.207       16.659        0.017      337.349        9.263      868.401
11/06/2013  19:36:00     -101.371      -42.139      -13.270       36.635       23.674       19.319     1342.087      560.441      373.222        0.725        0.114      109.781       14.308        0.017      337.415        9.373      868.407
11/06/2013  19:37:00      -69.353      -49.122       -4.063       48.793       35.407       25.157     2380.766     1253.688      632.851        0.575        0.213       84.987       32.725        0.148      337.392        9.333      868.405
11/06/2013  19:38:00      -53.815      -44.674        1.960       39.803       34.706       26.011     1584.307     1204.506      676.547        0.418        0.173       69.942       22.141        0.100      337.360        9.281      868.407
11/06/2013  19:39:00     -109.537      -31.464        1.520       41.634       24.834       20.528     1733.425      616.711      421.406        0.788        0.139      113.967       21.946        0.037      337.370        9.298      868.417
11/06/2013  19:40:00      -96.109      -37.454       -0.772       34.832       35.602       17.119     1213.249     1267.481      293.051        0.671        0.139      103.149       16.678        0.026      337.369        9.295      868.427
11/06/2013  19:41:00     -110.659      -32.187       -7.539       28.645       21.604       16.389      820.554      466.734      268.583        0.745        0.078      115.245       15.829        0.019      337.287        9.161      868.424
11/06/2013  19:42:00     -100.415      -28.144       -4.448       34.755       24.402       21.164     1207.910      595.436      447.930        0.657        0.113      104.284       19.517        0.035      337.331        9.234      868.418
11/06/2013  19:43:00      -95.875      -22.454       -5.196       31.503       15.751       15.368      992.410      248.098      236.190        0.560        0.074       98.470       16.867        0.029      337.347        9.260      868.416
11/06/2013  19:44:00      -99.632      -41.438       -6.141       20.027       22.255       13.989      401.076      495.306      195.687        0.639        0.055      107.906       10.378        0.009      337.411        9.366      868.410
11/06/2013  19:45:00     -107.320      -35.290      -13.163       12.264       18.969        9.498      150.416      359.804       90.204        0.677        0.030      112.973        8.533        0.006      337.396        9.342      868.404
11/06/2013  19:46:00     -107.949      -34.561      -13.561       13.144       13.686       10.965      172.769      187.296      120.238        0.676        0.024      113.347        6.017        0.003      337.446        9.425      868.402
11/06/2013  19:47:00     -100.979      -47.916       -7.821       12.255        8.221        9.000      150.190       67.581       80.995        0.643        0.015      111.771        6.943        0.004      337.490        9.500      868.409
11/06/2013  19:48:00     -109.049      -47.131       -6.475       23.975       17.152       12.420      574.812      294.187      154.264        0.759        0.051      118.798       11.182        0.009      337.476        9.474      868.408
11/06/2013  19:49:00     -118.287      -46.752       -7.496       12.816       17.685       10.498      164.250      312.773      110.199        0.841        0.029      127.191        8.127        0.004      337.441        9.417      868.408
11/06/2013  19:50:00     -113.879      -56.310       -8.413       19.087       16.258       11.249      364.297      264.332      126.531        0.848        0.038      127.040       11.133        0.008      337.393        9.337      868.418
11/06/2013  19:51:00     -127.401      -54.966       -9.695       12.972       12.002        7.379      168.278      144.045       54.447        0.986        0.018      138.752        5.004        0.001      337.434        9.407      868.413
11/06/2013  19:52:00     -135.237      -48.730      -14.732        9.394        8.445        7.081       88.240       71.323       50.136        1.055        0.010      143.748        2.818        0.000      337.460        9.449      868.401
11/06/2013  19:53:00     -104.128      -53.357       -9.472       12.479       11.582       10.034      155.734      134.143      100.676        0.708        0.020      117.002        5.613        0.002      337.384        9.320      868.396
11/06/2013  19:54:00      -95.260      -51.103      -11.303       11.848       10.951        8.002      140.382      119.932       64.028        0.607        0.016      108.101        4.011        0.001      337.391        9.333      868.399
11/06/2013  19:55:00      -93.951      -42.748      -12.061       11.884        8.213       10.847      141.225       67.451      117.654        0.556        0.016      103.219        3.261        0.001      337.403        9.354      868.397
11/06/2013  19:56:00      -98.814      -32.534       -8.625       16.343       15.701       13.405      267.102      246.535      179.693        0.580        0.035      104.032       10.729        0.011      337.331        9.233      868.387
11/06/2013  19:57:00     -119.325      -22.819      -14.450       31.308       18.585       16.573      980.216      345.419      274.664        0.828        0.080      121.488       16.593        0.019      337.264        9.121      868.385
11/06/2013  19:58:00     -116.847      -34.287       -6.576       16.044       14.606       11.925      257.408      213.336      142.205        0.774        0.031      121.774        8.878        0.005      337.222        9.051      868.393
11/06/2013  19:59:00     -104.001      -39.177      -12.372       12.837       13.151        8.713      164.796      172.950       75.918        0.646        0.021      111.135        7.988        0.005      337.243        9.085      868.398
11/06/2013  20:00:00      -94.690      -55.834       -8.663       19.631       14.284       13.875      385.383      204.024      192.516        0.647        0.039      109.926        5.544        0.003      337.226        9.059      868.394
11/06/2013  20:01:00      -90.930      -42.660       -6.414       12.136       14.530       12.473      147.278      211.109      155.575        0.532        0.026      100.440        7.950        0.006      337.222        9.052      868.397
11/06/2013  20:02:00      -96.820      -25.543      -11.264       10.198       12.833       10.009      104.000      164.687      100.173        0.526        0.018      100.133        5.144        0.003      337.244        9.088      868.413
11/06/2013  20:03:00      -82.693      -26.629      -13.374        9.862       11.035        8.262       97.268      121.762       68.256        0.401        0.014       86.874        6.238        0.005      337.286        9.158      868.425
11/06/2013  20:04:00     -116.813      -16.295      -15.443       11.703       12.449       11.472      136.961      154.973      131.606        0.729        0.021      117.944        8.277        0.005      337.279        9.146      868.421
11/06/2013  20:05:00     -108.503      -30.995      -11.923       17.832       18.044       12.128      317.990      325.583      147.091        0.683        0.040      112.844        6.656        0.003      337.263        9.118      868.428
11/06/2013  20:06:00      -99.244      -28.126       -9.163        9.305       21.381        8.876       86.590      457.132       78.791        0.567        0.031      103.152        5.186        0.003      337.228        9.061      868.445
11/06/2013  20:07:00      -87.139      -26.554      -13.364       12.499       17.505       10.118      156.226      306.438      102.380        0.452        0.028       91.096        8.229        0.008      337.215        9.039      868.467
11/06/2013  20:08:00     -105.330      -31.022      -20.567       14.600       13.543       11.043      213.161      183.410      121.955        0.650        0.026      109.803        5.478        0.002      337.228        9.060      868.472
11/06/2013  20:09:00      -99.863      -38.801      -13.146       16.029       12.975       10.021      256.935      168.359      100.415        0.609        0.026      107.136        5.976        0.003      337.207        9.025      868.478
11/06/2013  20:10:00      -97.482      -27.374       -9.416       30.918       21.708       13.865      955.943      471.223      192.232        0.598        0.081      101.253       14.323        0.020      337.138        8.909      868.496
11/06/2013  20:11:00     -117.925      -15.122      -11.739       31.002       22.764       19.404      961.129      518.203      376.504        0.806        0.093      118.891       18.798        0.025      337.050        8.763      868.500
11/06/2013  20:12:00     -114.370      -20.789      -13.789       22.925       19.210       13.040      525.558      369.010      170.037        0.738        0.053      116.244        6.214        0.003      337.007        8.690      868.494
11/06/2013  20:13:00      -94.034      -27.398       -9.203       23.864       23.922       18.464      569.485      572.273      340.908        0.558        0.074       97.944       16.182        0.027      337.046        8.755      868.496
11/06/2013  20:14:00     -102.916      -12.128       -8.788       24.954       24.123       16.572      622.723      581.923      274.625        0.615        0.074      103.629       10.122        0.010      337.061        8.779      868.485
11/06/2013  20:15:00     -100.609       -8.499      -10.991       27.926       27.669       18.295      779.877      765.550      334.704        0.610        0.094      100.967       16.145        0.026      337.085        8.818      868.480
11/06/2013  20:16:00      -82.887      -24.601       -6.556       30.592       30.038       18.437      935.887      902.272      339.913        0.485        0.109       86.461       15.812        0.033      337.072        8.799      868.486
11/06/2013  20:17:00      -65.827      -17.385      -12.485       17.769       15.705       12.458      315.733      246.658      155.213        0.275        0.036       68.084        9.316        0.019      337.135        8.902      868.485
11/06/2013  20:18:00      -54.053      -14.295      -12.958       12.196       13.430       11.222      148.739      180.362      125.935        0.187        0.023       55.911        7.578        0.018      337.315        9.206      868.490
11/06/2013  20:19:00      -67.680      -31.148      -19.647        9.820       14.538        8.176       96.440      211.345       66.848        0.316        0.019       74.503        5.181        0.005      337.115        8.872      868.503
11/06/2013  20:20:00      -56.533      -27.331      -15.994       14.879       15.441       11.819      221.398      238.436      139.687        0.240        0.030       62.793        7.395        0.014      337.176        8.973      868.508
11/06/2013  20:21:00      -41.866      -21.635      -11.483       20.187       10.586       11.568      407.522      112.060      133.812        0.150        0.033       47.126        5.246        0.012      337.238        9.078      868.525
11/06/2013  20:22:00      -48.421      -29.892      -12.009       14.041       14.072       11.594      197.162      198.022      134.431        0.196        0.026       56.904        7.124        0.016      337.278        9.144      868.528
11/06/2013  20:23:00      -66.647      -33.109      -12.161        8.554        7.289        8.257       73.163       53.123       68.185        0.294        0.010       74.418        4.839        0.004      337.116        8.871      868.531
11/06/2013  20:24:00      -65.808      -31.112      -15.518        9.390        5.363        5.590       88.176       28.762       31.245        0.284        0.007       72.792        2.497        0.001      337.119        8.877      868.518
11/06/2013  20:25:00      -89.361      -29.039      -13.234        7.360        5.380        5.058       54.169       28.943       25.583        0.456        0.005       93.961        3.228        0.001      337.204        9.020      868.510
11/06/2013  20:26:00      -83.230      -24.935      -14.370        6.556        8.725        5.062       42.981       76.130       25.627        0.395        0.007       86.885        2.275        0.001      337.232        9.066      868.514
11/06/2013  20:27:00      -66.376      -28.955       -9.167       11.748       11.762        9.036      138.023      138.350       81.653        0.284        0.018       72.417        4.537        0.004      337.231        9.064      868.505
11/06/2013  20:28:00      -34.160      -24.030       -0.955       15.618        8.597       10.630      243.914       73.910      113.005        0.109        0.022       41.765        9.054        0.047      337.203        9.019      868.517
11/06/2013  20:29:00      -68.160      -24.897      -11.577        8.494        6.621        5.270       72.150       43.840       27.774        0.277        0.007       72.565        1.650        0.001      337.346        9.258      868.519
11/06/2013  20:30:00      -80.964      -22.929      -12.664        8.988        8.138        6.267       80.791       66.228       39.279        0.371        0.009       84.148        2.303        0.001      337.221        9.049      868.525
11/06/2013  20:31:00      -88.201      -24.419      -12.172       14.740       12.986        8.522      217.255      168.647       72.625        0.449        0.023       91.519        7.150        0.006      337.209        9.030      868.531
11/06/2013  20:32:00      -99.362      -22.868      -13.848        7.156        9.187        8.278       51.209       84.406       68.528        0.540        0.010      101.960        3.350        0.001      337.175        8.970      868.528
11/06/2013  20:33:00     -120.620       -8.652      -20.288       18.896       17.729       13.016      357.078      314.305      169.418        0.794        0.042      120.930       10.962        0.008      337.087        8.823      868.547
11/06/2013  20:34:00     -119.656      -39.249      -12.248       20.954       21.049       14.018      439.055      443.080      196.496        0.854        0.054      125.929       11.135        0.008      336.940        8.577      868.554
11/06/2013  20:35:00     -144.400       -9.822      -13.548       29.561       18.743       20.457      873.836      351.313      418.502        1.139        0.082      144.733       17.602        0.015      336.786        8.324      868.569
11/06/2013  20:36:00     -146.382      -35.698       -8.422       31.770       32.470       20.442     1009.315     1054.277      417.892        1.263        0.124      150.672       16.042        0.011      336.699        8.178      868.600
11/06/2013  20:37:00     -111.717      -47.879       -7.858       30.801       38.948       21.273      948.698     1516.985      452.552        0.888        0.146      121.544       17.411        0.021      336.763        8.285      868.608
11/06/2013  20:38:00      -76.588      -16.247      -12.054       28.014       18.478       16.131      784.804      341.450      260.217        0.383        0.069       78.292       10.697        0.019      336.739        8.245      868.617
11/06/2013  20:39:00      -91.323      -24.763      -10.429       22.397       16.540       15.100      501.606      273.571      228.011        0.503        0.050       94.621       11.094        0.014      336.762        8.282      868.636
11/06/2013  20:40:00      -72.887      -41.745       -8.572       14.307       11.169        6.357      204.701      124.754       40.408        0.375        0.018       83.995        3.116        0.001      336.898        8.509      868.636
11/06/2013  20:41:00      -69.006      -42.070       -0.762       37.327       19.483       19.172     1393.290      379.586      367.561        0.434        0.107       80.819       21.151        0.068      336.918        8.543      868.625
11/06/2013  20:42:00      -78.751      -45.976        0.347       27.136       22.197       13.245      736.354      492.706      175.419        0.486        0.070       91.189       14.094        0.024      336.916        8.537      868.630
11/06/2013  20:43:00      -88.135      -61.674        0.470       31.021       17.073       14.880      962.291      291.486      221.427        0.652        0.074      107.571       10.496        0.010      336.885        8.488      868.622
11/06/2013  20:44:00     -113.504      -55.625       -7.920       23.589       17.844       12.916      556.459      318.402      166.828        0.854        0.052      126.401       10.976        0.008      336.860        8.445      868.618
11/06/2013  20:45:00     -106.977      -54.974       -2.426       27.684       24.598       18.003      766.430      605.051      324.121        0.808        0.085      120.276       14.850        0.015      336.870        8.462      868.622
11/06/2013  20:46:00      -95.354      -47.482        2.981       40.573       21.369       17.070     1646.170      456.641      291.402        0.687        0.120      106.522       16.598        0.024      336.825        8.388      868.610
11/06/2013  20:47:00      -77.930      -42.221        0.984       30.338       22.599       16.659      920.406      510.712      277.533        0.478        0.085       88.632       12.321        0.019      336.829        8.395      868.608
11/06/2013  20:48:00      -96.025      -23.901       -1.643       26.246       20.339       15.565      688.866      413.691      242.255        0.557        0.067       98.955       13.047        0.017      336.834        8.401      868.622
11/06/2013  20:49:00     -107.973      -36.123       -4.718       14.823       17.746       10.838      219.715      314.932      117.470        0.682        0.033      113.855        8.659        0.006      336.852        8.432      868.625
11/06/2013  20:50:00      -95.270      -44.407      -10.557       15.756       17.613       12.992      248.243      310.234      168.799        0.594        0.036      105.111       10.122        0.009      336.882        8.481      868.630
11/06/2013  20:51:00     -110.040      -34.799      -14.883       12.600       13.062        8.692      158.755      170.619       75.548        0.697        0.020      115.412        6.058        0.003      336.878        8.474      868.646
11/06/2013  20:52:00      -84.387      -53.905      -18.948       17.832       16.643       10.550      317.994      276.974      111.295        0.555        0.035      100.135        6.627        0.004      336.779        8.310      868.645
11/06/2013  20:53:00      -97.180      -65.708       -7.969       33.472       25.372       15.257     1120.371      643.755      232.773        0.791        0.100      117.309        8.415        0.005      336.709        8.196      868.642
11/06/2013  20:54:00     -102.240      -60.920       -4.760       27.484       18.761       16.731      755.384      351.980      279.910        0.779        0.069      119.014       10.512        0.008      336.681        8.148      868.639
11/06/2013  20:55:00      -49.835      -36.112       -1.409       33.829       22.805       16.202     1144.424      520.069      262.489        0.286        0.096       61.543        8.897        0.021      336.650        8.095      868.639
11/06/2013  20:56:00      -55.442      -36.796       -5.984       18.823       15.353       15.175      354.308      235.713      230.278        0.264        0.041       66.542       13.437        0.041      336.647        8.089      868.651
11/06/2013  20:57:00      -71.908      -31.428      -14.505       11.821       14.005       12.407      139.747      196.148      153.934        0.343        0.024       78.476        3.635        0.002      336.729        8.227      868.665
11/06/2013  20:58:00      -87.277      -40.034      -18.203       27.006       16.039       15.293      729.350      257.251      233.885        0.539        0.061       96.021       13.384        0.019      336.737        8.241      868.670
11/06/2013  20:59:00      -61.976      -49.228        0.388       27.913       20.692       20.573      779.125      428.140      423.234        0.395        0.082       79.148       17.846        0.051      336.685        8.154      868.686
11/06/2013  21:00:00     -100.429      -62.585      -10.036       20.161       20.178       13.433      406.476      407.145      180.441        0.755        0.050      118.333        9.941        0.007      336.747        8.257      868.699
11/06/2013  21:01:00     -114.879      -51.050      -11.511       17.836       13.815       12.817      318.107      190.842      164.281        0.830        0.034      125.711        8.717        0.005      336.708        8.191      868.688
11/06/2013  21:02:00     -112.498      -42.173      -12.156       20.974       14.287       10.473      439.913      204.104      109.682        0.767        0.038      120.143        9.724        0.007      336.691        8.164      868.687
11/06/2013  21:03:00     -122.355      -37.112       -9.048       19.322       14.986       12.520      373.350      224.585      156.758        0.859        0.038      127.859       10.522        0.007      336.697        8.174      868.688
11/06/2013  21:04:00     -120.053      -38.295      -16.414       16.494       15.851       14.044      272.058      251.247      197.231        0.843        0.036      126.013        8.211        0.004      336.634        8.069      868.682
11/06/2013  21:05:00     -113.498      -27.132      -10.450       29.963       20.409       20.270      897.768      416.516      410.875        0.773        0.086      116.696       16.778        0.021      336.575        7.970      868.691
11/06/2013  21:06:00     -102.502      -33.201       -7.079       22.387       21.462       15.873      501.158      460.636      251.962        0.644        0.061      107.745       11.738        0.012      336.531        7.895      868.692
11/06/2013  21:07:00     -109.674      -45.522      -13.302       23.368       22.485       13.942      546.044      505.585      194.376        0.776        0.062      118.746        8.659        0.005      336.507        7.857      868.693
11/06/2013  21:08:00      -95.400      -43.142       -8.817       21.682       22.870       12.312      470.124      523.055      151.583        0.609        0.057      104.701        6.736        0.004      336.534        7.901      868.709
11/06/2013  21:09:00      -31.527      -37.770        3.861       36.970       28.208       22.073     1366.755      795.704      487.210        0.254        0.132       49.199       17.449        0.126      336.617        8.041      868.717
11/06/2013  21:10:00      -82.272      -24.280        4.030       23.693       17.854       16.424      561.373      318.780      269.754        0.426        0.057       85.780       15.129        0.031      336.551        7.929      868.716
11/06/2013  21:11:00      -61.544      -35.458       -6.546       15.997       13.754       11.293      255.897      189.186      127.528        0.283        0.029       71.028        5.114        0.005      336.623        8.049      868.726
11/06/2013  21:12:00      -70.754      -26.572       -6.302       21.064       16.277        9.379      443.686      264.936       87.970        0.327        0.040       75.579        2.025        0.001      336.630        8.062      868.716
11/06/2013  21:13:00      -95.427      -28.486      -13.572       11.752       12.642       10.384      138.108      159.820      107.822        0.525        0.020       99.588        5.927        0.004      336.669        8.127      868.709
11/06/2013  21:14:00      -96.960      -33.042      -15.793        8.378       11.558        9.363       70.189      133.597       87.673        0.552        0.015      102.435        8.213        0.006      336.680        8.146      868.702
11/06/2013  21:15:00      -96.121      -34.779      -16.810       13.973       14.656        8.182      195.255      214.788       66.942        0.560        0.024      102.220        3.923        0.001      336.614        8.036      868.687
11/06/2013  21:16:00      -78.836      -47.588      -10.563       21.303       14.373       11.160      453.806      206.577      124.552        0.469        0.039       92.085        7.860        0.007      336.651        8.097      868.681
11/06/2013  21:17:00      -76.090      -51.238      -12.968       19.146       17.580        9.337      366.562      309.053       87.188        0.467        0.038       91.733        7.996        0.008      336.651        8.097      868.688
11/06/2013  21:18:00      -45.604      -51.482       -0.206       30.732       23.667       15.353      944.484      560.140      235.702        0.323        0.087       68.775       16.158        0.055      336.631        8.064      868.685
11/06/2013  21:19:00     -102.091      -41.784      -15.742       20.940       15.366        8.682      438.471      236.113       75.377        0.658        0.037      110.311        8.236        0.006      336.624        8.053      868.686
11/06/2013  21:20:00     -115.643      -36.552      -13.256       14.262       14.263       12.793      203.404      203.436      163.651        0.773        0.029      121.282        7.828        0.004      336.651        8.097      868.692
11/06/2013  21:21:00     -122.597      -37.490      -19.064       19.242       14.185       10.330      370.245      201.218      106.718        0.874        0.034      128.201        9.203        0.005      336.688        8.159      868.681
11/06/2013  21:22:00     -131.861      -42.213      -18.722       11.917        7.388       10.103      142.021       54.585      102.061        0.991        0.015      138.454        5.703        0.002      336.713        8.202      868.679
11/06/2013  21:23:00     -126.950      -48.520      -11.965       17.657       13.425        9.027      311.774      180.221       81.484        0.959        0.029      135.906        6.542        0.002      336.615        8.038      868.690
11/06/2013  21:24:00     -123.211      -61.465       -5.453       26.884       18.721       15.095      722.756      350.459      227.851        1.014        0.065      137.691       15.598        0.013      336.574        7.968      868.683
11/06/2013  21:25:00     -115.651      -59.221       -8.801       18.240       21.704       13.716      332.702      471.081      188.117        0.898        0.050      129.932       11.106        0.007      336.564        7.950      868.687
11/06/2013  21:26:00     -103.459      -52.393       -2.516       27.693       24.119       14.592      766.883      581.726      212.939        0.751        0.078      115.969       12.518        0.012      336.562        7.948      868.705
11/06/2013  21:27:00      -78.270      -42.245       -1.003       34.367       17.033       16.408     1181.079      290.122      269.207        0.483        0.087       88.943       13.594        0.023      336.565        7.952      868.703
11/06/2013  21:28:00      -65.056      -35.683       -6.679       22.721       14.844       10.968      516.263      220.337      120.293        0.320        0.043       74.199        8.983        0.015      336.598        8.008      868.706
11/06/2013  21:29:00      -78.969      -39.169      -14.037        9.266       11.415        8.667       85.863      130.293       75.121        0.413        0.015       88.149        5.102        0.003      336.587        7.989      868.714
11/06/2013  21:30:00      -82.207      -47.614       -6.574       17.257       14.937       10.306      297.792      223.109      106.209        0.485        0.031       95.001        4.511        0.002      336.608        8.026      868.703
11/06/2013  21:31:00      -81.101      -46.229       -9.359       19.032       10.651       11.855      362.220      113.439      140.540        0.471        0.031       93.352        5.702        0.004      336.523        7.884      868.692
11/06/2013  21:32:00      -74.203      -48.613       -6.797       13.867       11.272       11.470      192.295      127.066      131.567        0.418        0.023       88.709        6.326        0.005      336.548        7.923      868.692
11/06/2013  21:33:00      -61.647      -44.063       -5.972       16.558       10.195       11.167      274.182      103.943      124.712        0.314        0.025       75.775        9.029        0.014      336.597        8.006      868.692
11/06/2013  21:34:00      -58.503      -39.597       -4.330       21.862       12.661       14.865      477.952      160.313      220.981        0.293        0.043       70.643       11.976        0.029      336.693        8.167      868.685
11/06/2013  21:35:00      -36.612      -25.941       -4.487       30.726       22.546       13.763      944.063      508.328      189.410        0.184        0.082       44.870       14.522        0.105      336.609        8.026      868.682
11/06/2013  21:36:00      -80.475      -52.321        6.292       49.230       31.246       20.607     2423.565      976.335      424.634        0.654        0.191       95.988       20.614        0.046      336.517        7.873      868.685
11/06/2013  21:37:00     -136.197      -69.836       -8.432       31.553       23.811       18.686      995.610      566.975      349.181        1.270        0.096      153.057        9.569        0.004      336.488        7.825      868.676
11/06/2013  21:38:00     -101.148      -61.846        0.755       40.430       34.851       25.472     1634.566     1214.570      648.809        0.878        0.175      118.557       25.323        0.046      336.446        7.754      868.669
11/06/2013  21:39:00     -130.081      -64.783       -5.931       24.214       16.134       16.997      586.314      260.320      288.887        1.114        0.057      145.320        8.069        0.003      336.359        7.608      868.669
11/06/2013  21:40:00      -95.701      -52.312       -0.627       27.098       21.647       18.279      734.277      468.577      334.119        0.672        0.077      109.065       14.295        0.017      336.367        7.622      868.685
11/06/2013  21:41:00     -108.440      -48.357       -2.276       22.271       18.103       11.716      495.996      327.717      137.257        0.753        0.048      118.733       10.701        0.008      336.374        7.634      868.687
11/06/2013  21:42:00      -94.756      -56.357      -11.596       17.804       13.554        9.146      316.969      183.714       83.642        0.644        0.029      110.249        6.144        0.003      336.414        7.699      868.695
11/06/2013  21:43:00      -58.037      -45.976       -2.043       17.676       22.774       15.037      312.427      518.677      226.124        0.327        0.053       74.041       11.408        0.024      336.408        7.690      868.714
11/06/2013  21:44:00      -78.457      -56.758      -10.650       14.338       12.299        9.022      205.568      151.268       81.394        0.496        0.022       96.834        6.152        0.004      336.439        7.740      868.733
11/06/2013  21:45:00     -105.126      -45.139      -14.520       12.969       12.587       10.454      168.191      158.433      109.290        0.687        0.022      114.408        4.207        0.001      336.504        7.850      868.730
11/06/2013  21:46:00      -96.959      -45.500       -5.613       24.125       15.995       12.244      582.009      255.825      149.927        0.625        0.049      107.105        7.791        0.005      336.529        7.893      868.731
11/06/2013  21:47:00      -98.022      -32.989      -13.454       11.028       13.303        9.696      121.613      176.964       94.022        0.564        0.020      103.425        7.178        0.005      336.507        7.855      868.743
11/06/2013  21:48:00      -78.806      -16.258      -12.158       12.731       11.917       10.217      162.073      142.011      104.391        0.352        0.020       80.466        7.354        0.008      336.465        7.785      868.740
11/06/2013  21:49:00     -109.117      -33.212      -13.976        8.177       11.530        6.795       66.865      132.932       46.178        0.673        0.012      114.060        2.520        0.000      336.562        7.948      868.731
11/06/2013  21:50:00      -84.150      -47.797       -3.967       12.122       15.342       10.018      146.955      235.381      100.356        0.493        0.024       96.777        7.413        0.006      336.532        7.895      868.734
11/06/2013  21:51:00      -82.917      -43.029       -5.185       18.333       11.278       14.225      336.084      127.199      202.342        0.471        0.033       93.417       14.469        0.024      336.515        7.869      868.745
11/06/2013  21:52:00      -79.570      -49.553       -5.294       28.715       18.157       15.850      824.523      329.685      251.227        0.511        0.070       93.739       12.260        0.017      336.439        7.742      868.763
11/06/2013  21:53:00      -34.687      -35.452        2.142       32.142       21.665       19.343     1033.104      469.372      374.137        0.217        0.094       49.599       15.939        0.103      336.387        7.654      868.779
11/06/2013  21:54:00      -79.945      -42.759       -2.672       23.745       17.020       12.995      563.830      289.685      168.857        0.462        0.051       90.662       10.494        0.013      336.420        7.708      868.788
11/06/2013  21:55:00     -102.127      -43.125      -11.143       10.617        9.940        7.257      112.712       98.811       52.660        0.634        0.013      110.859        2.649        0.001      336.495        7.835      868.791
11/06/2013  21:56:00      -96.257      -42.616      -14.386        6.261        7.365        5.469       39.205       54.248       29.915        0.571        0.006      105.269        3.542        0.001      336.437        7.738      868.800
11/06/2013  21:57:00      -87.440      -49.576      -11.363       19.289       12.506       10.933      372.050      156.389      119.521        0.544        0.032      100.516        9.422        0.009      336.452        7.763      868.802
11/06/2013  21:58:00     -105.179      -52.714      -14.700       13.259       14.877       12.968      175.801      221.316      168.161        0.731        0.028      117.649        7.132        0.004      336.489        7.825      868.795
11/06/2013  21:59:00     -100.973      -58.231      -10.523       25.505       19.952       15.765      650.528      398.073      248.523        0.750        0.065      116.561       14.280        0.015      336.433        7.730      868.789
11/06/2013  22:00:00      -55.310      -41.986        1.885       32.417       28.682       19.681     1050.887      822.662      387.324        0.354        0.113       69.441       18.861        0.074      336.397        7.671      868.787
11/06/2013  22:01:00      -62.316      -39.737        2.463       31.919       21.744       17.310     1018.845      472.792      299.629        0.363        0.090       73.907       11.883        0.026      336.420        7.709      868.793
11/06/2013  22:02:00      -75.191      -52.302       -1.541       29.688       25.579       15.385      881.370      654.294      236.707        0.508        0.089       91.592       10.255        0.013      336.487        7.822      868.788
11/06/2013  22:03:00      -98.711      -39.802       -4.389       25.186       17.260       13.153      634.334      297.904      173.011        0.623        0.055      106.433       10.733        0.010      336.372        7.630      868.775
11/06/2013  22:04:00     -101.919      -30.872      -10.604       15.398       11.091        9.085      237.090      123.000       82.537        0.595        0.022      106.492        5.526        0.003      336.346        7.585      868.760
11/06/2013  22:05:00      -83.738      -40.581      -13.185       14.611       13.173       11.848      213.474      173.519      140.365        0.468        0.026       93.053        4.579        0.002      336.384        7.650      868.755
11/06/2013  22:06:00      -86.493      -51.167      -10.768       13.107       15.350        8.454      171.794      235.616       71.465        0.535        0.024      100.494        4.176        0.002      336.335        7.568      868.759
11/06/2013  22:07:00      -83.835      -46.370      -11.183        9.909       15.732        9.121       98.179      247.496       83.188        0.487        0.021       95.804        4.614        0.002      336.310        7.525      868.756
11/06/2013  22:08:00      -65.780      -53.947       -9.919       15.230       13.111       12.135      231.939      171.889      147.266        0.394        0.028       85.072        7.993        0.009      336.300        7.510      868.758
11/06/2013  22:09:00      -16.138      -20.701       -1.060       23.959       21.082       12.667      574.052      444.450      160.450        0.093        0.059       26.248        8.292        0.100      336.369        7.624      868.770
11/06/2013  22:10:00      -25.261      -17.559        6.569       27.575       19.273       16.079      760.379      371.467      258.530        0.119        0.070       30.764       18.564        0.364      336.375        7.635      868.775
11/06/2013  22:11:00      -68.328      -45.787        0.101       30.959       19.063       15.459      958.447      363.381      238.979        0.416        0.078       82.251       11.543        0.020      336.325        7.551      868.781
11/06/2013  22:12:00     -113.796      -51.723      -10.916       23.087       18.865       14.389      533.005      355.870      207.043        0.842        0.055      124.999       12.690        0.010      336.282        7.477      868.779
11/06/2013  22:13:00     -104.091      -24.229      -16.271       13.556       10.200       11.321      183.778      104.043      128.157        0.605        0.021      106.874        7.168        0.004      336.277        7.470      868.774
11/06/2013  22:14:00      -93.956      -27.438      -13.289       13.086       13.356       12.606      171.240      178.391      158.918        0.513        0.025       97.880        7.145        0.005      336.255        7.434      868.765
11/06/2013  22:15:00     -104.692      -37.294      -14.267       10.846        9.751        7.935      117.631       95.082       62.961        0.642        0.014      111.136        4.795        0.002      336.330        7.558      868.762
11/06/2013  22:16:00     -107.430      -36.293      -14.153       10.576       11.817        8.825      111.862      139.648       77.876        0.669        0.016      113.394        6.673        0.003      336.370        7.626      868.763
11/06/2013  22:17:00     -102.300      -40.364      -10.114       12.020       12.334        7.170      144.478      152.128       51.412        0.627        0.017      109.975        5.400        0.002      336.336        7.570      868.766
11/06/2013  22:18:00      -92.042      -30.119       -9.947       14.822       13.020       10.706      219.690      169.518      114.609        0.499        0.025       96.845        6.807        0.005      336.292        7.496      868.776
11/06/2013  22:19:00      -63.834      -20.710       -8.250        9.237        7.762        4.852       85.326       60.247       23.538        0.237        0.008       67.109        0.954        0.000      336.280        7.477      868.782
11/06/2013  22:20:00      -49.759      -20.758       -7.939        6.171        5.662        5.269       38.077       32.055       27.764        0.153        0.005       53.916        3.651        0.005      336.337        7.572      868.798
11/06/2013  22:21:00      -32.945      -23.785       -7.268        9.739        7.093        6.343       94.839       50.307       40.228        0.094        0.009       40.634        6.554        0.026      336.441        7.742      868.789
11/06/2013  22:22:00      -29.086      -21.264       -4.545       17.611        7.161        9.838      310.133       51.281       96.782        0.089        0.023       36.030        5.664        0.025      336.465        7.784      868.777
11/06/2013  22:23:00      -53.408      -18.047       -4.491        9.189       11.233        6.846       84.440      126.191       46.866        0.173        0.013       56.375        2.515        0.002      336.316        7.537      868.771
11/06/2013  22:24:00      -51.261      -18.975       -5.689       12.607       11.055        6.741      158.924      122.215       45.437        0.167        0.016       54.661        4.815        0.008      336.395        7.668      868.761
11/06/2013  22:25:00      -49.738       -4.018       -8.178        8.024        7.799        5.590       64.380       60.821       31.251        0.136        0.008       49.900        2.415        0.002      336.414        7.699      868.751
11/06/2013  22:26:00       -4.594       24.878       -2.144       26.736       18.594        8.046      714.834      345.719       64.733        0.088        0.056       25.299        7.622        0.091      336.732        8.232      868.747
11/06/2013  22:27:00        7.214        2.919        0.383        9.721        3.944        3.462       94.496       15.552       11.988        0.009        0.006        7.782        3.027        0.151      336.849        8.427      868.749
11/06/2013  22:28:00      -30.443       -3.021       -6.100       19.429       11.703        9.308      377.501      136.952       86.644        0.079        0.030       30.593       11.253        0.135      336.574        7.967      868.749
11/06/2013  22:29:00      -65.664      -17.330      -11.840       11.485        5.790        5.599      131.894       33.528       31.352        0.247        0.010       67.912        2.221        0.001      336.291        7.495      868.751
11/06/2013  22:30:00      -94.887      -23.367      -12.108       14.943       14.004        8.525      223.299      196.107       72.668        0.509        0.025       97.722        6.740        0.005      336.310        7.526      868.751
11/06/2013  22:31:00      -87.506      -23.851      -15.435        9.923        8.077        5.774       98.473       65.242       33.336        0.433        0.010       90.698        3.516        0.002      336.250        7.425      868.745
11/06/2013  22:32:00      -66.236      -17.438      -13.709        9.706       10.105        7.720       94.216      102.121       59.603        0.257        0.013       68.493        6.510        0.009      336.345        7.584      868.735
11/06/2013  22:33:00      -49.737      -18.257      -11.617        9.812       11.899        5.796       96.280      141.588       33.595        0.161        0.014       52.982        5.137        0.009      336.338        7.573      868.727
11/06/2013  22:34:00      -38.011      -18.958       -9.435       10.018       11.172        8.422      100.360      124.803       70.931        0.109        0.015       42.476        5.771        0.018      336.323        7.548      868.718
11/06/2013  22:35:00      -42.867       -0.850      -11.167        8.031        6.295        7.178       64.496       39.630       51.524        0.106        0.008       42.876        4.170        0.009      336.356        7.601      868.710
11/06/2013  22:36:00      -36.541       -0.385       10.307        9.217        5.173        6.950       84.950       26.758       48.305        0.080        0.008       36.543        5.192        0.020      336.393        7.665      868.706
11/06/2013  22:37:00      -28.111       -0.476        2.860       11.697        6.391        5.947      136.829       40.845       35.371        0.051        0.011       28.115        2.811        0.010      336.499        7.840      868.698
11/06/2013  22:38:00        1.796       -3.524        2.299        7.841        7.125        4.371       61.484       50.763       19.107        0.008        0.007        3.955        4.842        1.499      336.657        8.107      868.696
11/06/2013  22:39:00       35.135      -23.241       -3.877       14.052        9.839        7.067      197.468       96.811       49.943        0.107        0.017       42.126        5.638        0.018      336.911        8.532      868.690
11/06/2013  22:40:00       -4.834      -13.844       -0.791       23.184        8.706        3.960      537.494       75.801       15.683        0.042        0.031       14.664        5.080        0.120      336.805        8.354      868.672
11/06/2013  22:41:00      -24.118       -5.530       -1.176        7.783       11.987        6.438       60.581      143.700       41.444        0.043        0.012       24.744        5.970        0.058      336.536        7.905      868.654
11/06/2013  22:42:00       -9.028        4.371       -0.802       15.767        7.621        6.221      248.611       58.085       38.704        0.022        0.017       10.031        3.564        0.126      336.609        8.027      868.639
11/06/2013  22:43:00       21.495       18.305        1.742        6.995        9.570        4.392       48.926       91.590       19.287        0.048        0.008       28.233        4.969        0.031      336.751        8.264      868.621
11/06/2013  22:44:00       25.317       20.348       -1.347       11.448        9.348        8.529      131.055       87.389       72.747        0.067        0.015       32.481        5.541        0.029      336.760        8.279      868.612
11/06/2013  22:45:00       36.187       18.428        5.033       11.503        6.328        7.476      132.312       40.041       55.884        0.095        0.011       40.609        4.103        0.010      336.765        8.288      868.595
11/06/2013  22:46:00       15.738       13.395        2.420       14.169        7.500        6.292      200.753       56.255       39.595        0.036        0.015       20.667        4.467        0.047      336.741        8.248      868.586
11/06/2013  22:47:00       40.693       12.669        7.454       11.156       10.029        8.944      124.466      100.575       80.002        0.109        0.015       42.619        6.413        0.023      336.750        8.264      868.580
11/06/2013  22:48:00       13.846       -1.831        0.985        8.933        8.614        8.201       79.791       74.197       67.248        0.021        0.011       13.966        3.850        0.076      336.714        8.203      868.574
11/06/2013  22:49:00        9.450       -6.716        1.839        8.926        6.631        5.419       79.667       43.975       29.366        0.015        0.008       11.593        3.465        0.089      336.692        8.167      868.560
11/06/2013  22:50:00      -18.585      -12.130       -0.400       11.202        6.825        4.442      125.483       46.579       19.729        0.034        0.010       22.193        4.324        0.038      336.466        7.788      868.543
11/06/2013  22:51:00      -23.831       -0.140        0.177        6.031        6.160        4.034       36.374       37.946       16.273        0.033        0.005       23.831        2.386        0.010      336.491        7.830      868.525
11/06/2013  22:52:00        3.227        0.132       -4.455       12.888        9.298        4.203      166.094       86.456       17.667        0.015        0.014        3.230        6.003        3.455      336.601        8.013      868.505
11/06/2013  22:53:00        6.909        1.894        1.838        3.485        2.479        2.725       12.146        6.145        7.424        0.004        0.001        7.164        1.761        0.060      336.662        8.116      868.495
11/06/2013  22:54:00       -6.587       -0.964        2.132        6.801        3.324        2.244       46.248       11.050        5.033        0.006        0.003        6.657        1.165        0.031      336.593        8.001      868.487
11/06/2013  22:55:00      -13.971       -6.804       -1.460        8.077        6.041        3.576       65.239       36.499       12.788        0.018        0.006       15.540        2.256        0.021      336.576        7.972      868.478
11/06/2013  22:56:00      -25.440      -12.091       -6.954        9.038        7.312        7.380       81.680       53.465       54.466        0.052        0.009       28.167        3.333        0.014      336.405        7.685      868.463
11/06/2013  22:57:00       14.298      -20.646       -5.025       19.395       11.611        7.816      376.183      134.821       61.095        0.061        0.029       25.113        6.438        0.066      336.662        8.114      868.458
11/06/2013  22:58:00       22.651      -12.096        4.128        9.188       17.490        8.880       84.422      305.912       78.858        0.057        0.023       25.678        6.586        0.066      336.723        8.217      868.460
11/06/2013  22:59:00       38.920      -10.999        5.865       13.187       12.807        9.486      173.885      164.018       89.981        0.105        0.021       40.444        7.884        0.038      336.776        8.306      868.463
11/06/2013  23:00:00       -5.225      -11.506       -0.137       24.006       21.378       14.039      576.289      457.013      197.104        0.069        0.062       12.637       11.429        0.818      336.790        8.331      868.477
11/06/2013  23:01:00      -28.043       -6.400        2.932       12.340        7.473        8.783      152.284       55.842       77.135        0.056        0.014       28.764        4.259        0.022      336.538        7.906      868.490
11/06/2013  23:02:00      -29.432       -4.602        9.271       11.647        9.569        8.995      135.641       91.557       80.904        0.064        0.015       29.789        5.506        0.034      336.440        7.745      868.512
11/06/2013  23:03:00       -3.366        8.797        7.423        6.602        8.434        8.624       43.581       71.127       74.381        0.017        0.009        9.418        5.901        0.393      336.628        8.058      868.510
11/06/2013  23:04:00       -6.790       20.688       -1.430       10.424        7.655        4.809      108.657       58.592       23.122        0.033        0.010       21.774        1.664        0.006      336.721        8.214      868.503
11/06/2013  23:05:00       -2.049       21.320       -5.443       13.841       12.181        8.389      191.576      148.375       70.380        0.045        0.021       21.418        8.939        0.174      336.729        8.227      868.492
11/06/2013  23:06:00        7.509       17.429       -2.973        7.160       13.958        5.776       51.265      194.833       33.364        0.032        0.014       18.978        6.475        0.116      336.735        8.239      868.467
11/06/2013  23:07:00       11.002       29.210       -4.212       10.201       22.741        6.583      104.055      517.161       43.331        0.083        0.033       31.213        9.229        0.087      336.742        8.249      868.460
11/06/2013  23:08:00        5.065       17.507       -0.899        8.298       18.207        7.677       68.859      331.478       58.943        0.040        0.023       18.225        9.526        0.273      336.709        8.195      868.457
11/06/2013  23:09:00       -5.383       28.659       -4.957        7.373       10.363        3.943       54.364      107.395       15.547        0.053        0.009       29.160        2.220        0.006      336.742        8.248      868.478
11/06/2013  23:10:00      -36.297       -9.567       -8.504        8.435        7.301        5.286       71.156       53.305       27.937        0.082        0.008       37.536        1.964        0.003      336.396        7.668      868.491
11/06/2013  23:11:00      -44.605      -14.042       -7.123        7.347       10.044        7.192       53.984      100.888       51.730        0.122        0.010       46.763        3.239        0.005      336.258        7.440      868.486
11/06/2013  23:12:00      -45.885       -5.046       -7.392        8.818        7.392        6.214       77.752       54.644       38.610        0.118        0.009       46.162        4.636        0.010      336.283        7.481      868.467
11/06/2013  23:13:00      -54.567        0.619      -11.533        6.480        5.023        5.995       41.992       25.230       35.944        0.161        0.005       54.570        3.343        0.004      336.335        7.567      868.442
11/06/2013  23:14:00      -48.830       -9.688      -14.451        9.592        8.906        6.438       92.005       79.315       41.442        0.145        0.011       49.781        5.674        0.013      336.258        7.438      868.412
11/06/2013  23:15:00      -51.475      -10.189       -5.050       12.395        8.547        6.599      153.644       73.043       43.551        0.152        0.014       52.474        6.707        0.016      336.278        7.471      868.398
11/06/2013  23:16:00      -65.483      -10.533       -7.978        7.530        6.289        4.654       56.702       39.548       21.658        0.229        0.006       66.324        2.642        0.002      336.323        7.547      868.397
11/06/2013  23:17:00      -51.748      -21.109      -13.264        9.989       10.238        9.207       99.782      104.818       84.776        0.179        0.014       55.888        6.173        0.012      336.319        7.540      868.414
11/06/2013  23:18:00      -70.290      -20.410       -5.375       11.910       14.192       10.124      141.851      201.426      102.502        0.292        0.022       73.194        7.145        0.010      336.170        7.292      868.423
11/06/2013  23:19:00      -88.314      -21.432      -11.932       18.767       18.963       14.598      352.209      359.584      213.116        0.466        0.046       90.877        8.784        0.009      336.141        7.242      868.431
11/06/2013  23:20:00      -96.856      -10.777      -11.158       29.104       15.433       15.790      847.024      238.180      249.334        0.548        0.067       97.454       15.546        0.025      336.116        7.201      868.437
11/06/2013  23:21:00      -77.805       -3.535      -10.281       23.524       11.103       10.553      553.379      123.274      111.367        0.348        0.039       77.885        6.804        0.008      336.123        7.213      868.432
11/06/2013  23:22:00      -53.118      -13.537       -6.824       10.296       12.806        6.935      106.018      163.982       48.096        0.168        0.016       54.815        5.677        0.011      336.201        7.343      868.411
11/06/2013  23:23:00      -55.438       -1.918       -6.823       14.135       16.027       11.462      199.786      256.860      131.368        0.186        0.029       55.471        3.246        0.003      336.294        7.500      868.388
11/06/2013  23:24:00      -68.331        4.926       -8.832       19.384       14.269        9.693      375.745      203.596       93.958        0.272        0.034       68.508        7.786        0.013      336.374        7.633      868.384
11/06/2013  23:25:00      -59.534      -11.814      -10.673       15.171       20.931        9.415      230.163      438.105       88.649        0.228        0.038       60.695        5.023        0.007      336.362        7.612      868.373
11/06/2013  23:26:00      -56.107      -20.701       -7.386       21.401       17.987        9.187      458.015      323.533       84.402        0.225        0.043       59.804        6.297        0.011      336.349        7.592      868.366
11/06/2013  23:27:00      -36.553      -13.683        0.311       14.005       18.820       11.039      196.134      354.195      121.857        0.110        0.034       39.030        9.503        0.059      336.419        7.707      868.352
11/06/2013  23:28:00      -42.874       -6.640       -5.190       17.842       13.549        8.359      318.334      183.583       69.867        0.124        0.029       43.385        6.777        0.024      336.433        7.731      868.349
11/06/2013  23:29:00      -71.923      -28.072       -6.139       12.934       12.869        7.937      167.299      165.599       62.993        0.320        0.020       77.207        6.259        0.007      336.384        7.651      868.345
11/06/2013  23:30:00      -88.517      -34.693       -8.606       15.507        9.966        7.345      240.460       99.328       53.948        0.475        0.020       95.073        6.160        0.004      336.300        7.508      868.329
11/06/2013  23:31:00      -81.818      -18.332        0.682       11.555       20.642       10.480      133.515      426.101      109.838        0.385        0.033       83.847        6.122        0.005      336.279        7.474      868.316
11/06/2013  23:32:00      -78.683       -7.799       -8.309        7.327        9.920        8.009       53.682       98.416       64.140        0.327        0.011       79.068        3.536        0.002      336.283        7.480      868.301
11/06/2013  23:33:00      -79.389      -16.379       -8.440       11.079        9.218        7.873      122.748       84.970       61.979        0.346        0.013       81.061        5.473        0.005      336.362        7.613      868.288
11/06/2013  23:34:00      -88.562      -26.267       -7.828       13.962       10.920        9.287      194.931      119.241       86.255        0.450        0.020       92.375        4.260        0.002      336.376        7.636      868.288
11/06/2013  23:35:00      -94.712      -37.021       -4.175        9.186       10.236        8.604       84.391      104.776       74.027        0.531        0.013      101.690        4.778        0.002      336.345        7.583      868.291
11/06/2013  23:36:00      -88.683      -30.343      -10.892       14.043       11.574        6.557      197.198      133.957       42.998        0.464        0.019       93.731        5.395        0.003      336.263        7.448      868.291
11/06/2013  23:37:00      -57.023      -35.675       -1.105       14.872       11.117        9.245      221.179      123.578       85.470        0.248        0.022       67.264        7.569        0.013      336.329        7.558      868.276
11/06/2013  23:38:00      -55.661      -25.693       -3.780       14.945       13.140        8.626      223.363      172.647       74.408        0.212        0.024       61.304        6.891        0.013      336.377        7.636      868.250
11/06/2013  23:39:00      -69.719      -12.819       -6.740       19.655        8.823        8.555      386.338       77.850       73.188        0.280        0.027       70.888        9.636        0.018      336.424        7.715      868.226
11/06/2013  23:40:00      -88.681      -24.607       -5.075        9.544       10.983        7.356       91.081      120.626       54.106        0.438        0.013       92.032        5.578        0.004      336.460        7.777      868.220
11/06/2013  23:41:00      -68.454      -27.409        0.867       24.580       13.086       10.584      604.191      171.231      112.026        0.316        0.044       73.738        8.034        0.012      336.420        7.709      868.214
11/06/2013  23:42:00      -35.325      -25.970        5.059       24.647       15.774       14.727      607.494      248.831      216.876        0.151        0.054       43.843       15.415        0.124      336.464        7.783      868.224
11/06/2013  23:43:00      -44.474      -20.760       -5.650       16.161       14.374       10.368      261.181      206.626      107.493        0.151        0.029       49.081        7.489        0.023      336.484        7.818      868.227
11/06/2013  23:44:00      -18.585      -37.131        1.690       12.671       16.124        9.775      160.562      259.973       95.546        0.112        0.026       41.523        8.110        0.038      336.630        8.060      868.220
11/06/2013  23:45:00      -46.497      -10.416       -3.720       14.511        8.076        9.867      210.556       65.218       97.359        0.133        0.019       47.649        8.326        0.031      336.552        7.933      868.200
11/06/2013  23:46:00      -79.055      -29.068       -6.143       13.413       13.914        8.854      179.904      193.602       78.397        0.379        0.023       84.230        7.079        0.007      336.486        7.821      868.190
11/06/2013  23:47:00      -63.268      -35.937        4.745       23.930       18.838       14.746      572.665      354.875      217.450        0.323        0.057       72.762       13.848        0.036      336.435        7.735      868.191
11/06/2013  23:48:00      -15.183      -21.986        4.061       24.525       15.153       14.065      601.473      229.613      197.825        0.088        0.051       26.719       10.219        0.146      336.463        7.783      868.187
11/06/2013  23:49:00       -1.607      -19.451        0.732       12.826        9.711        7.594      164.514       94.313       57.663        0.035        0.016       19.518        6.332        0.105      336.555        7.938      868.172
11/06/2013  23:50:00      -23.200      -19.694        2.749        9.728       15.119        6.225       94.635      228.590       38.752        0.065        0.018       30.432        3.181        0.011      336.709        8.193      868.148
11/06/2013  23:51:00      -28.053      -11.070        0.411       24.447       14.572       11.664      597.653      212.336      136.058        0.093        0.047       30.158       12.184        0.163      336.509        7.861      868.130
11/06/2013  23:52:00      -40.567      -18.191        6.893       32.883       17.680       13.051     1081.272      312.592      170.337        0.179        0.078       44.459       15.775        0.126      336.498        7.841      868.116
11/06/2013  23:53:00      -47.584      -43.319       -0.669       26.040       25.647       16.360      678.080      657.764      267.659        0.287        0.080       64.349       15.621        0.059      336.586        7.987      868.107
11/06/2013  23:54:00      -57.557      -38.528       -0.150       27.902       17.580       15.673      778.548      309.043      245.633        0.307        0.067       69.262       10.606        0.023      336.536        7.905      868.099
11/06/2013  23:55:00      -75.235      -41.284       -0.390       20.714       18.091       13.902      429.065      327.287      193.277        0.416        0.047       85.818        8.920        0.011      336.421        7.711      868.090
11/06/2013  23:56:00      -95.633      -42.108       -9.893       19.642       18.555       12.869      385.818      344.270      165.613        0.596        0.045      104.492        4.870        0.002      336.331        7.560      868.081
11/06/2013  23:57:00      -72.046      -46.079        2.007       31.415       19.599       14.618      986.892      384.114      213.695        0.445        0.079       85.522       12.474        0.021      336.344        7.582      868.062
11/06/2013  23:58:00      -81.065      -36.471       -7.789       23.432        9.203       11.173      549.062       84.686      124.833        0.436        0.038       88.891        4.990        0.003      336.402        7.678      868.061
11/06/2013  23:59:00      -52.156      -28.843       -3.886       11.377        9.142        8.294      129.447       83.583       68.785        0.192        0.014       59.600        6.698        0.013      336.397        7.671      868.062
